[[{"header":{"parameterUnit":"m.s-1","parameterCategory":1,"la1":30.6,"la2":29.2853,"lo1":-89.7004,"lo2":-87.6739,"dy":0.0162,"dx":0.0183,"nx":112,"ny":82,"refTime":"2023-08-07T06:00:00:Z","depth":0,"parameterNumber":2,"parameterNumberName":"U-component_of_WINDS"},"data":[0.0,0.0,0.0,0.0,0.0,0.0,0.0,0.0,0.0,0.0,0.0,0.0,0.0,0.0,0.0,0.0,0.0,0.0,0.0,0.0,0.0,0.0,0.0,0.0,0.0,0.0,0.0,0.0,0.0,0.0,0.0,0.0,0.0,0.0,0.0,0.0,0.0,0.0,0.0,0.0,0.0,0.0,0.0,0.0,0.0,0.0,0.0,0.0,0.0,0.0,0.0,0.0,0.0,0.0,0.0,0.0,0.0,0.0,0.0,0.0,0.0,0.0,0.0,0.0,0.0,0.0,0.0,0.0,0.0,0.0,0.0,0.0,0.0,0.0,0.0,0.0,0.0,0.0,0.0,0.0,0.0,0.0,0.0,0.0,0.0,0.0,0.0,0.0,0.0,0.0,-0.722,-0.8038,-1.0966,-1.2848,-1.2808,-1.3988,-1.381,-1.1741,0.0,0.0,0.0,0.0,0.0,0.0,0.0,0.0,0.0,0.0,0.0,0.0,0.0,0.0,0.0,0.0,0.0,0.0,0.0,0.0,0.0,0.0,0.0,0.0,0.0,0.0,0.0,0.0,0.0,0.0,0.0,0.0,0.0,0.0,0.0,0.0,0.0,0.0,0.0,0.0,0.0,0.0,0.0,0.0,0.0,0.0,0.0,0.0,0.0,0.0,0.0,0.0,0.0,0.0,0.0,0.0,0.0,0.0,0.0,0.0,0.0,0.0,0.0,0.0,0.0,0.0,0.0,0.0,0.0,0.0,0.0,0.0,0.0,0.0,0.0,0.0,0.0,0.0,0.0,0.0,0.0,0.0,0.0,0.0,0.0,0.0,0.0,0.0,0.0,0.0,0.0,0.0,0.0,0.0,0.0,0.0,0.0,0.0,0.0,0.0,0.0,0.0,0.0,0.0,-0.7074,-0.7671,-1.0009,-1.1276,-1.0455,-1.1079,-1.0909,-0.9634,0.0,0.0,0.0,0.0,0.0,0.0,0.0,0.0,0.0,0.0,0.0,0.0,0.0,0.0,0.0,0.0,0.0,0.0,0.0,0.0,0.0,0.0,0.0,0.0,0.0,0.0,0.0,0.0,0.0,0.0,0.0,0.0,0.0,0.0,0.0,0.0,0.0,0.0,0.0,0.0,0.0,0.0,0.0,0.0,0.0,0.0,0.0,0.0,0.0,0.0,0.0,0.0,0.0,0.0,0.0,0.0,0.0,0.0,0.0,0.0,0.0,0.0,0.0,0.0,0.0,0.0,0.0,0.0,0.0,0.0,0.0,0.0,0.0,0.0,0.0,0.0,0.0,0.0,0.0,0.0,0.0,0.0,0.0,0.0,0.0,0.0,0.0,0.0,0.0,0.0,0.0,0.0,0.0,0.0,0.0,0.0,0.0,0.0,0.0,0.0,0.0,0.0,0.0,-0.6236,-0.6718,-0.7035,-0.8939,-1.0095,-0.9635,-1.0496,-1.0622,-0.9852,-0.9554,0.0,0.0,0.0,0.0,0.0,0.0,0.0,0.0,0.0,0.0,0.0,0.0,0.0,0.0,0.0,0.0,0.0,0.0,0.0,0.0,0.0,0.0,0.0,0.0,0.0,0.0,0.0,0.0,0.0,0.0,0.0,0.0,0.0,0.0,0.0,0.0,0.0,0.0,0.0,0.0,0.0,0.0,0.0,0.0,0.0,0.0,0.0,0.0,0.0,0.0,0.0,0.0,0.0,0.0,0.0,0.0,0.0,0.0,0.0,0.0,0.0,0.0,0.0,0.0,0.0,0.0,0.0,0.0,0.0,0.0,0.0,0.0,0.0,0.0,0.0,0.0,0.0,0.0,0.0,0.0,0.0,0.0,0.0,0.0,0.0,0.0,0.0,0.0,0.0,0.0,0.0,0.0,0.0,0.0,0.0,0.0,0.0,0.0,0.0,0.0,0.0,0.0,-0.6051,-0.6295,-0.6661,-0.7967,-0.8861,-0.8986,-0.9651,-0.9894,-0.962,-0.8461,0.0,0.0,0.0,0.0,0.0,0.0,0.0,0.0,0.0,0.0,0.0,0.0,0.0,0.0,0.0,0.0,0.0,0.0,0.0,0.0,0.0,0.0,0.0,0.0,0.0,0.0,0.0,0.0,0.0,0.0,0.0,0.0,0.0,0.0,0.0,0.0,0.0,0.0,0.0,0.0,0.0,0.0,0.0,0.0,0.0,0.0,0.0,0.0,0.0,0.0,0.0,0.0,0.0,0.0,0.0,0.0,0.0,0.0,0.0,0.0,0.0,0.0,0.0,0.0,0.0,0.0,0.0,0.0,0.0,0.0,0.0,0.0,0.0,0.0,0.0,0.0,0.0,0.0,0.0,0.0,0.0,0.0,0.0,0.0,0.0,0.0,0.0,0.0,0.0,0.0,0.0,0.0,0.0,0.0,0.0,0.0,0.0,0.0,0.0,0.0,0.0,0.0,-0.5996,-0.6057,-0.6637,-0.719,-0.7556,-0.7566,-0.7249,-0.7045,-0.7175,-0.6548,0.0,0.0,0.0,0.0,0.0,0.0,0.0,0.0,0.0,0.0,0.0,0.0,0.0,0.0,0.0,0.0,0.0,0.0,0.0,0.0,0.0,0.0,0.0,0.0,0.0,0.0,0.0,0.0,0.0,0.0,0.0,0.0,0.0,0.0,0.0,0.0,0.0,0.0,0.0,0.0,0.0,0.0,0.0,0.0,0.0,0.0,0.0,0.0,0.0,0.0,0.0,0.0,0.0,0.0,0.0,0.0,0.0,0.0,0.0,0.0,0.0,0.0,0.0,0.0,0.0,0.0,0.0,0.0,0.0,0.0,0.0,0.0,0.0,0.0,0.0,0.0,0.0,0.0,0.0,0.0,0.0,0.0,0.0,0.0,0.0,0.0,0.0,0.0,0.0,0.0,0.0,0.0,0.0,0.0,0.0,0.0,0.0,0.0,0.0,0.0,0.0,0.0,-0.6074,-0.6139,-0.6644,-0.6936,-0.7129,-0.7221,-0.699,-0.6827,-0.679,0.0,0.0,0.0,0.0,0.0,0.0,0.0,0.0,0.0,0.0,0.0,0.0,0.0,0.0,0.0,0.0,0.0,0.0,0.0,0.0,0.0,0.0,0.0,0.0,0.0,0.0,0.0,0.0,0.0,0.0,0.0,0.0,0.0,0.0,0.0,0.0,0.0,0.0,0.0,0.0,0.0,0.0,0.0,0.0,0.0,0.0,0.0,0.0,0.0,0.0,0.0,0.0,0.0,0.0,0.0,0.0,0.0,0.0,0.0,0.0,0.0,0.0,0.0,0.0,0.0,0.0,0.0,0.0,0.0,0.0,0.0,0.0,0.0,0.0,0.0,0.0,0.0,0.0,0.0,0.0,0.0,0.0,0.0,0.0,0.0,0.0,0.0,0.0,0.0,0.0,0.0,0.0,0.0,0.0,0.0,0.0,0.0,0.0,0.0,0.0,0.0,0.0,-0.6295,-0.6112,-0.6129,-0.658,-0.6766,-0.6895,-0.6993,-0.6736,-0.6586,-0.6624,0.0,0.0,0.0,0.0,0.0,0.0,0.0,0.0,0.0,0.0,0.0,0.0,0.0,0.0,0.0,0.0,0.0,0.0,0.0,0.0,0.0,0.0,0.0,0.0,0.0,0.0,0.0,0.0,0.0,0.0,0.0,0.0,0.0,0.0,0.0,0.0,0.0,0.0,0.0,0.0,0.0,0.0,0.0,0.0,0.0,0.0,0.0,0.0,0.0,0.0,0.0,0.0,0.0,0.0,0.0,0.0,0.0,0.0,0.0,0.0,0.0,0.0,0.0,0.0,0.0,0.0,0.0,0.0,0.0,0.0,0.0,0.0,0.0,0.0,0.0,0.0,0.0,0.0,0.0,0.0,0.0,0.0,0.0,0.0,0.0,0.0,0.0,0.0,0.0,0.0,0.0,0.0,0.0,0.0,0.0,0.0,0.0,0.0,0.0,0.0,0.0,0.0,-0.6413,-0.6078,-0.5969,-0.642,-0.6607,-0.6698,-0.6702,-0.6149,-0.5996,0.0,0.0,0.0,0.0,0.0,0.0,0.0,0.0,0.0,0.0,0.0,0.0,0.0,0.0,0.0,0.0,0.0,0.0,0.0,0.0,0.0,0.0,0.0,0.0,0.0,0.0,0.0,0.0,0.0,0.0,0.0,0.0,0.0,0.0,0.0,0.0,0.0,0.0,0.0,0.0,0.0,0.0,0.0,0.0,0.0,0.0,0.0,0.0,0.0,0.0,0.0,0.0,0.0,0.0,0.0,0.0,0.0,0.0,0.0,0.0,0.0,0.0,0.0,0.0,0.0,0.0,0.0,0.0,0.0,0.0,0.0,0.0,0.0,0.0,0.0,0.0,0.0,0.0,0.0,0.0,0.0,0.0,0.0,0.0,0.0,0.0,0.0,0.0,0.0,0.0,0.0,0.0,0.0,0.0,0.0,0.0,0.0,0.0,0.0,0.0,0.0,0.0,0.0,-0.6291,-0.5932,-0.5823,-0.6274,-0.6454,-0.6583,-0.6692,-0.6346,-0.6271,-0.661,0.0,0.0,0.0,0.0,0.0,0.0,0.0,0.0,0.0,0.0,0.0,0.0,0.0,0.0,0.0,0.0,0.0,0.0,0.0,0.0,0.0,0.0,0.0,0.0,0.0,0.0,0.0,0.0,0.0,0.0,0.0,0.0,0.0,0.0,0.0,0.0,0.0,0.0,0.0,0.0,0.0,0.0,0.0,0.0,0.0,0.0,0.0,0.0,0.0,0.0,0.0,0.0,0.0,0.0,0.0,0.0,0.0,0.0,0.0,0.0,0.0,0.0,0.0,0.0,0.0,0.0,0.0,0.0,0.0,0.0,0.0,0.0,0.0,0.0,0.0,0.0,0.0,0.0,0.0,0.0,0.0,0.0,0.0,0.0,0.0,0.0,0.0,0.0,0.0,0.0,0.0,0.0,0.0,0.0,0.0,0.0,0.0,0.0,0.0,0.0,0.0,0.0,-0.641,-0.5989,-0.5823,-0.622,-0.6335,-0.6447,-0.6597,-0.6339,-0.6423,-0.706,0.0,0.0,0.0,0.0,0.0,0.0,0.0,0.0,0.0,0.0,0.0,0.0,0.0,0.0,0.0,0.0,0.0,0.0,0.0,0.0,0.0,0.0,0.0,0.0,0.0,0.0,0.0,0.0,0.0,0.0,0.0,0.0,0.0,0.0,0.0,0.0,0.0,0.0,0.0,0.0,0.0,0.0,0.0,0.0,0.0,0.0,0.0,0.0,0.0,0.0,0.0,0.0,0.0,0.0,0.0,0.0,0.0,0.0,0.0,0.0,0.0,0.0,0.0,0.0,0.0,0.0,0.0,0.0,0.0,0.0,0.0,0.0,0.0,0.0,0.0,0.0,0.0,0.0,0.0,0.0,0.0,0.0,0.0,0.0,0.0,0.0,0.0,0.0,0.0,0.0,0.0,0.0,0.0,0.0,0.0,0.0,0.0,0.0,0.0,0.0,0.0,0.0,-0.6644,-0.6166,-0.5915,-0.6207,-0.6264,-0.641,-0.6617,-0.6377,-0.6651,-0.771,0.0,0.0,0.0,0.0,0.0,0.0,0.0,0.0,0.0,0.0,0.0,0.0,0.0,0.0,0.0,0.0,0.0,0.0,0.0,0.0,0.0,0.0,0.0,0.0,0.0,0.0,0.0,0.0,0.0,0.0,0.0,0.0,0.0,0.0,0.0,0.0,0.0,0.0,0.0,0.0,0.0,0.0,0.0,0.0,0.0,0.0,0.0,0.0,0.0,0.0,0.0,0.0,0.0,0.0,0.0,0.0,0.0,0.0,0.0,0.0,-0.7132,0.0,0.0,0.0,0.0,0.0,0.0,0.0,0.0,0.0,0.0,0.0,0.0,0.0,0.0,0.0,0.0,0.0,0.0,0.0,0.0,0.0,0.0,0.0,0.0,0.0,0.0,0.0,0.0,0.0,0.0,0.0,0.0,0.0,0.0,0.0,0.0,0.0,0.0,0.0,0.0,0.0,-0.6498,-0.6098,-0.5874,-0.6057,-0.6288,-0.6835,-0.7736,-0.775,-0.8108,-0.9072,-0.8694,0.0,0.0,0.0,0.0,0.0,0.0,0.0,0.0,0.0,0.0,0.0,0.0,0.0,0.0,0.0,0.0,0.0,0.0,0.0,0.0,0.0,0.0,0.0,0.0,0.0,0.0,0.0,0.0,0.0,0.0,0.0,0.0,0.0,0.0,0.0,0.0,0.0,0.0,0.0,0.0,0.0,0.0,0.0,0.0,0.0,0.0,0.0,0.0,0.0,0.0,0.0,0.0,0.0,0.0,0.0,0.0,0.0,0.0,0.0,0.0,-0.7529,0.0,0.0,0.0,0.0,0.0,0.0,0.0,0.0,0.0,0.0,0.0,0.0,0.0,0.0,0.0,0.0,0.0,0.0,0.0,0.0,0.0,0.0,0.0,0.0,0.0,0.0,0.0,0.0,0.0,0.0,0.0,0.0,0.0,0.0,0.0,0.0,0.0,0.0,0.0,0.0,-0.6556,-0.619,-0.5996,-0.622,-0.6914,-0.7655,-0.8393,-0.8882,-0.9542,-1.0406,-0.987,0.0,0.0,0.0,0.0,0.0,0.0,0.0,0.0,0.0,0.0,0.0,0.0,0.0,0.0,0.0,0.0,0.0,0.0,0.0,0.0,0.0,0.0,0.0,0.0,0.0,0.0,0.0,0.0,0.0,0.0,0.0,0.0,0.0,0.0,0.0,0.0,0.0,0.0,0.0,0.0,0.0,0.0,0.0,0.0,0.0,0.0,0.0,0.0,0.0,0.0,0.0,0.0,0.0,-0.8197,-0.8414,-0.8757,-0.8933,-0.8974,-0.8886,-0.854,-0.8228,-0.798,-0.8157,0.0,0.0,0.0,0.0,0.0,0.0,0.0,0.0,0.0,0.0,0.0,0.0,0.0,0.0,0.0,0.0,0.0,0.0,0.0,0.0,0.0,0.0,0.0,0.0,-0.7658,-0.7573,0.0,0.0,0.0,0.0,0.0,0.0,0.0,0.0,0.0,0.0,0.0,0.0,-0.6668,-0.6485,-0.6481,-0.6795,-0.8016,-0.894,-0.931,-1.0093,-1.0952,-1.1802,-1.102,-1.0338,0.0,0.0,0.0,0.0,0.0,0.0,0.0,0.0,0.0,0.0,0.0,0.0,0.0,0.0,0.0,0.0,0.0,0.0,0.0,0.0,0.0,0.0,0.0,0.0,0.0,0.0,0.0,0.0,0.0,0.0,0.0,0.0,-1.1643,-1.2231,0.0,0.0,0.0,0.0,0.0,0.0,0.0,0.0,0.0,0.0,0.0,0.0,0.0,-0.7984,-0.8119,-0.8547,-0.8648,-0.8428,-0.8818,-0.8971,-0.8916,-0.9195,-0.9452,-0.968,-0.9751,0.0,-0.8564,-0.8214,0.0,0.0,0.0,0.0,0.0,0.0,0.0,0.0,0.0,0.0,0.0,0.0,0.0,0.0,0.0,0.0,0.0,0.0,0.0,0.0,0.0,0.0,-0.758,-0.7743,-0.7885,-0.7967,0.0,-0.7723,-0.7485,-0.7197,-0.7058,0.0,0.0,0.0,0.0,0.0,0.0,0.0,-0.6695,-0.7281,-0.7876,-0.8081,-0.9353,-1.0658,-1.1929,-1.2082,-1.2392,-1.3267,-1.2933,-1.2765,-1.2693,-1.2628,0.0,0.0,0.0,0.0,0.0,0.0,0.0,0.0,0.0,0.0,0.0,0.0,0.0,0.0,0.0,0.0,0.0,0.0,0.0,0.0,0.0,0.0,0.0,0.0,0.0,0.0,0.0,0.0,0.0,-1.2418,-1.2959,-1.3046,-1.2568,-1.2257,0.0,0.0,0.0,0.0,0.0,0.0,0.0,0.0,0.0,-0.8089,-0.8387,-0.8577,-0.8645,-0.9089,-0.9334,-0.9367,-0.9561,-0.9754,-0.9944,-1.1174,-1.1866,-1.2114,-1.3315,-1.35,-1.2755,-1.0952,-1.0151,-1.0218,0.0,0.0,0.0,0.0,-1.2704,-1.3015,-1.3796,-1.2683,0.0,-1.1737,0.0,0.0,0.0,0.0,0.0,0.0,0.0,0.0,0.0,0.0,-0.8157,-0.8387,-0.8557,-0.8665,-0.8665,-0.8431,-0.8085,0.0,-0.7468,-0.74,-0.7319,0.0,0.0,0.0,0.0,-0.8073,-0.8861,-0.9405,-0.9742,-1.0047,-1.1229,-1.2212,-1.2862,-1.3355,-1.3735,-1.4057,-1.3707,-1.3205,-1.2625,-1.2994,-1.2879,0.0,0.0,0.0,0.0,0.0,0.0,0.0,0.0,0.0,0.0,0.0,0.0,0.0,0.0,0.0,0.0,0.0,0.0,0.0,0.0,0.0,0.0,0.0,0.0,0.0,0.0,0.0,0.0,-1.318,-1.3661,-1.344,-1.276,-1.2246,0.0,0.0,0.0,0.0,0.0,0.0,-0.8642,-0.844,-0.8503,-0.876,-0.9103,-0.93,-0.9337,-0.9744,-1.0308,-1.1031,-1.1071,-1.1405,-1.2284,-1.3772,-1.4534,-1.4693,-1.6244,-1.6629,-1.5994,-1.3789,-1.2723,-1.2639,-1.3816,-1.4404,-1.4482,-1.499,-1.4833,-1.4664,-1.5933,-1.4391,-1.2094,-1.2762,-1.1276,-0.9096,-0.8418,0.0,0.0,0.0,0.0,-0.8177,-0.8513,-0.8625,-0.8838,-0.9586,-0.9862,-1.006,-1.0395,-1.0277,-0.9747,0.0,-0.8437,-0.8332,-0.8182,0.0,0.0,0.0,0.0,-0.937,-1.0743,-1.1305,-1.1576,-1.1736,-1.2919,-1.3701,-1.3768,-1.4257,-1.4636,-1.4636,-1.4155,-1.3489,-1.2652,-1.3263,-1.3257,-1.2652,0.0,0.0,0.0,0.0,0.0,0.0,0.0,0.0,0.0,0.0,0.0,0.0,0.0,0.0,0.0,0.0,0.0,0.0,0.0,0.0,0.0,0.0,0.0,0.0,0.0,0.0,0.0,0.0,0.0,-1.2869,-1.1691,0.0,0.0,0.0,0.0,-0.9891,-0.905,-0.9075,-1.049,-0.9829,-0.9388,-0.9547,-0.9981,-1.0276,-1.0412,-1.0724,-1.1814,-1.3682,-1.3726,-1.4769,-1.655,-1.6763,-1.6869,-1.6894,-1.7121,-1.6965,-1.6464,-1.5716,-1.5351,-1.5387,-1.62,-1.663,-1.6978,-1.8152,-1.7572,-1.5943,-1.6086,-1.4259,-1.1881,-1.2192,-1.1204,-0.9907,-0.9442,-0.9198,0.0,0.0,-0.8774,-0.8886,-0.891,-0.9018,-0.9646,-1.1458,-1.1896,-1.2251,-1.3766,-1.3929,-1.3106,0.0,-1.0049,-0.9837,-0.9753,0.0,-0.9737,-0.9306,-0.937,-0.9862,-1.1143,-1.2269,-1.2986,-1.3079,-1.4218,-1.498,-1.5259,-1.511,-1.4943,-1.4943,-1.4649,-1.4349,-1.399,-1.3712,-1.3692,-1.3971,-1.3705,0.0,0.0,0.0,0.0,0.0,0.0,0.0,0.0,0.0,0.0,0.0,0.0,0.0,0.0,0.0,0.0,0.0,0.0,0.0,0.0,0.0,0.0,0.0,0.0,0.0,0.0,0.0,0.0,-1.3516,-1.1963,0.0,-1.1909,-0.9737,-0.9075,-1.0578,-0.9592,-0.9398,-1.0364,-1.0141,-1.0778,-1.2527,-1.2728,-1.3495,-1.5151,-1.5292,-1.5645,-1.6205,-1.6005,-1.6245,-1.6783,-1.795,-1.8552,-1.872,-2.0221,-2.0686,-2.0307,-2.0092,-1.883,-1.7302,-1.8457,-1.8944,-1.908,-1.8704,-1.8077,-1.7348,-1.6375,-1.4704,-1.2689,-1.134,-1.0411,-0.9737,-0.9578,-0.9422,-0.93,-0.9289,-0.933,-0.9391,-0.9483,-1.0436,-1.1535,-1.2259,-1.3129,-1.4091,-1.469,-1.4519,-1.4251,-1.4288,-1.3285,-1.2294,-1.2087,-1.187,-1.197,-1.2486,-1.2371,-1.2822,-1.4031,-1.4513,-1.4836,-1.4839,-1.5238,-1.5565,-1.5665,-1.5237,-1.4963,-1.4963,-1.4329,-1.3908,-1.3808,-1.352,-1.3507,-1.3794,-1.3701,-1.3734,0.0,0.0,0.0,0.0,0.0,0.0,0.0,0.0,0.0,0.0,0.0,0.0,0.0,0.0,0.0,0.0,0.0,0.0,0.0,0.0,0.0,0.0,0.0,0.0,0.0,0.0,-1.3232,-1.3453,-1.199,-1.1308,-1.2144,-1.0331,-0.9609,-1.0782,-1.0233,-1.0411,-1.1732,-1.1825,-1.2986,-1.5381,-1.5464,-1.6153,-1.7636,-1.7791,-1.8033,-1.8369,-1.8207,-1.827,-1.8947,-2.0023,-2.0595,-2.078,-2.2219,-2.2692,-2.2418,-2.2418,-2.0825,-1.8512,-1.9586,-1.9941,-1.9865,-1.8484,-1.7521,-1.6674,-1.5087,-1.3709,-1.2358,-1.0988,-1.027,-0.9975,-0.9924,-0.9836,-0.9768,-0.9822,-1.0315,-1.0697,-1.0797,-1.225,-1.3688,-1.4298,-1.51,-1.6018,-1.6507,-1.6307,-1.6368,-1.7298,-1.5927,-1.4483,-1.4166,-1.3844,-1.3903,-1.4536,-1.4356,-1.4629,-1.5906,-1.6039,-1.5939,-1.5838,-1.5832,-1.5832,-1.5832,-1.5478,-1.517,-1.4977,-1.4315,-1.3895,-1.3801,-1.3514,-1.3494,-1.3788,-1.3794,-1.3895,-1.4088,0.0,0.0,0.0,0.0,0.0,0.0,0.0,0.0,0.0,0.0,0.0,0.0,0.0,0.0,0.0,0.0,0.0,0.0,0.0,0.0,0.0,0.0,0.0,-1.2354,-1.3344,-1.354,-1.2341,-1.1595,-1.1191,-1.0912,-1.0317,-1.0049,-1.0616,-1.0936,-1.2112,-1.4544,-1.4897,-1.5867,-1.7883,-1.8094,-1.8104,-1.7893,-1.7883,-1.8622,-2.0213,-2.0201,-2.117,-2.2846,-2.2846,-2.2846,-2.2846,-2.2859,-2.2699,-2.2297,-2.2297,-2.1034,-1.9201,-1.9428,-1.9521,-1.9278,-1.7715,-1.5705,-1.3735,-1.1931,-1.1185,-1.0941,-1.0941,-1.0843,-1.0694,-1.0544,-1.05,-1.047,-1.0334,-1.1545,-1.2792,-1.2913,-1.4159,-1.5903,-1.7503,-1.767,-1.7967,-1.9443,-1.9579,-1.9366,-1.9366,-1.7723,-1.6279,-1.5773,-1.5684,-1.5594,-1.5327,-1.5053,0.0,-1.6513,-1.6466,-1.6179,-1.5885,-1.5852,-1.5852,-1.5845,-1.5825,-1.5571,-1.4997,-1.4669,-1.4369,-1.4082,-1.3788,-1.3768,-1.4068,-1.4082,-1.4088,-1.3997,0.0,0.0,0.0,0.0,0.0,0.0,0.0,0.0,0.0,0.0,0.0,0.0,0.0,0.0,0.0,0.0,0.0,0.0,0.0,0.0,0.0,0.0,-1.1791,-1.2213,-1.168,-1.1436,-1.1951,-1.1305,-1.0884,-1.0959,-1.0895,-1.1543,-1.3022,-1.35,-1.4755,-1.6763,-1.7121,-1.8181,-2.0397,-2.0295,-2.0879,-2.2337,-2.2287,-2.219,-2.2484,-2.2263,-2.233,-2.2539,-2.2539,-2.2539,-2.2552,-2.2772,-2.2114,-2.0784,-2.0784,-1.9491,-1.7877,-1.8964,-1.844,-1.7104,-1.5404,-1.3702,-1.1895,-1.1241,-1.0945,-1.0782,-1.0782,-1.0755,-1.0714,-1.067,-1.0656,-1.0649,-1.0609,-1.0988,-1.1605,-1.2747,-1.4468,-1.6207,-1.7804,-1.8815,-1.949,-1.9986,-1.972,-1.9366,-1.9366,-1.8995,-1.8415,-1.8052,-1.7987,-1.7825,-1.7333,-1.7002,0.0,-1.7054,-1.6774,-1.6553,-1.6473,-1.6466,-1.638,-1.6166,-1.5758,-1.5357,-1.4983,-1.4282,-1.3848,-1.3768,-1.3487,-1.3467,-1.3761,-1.3975,-1.3646,0.0,0.0,0.0,0.0,0.0,0.0,0.0,0.0,0.0,0.0,0.0,0.0,0.0,0.0,0.0,0.0,0.0,0.0,0.0,0.0,0.0,0.0,-1.0918,-1.1029,-1.131,-1.1204,-1.1113,-1.1389,-1.1901,-1.2244,-1.2342,-1.3276,-1.448,-1.5763,-1.5988,-1.7068,-1.916,-1.9447,-2.0473,-2.2712,-2.2456,-2.2783,-2.4022,-2.3734,-2.3434,-2.3133,-2.2946,-2.2772,-2.2605,-2.2605,-2.2192,-2.1499,-2.1664,-2.0617,-1.8938,-1.8938,-1.7809,0.0,0.0,0.0,0.0,0.0,-1.2117,-1.1141,-1.0999,-1.085,-1.0721,-1.0721,-1.0721,-1.0721,-1.0721,-1.124,-1.1762,-1.1762,-1.2804,-1.4205,-1.5109,-1.6717,-1.8337,-1.9216,-1.9898,-2.0267,-2.0394,-1.9867,-1.9406,-1.9526,-1.9452,0.0,-1.9138,-1.9005,-1.8804,-1.8464,-1.805,-1.7716,-1.7549,-1.7154,-1.684,-1.672,-1.6707,-1.6587,-1.6299,-1.5959,0.0,0.0,0.0,-1.4142,-1.4015,-1.3848,0.0,0.0,0.0,-1.4089,-1.3455,0.0,0.0,0.0,-1.4863,-1.4689,0.0,0.0,0.0,0.0,0.0,0.0,0.0,0.0,0.0,0.0,0.0,0.0,0.0,0.0,0.0,0.0,-1.0331,-1.0044,-1.0908,-1.2063,-1.2451,-1.129,-1.3336,-1.4749,-1.4771,-1.6511,-1.7796,-1.8321,-1.8389,-1.9321,-2.1835,0.0,0.0,0.0,0.0,-2.4048,-2.3821,-2.3454,-2.3173,-2.2966,-2.2933,-2.2919,-2.2913,-2.2769,-2.1766,-2.0057,-1.9912,-1.8653,-1.6831,-1.6831,-1.5844,-1.4152,-1.4152,-1.414,-1.3819,-1.1973,-1.1277,-1.1138,-1.0978,0.0,0.0,-1.0721,-1.0721,-1.0721,-1.0982,-1.2022,-1.3325,-1.3582,-1.5784,-1.825,-1.8506,-1.9674,-2.0849,-2.1109,-2.0688,-2.0354,-2.0621,-2.004,-1.9533,-1.976,-1.9593,-1.9406,-1.9372,-1.9152,-1.8958,-1.8925,-1.8477,-1.8123,-1.8056,-1.7582,-1.7134,-1.684,0.0,0.0,-1.6346,-1.6293,-1.5912,-1.5064,-1.4983,-1.4843,-1.4583,-1.4569,-1.4696,-1.4957,-1.4963,-1.4963,-1.4963,-1.4997,-1.5144,-1.5391,-1.5137,-1.5017,0.0,0.0,0.0,0.0,0.0,0.0,0.0,0.0,0.0,0.0,0.0,0.0,0.0,0.0,0.0,-1.2074,-1.2636,-1.3504,-1.5457,-1.6377,-1.6053,-1.3888,-1.5612,-1.6972,-1.7146,-1.7804,-1.8733,-2.0243,-2.0761,-2.1704,-2.3546,-2.3901,-2.4179,-2.4636,-2.4128,-2.3941,-2.4115,-2.3347,-2.3173,-2.3594,0.0,0.0,-2.3233,-2.1651,-2.0677,-2.0057,-1.8374,-1.6685,-1.4995,-1.4995,-1.3872,-1.2183,-1.2183,-1.2105,-1.197,-1.1399,-1.1189,-1.1124,-1.0856,-1.0744,-1.0721,-1.0721,-1.0721,-1.0982,-1.2413,-1.3062,0.0,-1.5009,-1.5913,-1.6695,-1.8116,-1.8768,-1.9419,-2.0722,-2.0848,-2.0608,-2.0668,-2.0354,-2.0013,-1.9833,-1.9753,-1.9639,-1.9406,-1.9319,-1.9199,-1.8958,-1.8831,-1.8584,-1.811,-1.7949,-1.7756,-1.7448,-1.7415,-1.7201,-1.6667,-1.6406,-1.5999,-1.5351,-1.5097,-1.4937,-1.4877,-1.4877,-1.4903,-1.4963,-1.4963,-1.4963,-1.4963,-1.5197,-1.5344,-1.5398,-1.5337,-1.5311,0.0,0.0,0.0,0.0,0.0,0.0,0.0,0.0,0.0,0.0,0.0,-1.5264,0.0,0.0,-1.4799,-1.5836,-1.5793,-1.6035,-1.7297,-1.8492,-1.8485,-1.6428,-1.8106,-1.952,-1.9642,-2.0612,-2.1654,-2.2695,-2.2827,-2.3363,-2.4416,-2.4556,-2.4636,-2.4636,-2.4215,-2.4055,-2.4202,-2.3614,-2.3467,-2.3768,-2.2595,-2.2011,-2.1879,-1.9866,-1.8306,-1.7243,-1.6263,-1.4716,-1.3028,-1.3028,-1.2415,-1.1646,-1.2484,-1.2295,-1.1365,-1.1138,-1.1056,-1.1155,-1.1714,-1.2022,-1.2153,-1.3066,-1.3325,-1.3451,-1.4362,-1.5269,-1.6043,-1.6953,-1.7859,-1.864,-1.9546,-1.9807,-2.0068,-2.0849,-2.0889,-2.0715,-2.0862,-2.0541,-2.0234,-2.0234,-2.0,-1.9753,-1.9606,-1.9466,-1.9319,-1.9165,-1.9018,-1.8818,-1.8524,-1.823,-1.7989,-1.7829,-1.7675,-1.7402,-1.6967,-1.6386,-1.5925,-1.5631,-1.5204,-1.5097,-1.5384,-1.5257,-1.5251,-1.5391,-1.5398,-1.5398,-1.5398,-1.5538,-1.5611,-1.5611,-1.5611,-1.5611,0.0,0.0,0.0,0.0,0.0,0.0,0.0,0.0,-1.6273,-1.5461,-1.6692,-1.7728,-1.7316,-1.7601,-1.8291,-1.9569,-1.9009,-1.8498,-1.9162,-2.0513,-2.093,-1.9294,-2.0805,-2.1971,-2.2025,-2.3381,-2.4382,-2.4616,-2.4422,-2.4389,-2.4623,-2.4636,-2.4636,-2.4636,-2.4356,-2.4235,-2.4289,-2.3497,-2.3236,-2.3347,-2.1227,-2.0209,-2.0009,-1.7945,-1.609,-1.4487,-1.4026,-1.3028,-1.1619,-1.1619,-1.1667,-1.2082,-1.3428,-1.3257,-1.2234,-1.1976,-1.188,-1.2123,-1.3388,-1.384,-1.4101,-1.5394,-1.5913,-1.5913,-1.6302,-1.7339,-1.8506,-1.8896,-2.0068,-2.1109,-2.1109,-2.1109,-2.1109,-2.1109,-2.0929,-2.0822,-2.1056,-2.0735,-2.0454,-2.0641,-2.0294,-1.9953,-1.9893,-1.9693,-1.9499,-1.9386,-1.9165,-1.8991,-1.8931,-1.851,-1.8176,-1.8056,-1.7822,-1.7528,-1.7181,-1.6393,-1.5912,-1.5912,-1.5424,-1.5344,-1.5812,-1.5605,-1.5591,-1.5825,-1.5832,-1.5832,-1.5832,-1.5832,-1.5832,-1.5832,-1.5832,-1.5832,-1.5791,-1.5928,-1.6198,-1.6543,-1.6462,-1.6607,0.0,0.0,-1.9138,-1.9476,-1.9255,-1.8944,-1.8794,-1.8378,-1.8682,-2.0746,-2.1207,-2.1846,-2.3574,-2.4035,-2.3943,-2.3542,-2.3714,-2.4004,-2.4255,-2.4435,-2.4603,-2.4636,-2.4609,-2.4603,-2.4636,-2.4636,-2.4636,-2.4636,-2.4356,-2.4329,-2.4583,-2.2255,-2.1358,-2.1811,-1.9488,-1.8336,-1.8306,-1.6352,-1.5151,-1.4533,-1.2669,-1.176,-1.1619,-1.1619,-1.2368,-1.3727,-1.3834,-1.4481,-1.5524,-1.5476,-1.5461,-1.556,-1.5603,-1.5659,-1.5654,-1.5789,-1.5913,-1.6172,-1.7725,-1.8378,-1.8768,-2.0329,-2.0976,-2.1109,-2.1109,-2.1109,-2.1109,-2.1109,-2.1082,-2.1069,-2.1102,-2.1056,-2.0949,-2.0722,-2.0621,-2.0494,-2.0227,-2.0154,-1.996,-1.9446,-1.9339,-1.9225,-1.8958,-1.8865,-1.8624,-1.8103,-1.8016,-1.7769,-1.7194,-1.658,-1.6226,-1.6226,-1.5919,-1.5758,-1.5825,-1.5798,-1.5798,-1.5832,-1.5832,-1.5832,-1.5832,-1.5832,-1.5832,-1.5832,-1.5832,-1.5832,-1.6347,-1.6462,-1.6717,0.0,-1.7422,-1.827,-1.9011,-1.9673,-2.0136,-2.0002,-2.0857,-2.1346,-2.082,-2.1535,-2.2473,0.0,-2.3766,-2.3967,-2.4741,-2.4603,-2.4215,-2.3748,-2.3694,-2.3875,-2.4342,-2.4382,-2.4456,-2.4623,-2.4482,-2.4462,-2.4623,-2.4476,-2.4462,-2.4636,-2.4516,-2.3908,-2.2812,-2.1834,-2.0786,-1.9779,-1.7572,-1.6565,-1.6446,-1.4449,-1.3237,-1.2976,-1.1966,-1.2183,-1.3167,-1.3167,-1.4181,-1.5782,-1.6666,-1.7251,-1.7423,-1.6367,-1.5924,-1.6175,-1.7114,-1.7468,-1.7602,-1.8634,-1.8896,-1.903,-1.9807,-2.0062,-2.0195,-2.0849,-2.1109,-2.1109,-2.1109,-2.1109,-2.1109,-2.1109,-2.1109,-2.1109,-2.1109,-2.1109,-2.1076,-2.0949,-2.0795,-2.0635,-2.0514,-2.0207,-1.99,-1.9659,-1.9619,-1.9512,-1.9219,-1.9032,-1.8698,-1.811,-1.7883,-1.7609,-1.7188,-1.6921,-1.664,-1.6293,-1.6152,-1.6012,-1.5838,-1.5832,-1.5832,-1.5832,-1.5832,-1.5832,-1.5832,-1.5832,-1.5832,-1.5832,-1.5832,-1.5832,-1.6246,0.0,0.0,-1.7194,-1.8537,-1.9893,-2.0054,-2.0835,-2.1411,-2.1133,-2.2512,-2.3438,-2.2855,-2.3896,-2.503,-2.5237,-2.5097,-2.4957,-2.4957,-2.4456,-2.3834,-2.3153,-2.3006,-2.3126,-2.3547,-2.3814,-2.4048,-2.4255,-2.4155,-2.4209,-2.4502,-2.4242,-2.3958,-2.3716,-2.3651,-2.2738,-2.0836,-2.0236,-1.9145,-1.7723,-1.5667,-1.4537,-1.4366,-1.2989,-1.206,-1.1765,-1.223,-1.3167,-1.4432,-1.4995,-1.6134,-1.7707,-1.871,-1.9267,-1.9262,-1.7303,-1.6565,-1.6824,-1.8116,-1.8506,-1.8762,-1.9935,-2.0722,-2.1109,-2.1109,-2.1109,-2.1109,-2.1109,-2.1109,-2.1109,-2.1109,-2.1109,-2.1109,-2.1109,-2.1109,-2.1109,-2.1109,-2.1109,-2.1109,-2.1109,-2.0942,-2.0795,-2.0795,-2.0441,-2.0107,-1.9947,-1.992,-1.9786,-1.9412,-1.9112,-1.8731,-1.8223,-1.7896,-1.7589,-1.7295,-1.7194,-1.6967,-1.6547,-1.6366,-1.6179,-1.5965,-1.5872,-1.5832,-1.5832,-1.5832,-1.5832,-1.5832,-1.5832,-1.5832,-1.5832,-1.5832,-1.5832,0.0,0.0,-1.7355,-1.8223,-1.976,-2.1203,-2.1777,-2.2826,-2.3848,-2.4296,-2.4435,-2.4603,-2.4482,-2.4643,-2.4649,-2.4663,-2.4656,-2.4649,-2.4649,-2.4148,-2.3454,-2.2552,-2.2198,-2.2031,0.0,-2.2839,-2.3354,-2.3367,-2.3627,-2.3915,-2.4202,-2.3941,-2.3156,-2.1733,-2.1508,-2.045,-1.8718,-1.6751,-1.5599,-1.5415,-1.349,-1.258,-1.2433,-1.2135,-1.1904,-1.1767,-1.3591,-1.429,-1.457,-1.6404,-1.8095,-1.9504,-1.9253,-2.0203,-2.1252,-1.9126,-1.8378,-1.8378,-1.8506,-1.8506,-1.8506,-1.8506,-1.9674,-2.1109,-2.1109,-2.1109,-2.1109,-2.1109,-2.1109,-2.1109,-2.1109,-2.1109,-2.1109,-2.1109,-2.1109,-2.1109,-2.1109,-2.1109,-2.1109,-2.1109,-2.1102,-2.1096,-2.1096,-2.1082,-2.0875,-2.0307,-2.0221,-2.0013,-1.9439,-1.9112,-1.8804,-1.851,-1.821,-1.7909,-1.7595,-1.7315,-1.7141,-1.7121,-1.6587,-1.6273,-1.6259,-1.5979,-1.5832,-1.5832,-1.5832,-1.5832,-1.5832,-1.5832,-1.5832,-1.5832,-1.5832,-1.5832,-1.6179,0.0,-1.8584,-1.9673,-2.0969,-2.2184,-2.2986,-2.3781,-2.4402,-2.4596,-2.4329,-2.4001,-2.3801,-2.3601,-2.346,-2.346,-2.3801,-2.3995,-2.3794,-2.3601,-2.2999,-2.1704,-2.1804,0.0,0.0,0.0,0.0,-2.2993,-2.3113,-2.2721,-2.1846,-2.1635,-2.0876,-1.9305,-1.9239,-1.8351,-1.6364,-1.5716,-1.4785,-1.3166,-1.248,-1.2237,-1.2281,-1.2026,-1.1853,-1.1897,-1.3634,-1.5137,-1.6409,-1.8369,-2.0042,-2.143,-2.1149,-2.1274,-2.1516,-2.0566,-1.9546,-1.8506,-1.8506,-1.9285,-2.0202,-2.0202,-2.0589,-2.1109,-2.1109,-2.1109,-2.1109,-2.1109,-2.1109,-2.1109,-2.1109,-2.1109,-2.1109,-2.1109,-2.1109,-2.1109,-2.1109,-2.1109,-2.1109,-2.1109,-2.1109,-2.1109,-2.1109,-2.0949,-2.0621,-2.0034,-1.978,-1.9586,-1.9392,-1.9112,-1.8885,-1.8791,-1.8337,-1.8003,-1.7903,-1.7609,-1.7355,-1.7161,-1.6961,-1.668,-1.6286,-1.6179,-1.6032,-1.5832,-1.5832,-1.5832,-1.5832,-1.5832,-1.5832,-1.5832,-1.5832,-1.5832,-1.7415,-1.8724,-1.9987,-2.1162,-2.2265,-2.3207,-2.3794,-2.4215,-2.4422,-2.4209,-2.3614,-2.2979,-2.2472,-2.2044,-2.1804,-2.1904,-2.2338,-2.2706,-2.2832,-2.2759,-2.2338,-2.1383,-2.151,-2.1336,0.0,0.0,0.0,-2.2358,-2.2585,-2.199,-2.0426,-2.0303,-1.9354,-1.7135,-1.7049,-1.6202,-1.4149,-1.4369,-1.3736,-1.2142,-1.203,-1.203,-1.2118,-1.2651,-1.2809,-1.2891,-1.5328,-1.7102,-1.8374,-2.0334,-2.1575,-2.2392,-2.2098,-2.181,-2.1516,-2.0559,-1.9807,-1.9285,-1.8768,-1.9285,-2.0195,-2.0195,-2.0589,-2.1109,-2.1109,-2.1109,-2.1109,-2.1109,-2.1109,-2.1109,-2.1109,-2.1109,-2.1109,-2.1109,-2.1109,-2.1109,-2.1109,-2.1109,-2.1109,-2.1109,-2.1109,-2.1109,-2.1109,-2.0869,-2.0514,-2.0027,-1.9706,-1.9486,-1.9379,-1.9199,-1.9038,-1.8931,-1.8584,-1.827,-1.8063,-1.7862,-1.7404,-1.6573,-1.6465,-1.5992,-1.5028,-1.5319,-1.5434,-1.5146,-1.5534,-1.5832,-1.5832,-1.5832,-1.5832,-1.5832,-1.5832,-1.5832,-1.8664,-2.006,-2.145,-2.2599,-2.3541,-2.4182,-2.4182,-2.4155,-2.3955,-2.332,-2.2465,-2.155,0.0,0.0,-1.98,-2.0074,-2.0461,-2.1009,-2.1824,-2.1757,-2.1597,0.0,0.0,0.0,0.0,0.0,0.0,-2.1421,0.0,-2.1565,-1.99,-1.9918,-1.8402,-1.5223,-1.4926,-1.3964,-1.2464,-1.2461,-1.2396,-1.2274,-1.1965,-1.1823,-1.1976,-1.3845,-1.4605,-1.4712,-1.8508,-2.0057,-2.0196,-2.216,-2.2686,-2.2392,-2.2098,-2.181,-2.1381,-1.9389,-1.9674,-2.0849,-1.9158,-1.8634,-1.8634,-1.8634,-1.9801,-2.1109,-2.1109,-2.1109,-2.1109,-2.1109,-2.1109,-2.1109,-2.1109,-2.1109,-2.1109,-2.1109,-2.1109,-2.1109,-2.1109,-2.1109,-2.1109,-2.1109,-2.1109,-2.1109,-2.1109,-2.0882,-2.0601,-2.0301,-2.002,-1.9726,-1.9406,-1.9366,-1.9259,-1.8978,-1.8931,-1.8691,-1.8116,-1.8056,-1.7251,-1.5541,-1.5188,-1.4303,-1.2812,-1.3607,-1.4056,-1.398,-1.5146,-1.5832,-1.5832,-1.5832,-1.5832,-1.5832,-1.5832,-1.5832,-1.9579,-2.0969,-2.2265,-2.302,-2.3547,-2.3881,-2.3881,-2.3527,-2.2853,-2.161,-2.0474,-1.9299,0.0,0.0,0.0,-1.8591,-2.014,0.0,-2.1329,-2.2024,0.0,-2.1323,0.0,-2.1884,-2.1376,-2.0396,0.0,0.0,-2.1198,-2.0257,-1.5967,-1.7107,-1.6339,-1.2987,-1.2813,-1.248,-1.2003,-1.1898,-1.1938,-1.2118,-1.1816,-1.2446,-1.3994,-1.4285,-1.5186,-1.6685,-1.9072,-2.0057,-2.0196,-2.216,-2.2686,-2.2392,-2.2098,-2.181,-2.1516,-2.0693,-2.0716,-2.0982,-2.0589,-2.0456,-2.0456,-2.0456,-2.0722,-2.1109,-2.1109,-2.1109,-2.1109,-2.1109,-2.1109,-2.1109,-2.1109,-2.1109,-2.1109,-2.1109,-2.1109,-2.1109,-2.1109,-2.1109,-2.1109,-2.1109,-2.1109,-2.1109,-2.1109,-2.1049,-2.0902,-2.0608,-2.0501,-2.0187,-1.9459,-1.9366,-1.9339,-1.9265,-1.9058,-1.8778,-1.841,-1.817,-1.7251,-1.5541,-1.5358,-1.4902,-1.405,-1.428,-1.464,-1.5255,-1.5635,-1.5832,-1.5832,-1.5832,-1.5832,-1.5832,-1.5832,-1.5832,-2.1102,-2.2271,-2.3287,-2.3627,-2.3741,-2.3601,-2.2946,-2.2331,-2.1376,-1.9512,-1.8397,0.0,-1.5992,0.0,0.0,0.0,0.0,0.0,-2.0855,-2.1597,-2.1944,0.0,-2.1363,0.0,-2.0585,-1.9026,-1.7814,0.0,-1.8631,-1.8064,-1.4305,-1.5319,-1.4796,-1.2103,-1.2091,-1.2121,-1.2033,-1.182,-1.223,-1.3273,-1.3013,-1.3928,-1.5873,-1.6598,-1.7529,-1.8514,0.0,-2.1321,-2.1446,-2.2303,-2.2492,-2.2198,-2.1911,-2.1617,-2.1336,-2.1169,-2.1109,-2.1109,-2.1109,-2.1109,-2.1109,-2.1109,-2.1109,-2.1109,-2.1109,-2.1109,-2.1109,-2.1109,-2.1109,-2.1109,-2.1109,-2.1109,-2.1109,-2.1109,-2.1109,-2.1109,-2.1109,-2.1109,-2.1109,-2.1109,-2.1109,-2.1109,-2.1109,-2.1109,-2.1009,-2.0722,-2.0675,-2.0408,-1.9653,-1.9559,-1.9506,-1.9379,-1.9219,-1.8951,-1.8531,-1.776,-1.6708,-1.5441,-1.477,-1.4228,-1.3642,-1.4242,-1.4712,-1.4962,-1.5534,-1.5832,-1.5832,-1.5832,-1.5832,-1.5832,-1.5832,-1.5832,-2.2645,-2.3487,-2.4148,-2.4148,-2.3868,-2.3213,-2.177,-2.0862,-1.9679,-1.7388,0.0,-1.5631,-1.4496,-1.483,-1.5585,-1.65,0.0,-1.9005,-2.0468,-2.0962,-2.1356,-2.1864,-2.0581,-1.9446,-1.9224,-1.7507,-1.5843,-1.4191,-1.5292,-1.5454,-1.3846,-1.4416,-1.3865,-1.186,-1.2397,-1.2529,-1.223,-1.2381,-1.3241,-1.4682,-1.4794,-1.5698,-1.7674,-1.9356,-2.0196,-2.0617,-2.216,0.0,-2.2846,-2.2585,-2.2285,-2.1964,-2.171,-2.1403,-2.1109,-2.1109,-2.1136,-2.1162,-2.1122,-2.1136,-2.1162,-2.1122,-2.1109,-2.1109,-2.1109,-2.1136,-2.1162,-2.1122,-2.1136,-2.1156,-2.1122,-2.1109,-2.1109,-2.1109,-2.1109,-2.1109,-2.1109,-2.1109,-2.1109,-2.1109,-2.1109,-2.1109,-2.1109,-2.1109,-2.1022,-2.0768,-2.0702,-2.0481,-1.9927,-1.9826,-1.9686,-1.9399,-1.9366,-1.9145,-1.8597,-1.7353,-1.6318,-1.5499,-1.425,-1.3397,-1.2967,-1.3953,-1.4424,-1.4226,-1.5261,-1.5832,-1.5832,-1.5832,-1.5832,-1.5832,-1.5832,-1.5832,-2.2752,-2.3347,-2.3848,-2.3848,-2.3247,-2.2331,-2.1109,-1.9619,0.0,0.0,-1.5044,-1.4175,-1.3306,-1.3941,-1.5037,-1.6166,0.0,0.0,0.0,0.0,-2.1516,0.0,0.0,0.0,0.0,0.0,0.0,0.0,0.0,-1.2539,-1.2367,-1.3901,-1.3925,-1.2165,-1.3556,-1.3509,-1.1911,-1.4736,-1.5612,-1.4479,-1.5999,-1.7674,-1.9634,-1.9918,-2.09,-2.2441,-2.2722,0.0,-2.2859,-2.2806,-2.2472,-2.1984,-2.1931,-2.1583,-2.1109,-2.1109,-2.1263,-2.1443,-2.1196,-2.1269,-2.1436,-2.1189,-2.1109,-2.1109,-2.1109,-2.1276,-2.1423,-2.1182,-2.1289,-2.1423,-2.1169,-2.1109,-2.1109,-2.1109,-2.1109,-2.1109,-2.1109,-2.1109,-2.1109,-2.1109,-2.1109,-2.1109,-2.1109,-2.1109,-2.1089,-2.1042,-2.0828,-2.0548,-2.0201,-1.9947,-1.9686,-1.9399,-1.9366,-1.9225,-1.8878,-1.8394,-1.7429,-1.5867,-1.5319,-1.4858,-1.4561,-1.4555,-1.4914,-1.5901,-1.5856,-1.5832,-1.5832,-1.5832,-1.5832,-1.5832,-1.5832,-1.5832,-2.2826,-2.3307,-2.3694,-2.338,-2.2625,-2.1503,-1.9713,0.0,0.0,0.0,-1.3794,-1.3206,-1.2625,0.0,0.0,0.0,0.0,0.0,0.0,0.0,0.0,0.0,0.0,0.0,0.0,0.0,0.0,0.0,0.0,-1.1681,-1.1823,-1.2623,-1.3306,-1.3649,-1.4192,-1.4614,-1.4707,-1.6368,-1.7248,-1.7383,-1.8229,-1.9773,-2.1596,-2.1596,-2.2016,-2.2859,-2.2859,0.0,-2.2853,-2.2692,-2.2378,-2.1971,-2.1817,-2.1496,-2.1129,-2.1283,-2.143,-2.155,-2.1563,-2.1563,-2.153,-2.139,-2.1236,-2.1136,-2.1296,-2.1436,-2.1523,-2.1383,-2.1443,-2.1483,-2.1189,-2.1109,-2.1109,-2.1109,-2.1109,-2.1109,-2.1109,-2.1109,-2.1109,-2.1109,-2.1109,-2.1109,-2.1109,-2.1109,-2.1109,-2.1109,-2.0989,-2.0742,-2.0294,-2.0107,-1.986,-1.9412,-1.9366,-1.9245,-1.8951,-1.7959,-1.7215,-1.7053,-1.6,-1.5623,-1.6103,-1.5965,-1.6074,-1.65,-1.6206,-1.6059,-1.6059,-1.5905,-1.5832,-1.5832,-1.5832,-1.5832,-2.2732,-2.316,-2.346,-2.2979,-2.2058,-2.0688,-1.8457,-1.6934,0.0,0.0,-1.2866,-1.2579,-1.2345,0.0,-1.3587,0.0,0.0,0.0,0.0,0.0,0.0,0.0,0.0,0.0,0.0,0.0,0.0,0.0,0.0,0.0,-1.1664,-1.2093,-1.3122,-1.4985,-1.5399,-1.6197,-1.7358,-1.8038,-1.8932,-2.0057,-2.0479,-2.1459,-2.2859,-2.2859,-2.2859,-2.2859,-2.2792,0.0,0.0,-2.2445,-2.2158,-2.1871,-2.1643,-2.141,-2.1229,-2.147,-2.163,-2.1764,-2.1931,-2.1877,-2.173,-2.1663,-2.1403,-2.1162,-2.1463,-2.1597,-2.165,-2.165,-2.169,-2.1657,-2.1296,-2.1203,-2.1189,-2.1122,-2.1109,-2.1109,-2.1109,-2.1109,-2.1109,-2.1109,-2.1109,-2.1109,-2.1109,-2.1109,-2.1109,-2.1109,-2.1056,-2.0828,-2.0301,-2.018,-1.994,-1.9419,-1.9366,-1.9272,-1.9038,-1.7698,-1.7185,-1.8048,-1.675,-1.6362,-1.7255,-1.7181,-1.7041,-1.6807,-1.6453,-1.6273,-1.6273,-1.5972,-1.5832,-1.5832,-1.5832,-1.5832,-2.2311,-2.2699,-2.2933,-2.2879,-2.1597,-1.9873,-1.8043,0.0,0.0,-1.3185,-1.2552,-1.2338,-1.2305,-1.2371,0.0,0.0,0.0,0.0,0.0,0.0,0.0,0.0,0.0,0.0,0.0,0.0,0.0,0.0,0.0,0.0,-1.1803,-1.3398,-1.4575,-1.4766,-1.7809,-1.8804,-1.7283,-2.0623,-2.1596,-2.0057,-2.1878,-2.2722,-2.2859,-2.2859,-2.2859,-2.2846,-2.2579,0.0,0.0,-2.2144,-2.1857,-2.159,-2.1563,-2.1537,-2.1516,-2.1543,-2.1884,-2.2305,-2.2071,-2.2138,-2.2298,-2.2031,-2.1563,-2.1162,-2.1463,-2.1737,-2.1944,-2.1944,-2.2138,-2.2211,-2.1657,-2.151,-2.1443,-2.1169,-2.1109,-2.1109,-2.1109,-2.1109,-2.1109,-2.1109,-2.1109,-2.1109,-2.1109,-2.1109,-2.1109,-2.1109,-2.0882,-2.0601,-2.0274,-2.0,-1.972,-1.9399,-1.9366,-1.9359,-1.9332,-1.8937,-1.8639,-1.8464,-1.8054,-1.7648,-1.7555,-1.7288,-1.7141,-1.7108,-1.656,-1.6273,-1.6273,-1.5972,-1.5832,-1.5832,-1.5832,-1.5832,-2.1116,-2.1971,-2.2512,-2.2164,-2.1015,-1.9506,-1.7729,0.0,-1.4322,-1.3091,-1.2512,-1.2305,-1.2305,-1.2305,-1.2227,0.0,0.0,0.0,0.0,0.0,0.0,0.0,0.0,0.0,0.0,0.0,0.0,0.0,0.0,0.0,-1.3403,-1.4116,-1.5596,-1.8011,-1.9346,-2.0334,-2.0617,-2.2153,-2.2578,-2.1741,-2.2578,-2.2859,-2.2859,-2.2859,-2.2859,-2.2846,-2.2545,0.0,0.0,-2.2365,-2.2178,-2.2071,-2.2071,-2.1964,-2.181,-2.181,-2.1964,-2.2138,-2.2024,-2.1944,-2.1904,-2.1964,-2.171,-2.1463,-2.1931,-2.2031,-2.2024,-2.2198,-2.2331,-2.2325,-2.1917,-2.1683,-2.1476,-2.1182,-2.1109,-2.1109,-2.1109,-2.1109,-2.1109,-2.1109,-2.1109,-2.1109,-2.1109,-2.1109,-2.1109,-2.1109,-2.1009,-2.0828,-2.0541,-2.0241,-1.9947,-1.9659,-1.9472,-1.9366,-1.9366,-1.9092,-1.8871,-1.8758,-1.8303,-1.807,-1.813,-1.7669,-1.7502,-1.7682,-1.7101,-1.6714,-1.6533,-1.6239,-1.6005,-1.5832,-1.5832,-1.5832,-1.9606,-2.0815,-2.1697,-2.137,-2.0207,-1.8751,0.0,0.0,-1.3707,-1.2775,-1.2251,-1.2071,-1.2158,-1.2178,-1.1898,0.0,0.0,0.0,0.0,0.0,0.0,0.0,0.0,0.0,0.0,0.0,0.0,0.0,0.0,0.0,-1.5976,-1.6122,-1.7314,-2.0186,-2.072,-2.1596,-2.2859,-2.2859,-2.2859,-2.2859,-2.2859,-2.2859,-2.2859,-2.2859,-2.2859,-2.2846,-2.2545,0.0,0.0,-2.2318,-2.2164,-2.2151,-2.2064,-2.2011,-2.1977,-2.1891,-2.1964,-2.2104,-2.2017,-2.185,-2.1717,-2.1924,-2.179,-2.165,-2.2138,-2.2211,-2.2171,-2.2465,-2.2425,-2.2245,-2.2038,-2.1704,-2.137,-2.1156,-2.1109,-2.1109,-2.1109,-2.1109,-2.1109,-2.1109,-2.1109,-2.1109,-2.1109,-2.1109,-2.1109,-2.1109,-2.1109,-2.1002,-2.0715,-2.0421,-2.012,-1.9833,-1.9539,-1.9366,-1.9366,-1.9172,-1.9018,-1.8931,-1.8537,-1.8323,-1.8357,-1.8029,-1.7869,-1.7909,-1.7495,-1.7088,-1.6707,-1.65,-1.6206,-1.5832,-1.5919,-1.5912,-1.7829,-1.9145,-2.0327,-2.0615,-1.9132,-1.7368,0.0,0.0,-1.2674,-1.1997,-1.1637,-1.1523,-1.1824,-1.187,-1.167,-1.0896,0.0,0.0,0.0,0.0,0.0,0.0,0.0,0.0,0.0,0.0,0.0,0.0,0.0,0.0,-1.9779,-2.0057,-2.0057,-2.0063,-2.1878,-2.2866,-2.2859,-2.2859,-2.2859,-2.2859,-2.2859,-2.2859,-2.2859,-2.2859,-2.2859,-2.2846,0.0,0.0,0.0,-2.1804,-2.1563,-2.1537,-2.1236,-2.1476,-2.1951,-2.1663,-2.1924,-2.2372,-2.2084,-2.1984,-2.1984,-2.1984,-2.179,-2.161,-2.1904,-2.2191,-2.2478,-2.2772,-2.2438,-2.1991,-2.1984,-2.155,-2.1109,-2.1109,-2.1109,-2.1109,-2.1109,-2.1109,-2.1109,-2.1109,-2.1109,-2.1109,-2.1109,-2.1109,-2.1109,-2.1109,-2.1109,-2.1002,-2.0715,-2.0421,-2.012,-1.9833,-1.9539,-1.9366,-1.9366,-1.9366,-1.9239,-1.8945,-1.8918,-1.8651,-1.8076,-1.833,-1.8196,-1.7602,-1.7582,-1.7288,-1.6707,-1.67,-1.64,-1.5838,-1.6132,-1.6112,-1.5645,-1.686,-1.7749,-1.7442,-1.6867,-1.6046,-1.477,0.0,-1.26,-1.173,-1.165,-1.1697,-1.1583,-1.1897,-1.1892,-1.0926,-1.0666,0.0,0.0,0.0,0.0,0.0,0.0,0.0,0.0,0.0,0.0,0.0,0.0,0.0,-2.0045,-2.114,-2.1816,-2.2016,-2.2578,-2.2766,-2.2565,-2.2559,-2.2458,-2.2265,-2.2265,-2.2365,-2.2559,-2.2559,-2.2672,0.0,0.0,0.0,0.0,-2.1877,-2.179,-2.2118,-2.1824,-2.1824,-2.1951,-2.1663,-2.167,-2.1784,-2.149,-2.1383,-2.1423,-2.1623,-2.163,-2.161,-2.1897,-2.2051,-2.2184,-2.2478,-2.2425,-2.2191,-2.1797,-2.155,-2.1363,-2.1156,-2.1109,-2.1109,-2.1109,-2.1109,-2.1109,-2.1109,-2.1109,-2.1109,-2.1109,-2.1109,-2.1109,-2.1109,-2.1109,-2.1076,-2.0982,-2.0541,-2.0194,-2.0107,-1.9659,-1.9366,-1.9366,-1.9366,-1.9325,-1.9232,-1.9038,-1.8931,-1.8951,-1.8457,-1.819,-1.8203,-1.7796,-1.7395,-1.7007,-1.6807,-1.6506,-1.6139,-1.6433,-1.6413,0.0,-1.4983,-1.5818,-1.5565,-1.517,0.0,0.0,0.0,-1.1931,-1.1376,-1.1044,-1.0866,-1.0795,-1.0779,-1.0707,-1.0245,-0.9584,0.0,0.0,0.0,0.0,0.0,0.0,0.0,0.0,0.0,0.0,0.0,0.0,0.0,-2.0724,-2.1667,-2.2338,-2.2525,-2.2532,-2.2438,-2.2258,-2.2258,-2.2164,-2.1984,-2.1984,-2.2138,-2.2412,-2.2305,-2.2478,0.0,0.0,0.0,0.0,-2.2151,-2.2031,-2.2225,-2.1937,-2.1824,-2.1784,-2.149,-2.1456,-2.151,-2.1216,-2.1109,-2.1136,-2.1323,-2.139,-2.1443,-2.173,-2.1977,-2.2191,-2.2365,-2.2338,-2.2171,-2.181,-2.155,-2.1336,-2.1156,-2.1109,-2.1109,-2.1109,-2.1109,-2.1109,-2.1109,-2.1109,-2.1109,-2.1109,-2.1109,-2.1109,-2.1109,-2.1015,-2.0989,-2.1096,-2.0595,-2.0234,-2.0234,-1.9813,-1.9486,-1.9379,-1.9366,-1.9366,-1.9366,-1.9192,-1.9125,-1.9199,-1.8671,-1.8364,-1.8323,-1.7949,-1.7555,-1.7148,-1.6847,-1.6673,-1.6607,-1.6673,-1.6607,0.0,0.0,0.0,0.0,0.0,0.0,0.0,0.0,0.0,-1.0969,-1.0173,-0.9503,-0.9675,-0.9052,-0.8669,-0.9057,-0.8374,0.0,0.0,0.0,0.0,0.0,0.0,0.0,0.0,0.0,0.0,0.0,0.0,0.0,-2.1852,-2.1964,-2.1951,-2.1951,-2.1937,-2.1937,-2.1951,-2.1951,-2.1944,-2.1924,-2.1924,-2.2084,-2.2378,-2.2084,-2.2271,0.0,0.0,0.0,0.0,-2.2498,-2.2218,-2.1931,-2.1657,-2.1543,-2.149,-2.1209,-2.1283,-2.1483,-2.1203,-2.1109,-2.1109,-2.1109,-2.1109,-2.1162,-2.1436,-2.1911,-2.2358,-2.2358,-2.2164,-2.1951,-2.1924,-2.1516,-2.1109,-2.1109,-2.1109,-2.1109,-2.1109,-2.1109,-2.1109,-2.1109,-2.1109,-2.1109,-2.1109,-2.1109,-2.1109,-2.1109,-2.0882,-2.0808,-2.1076,-2.0615,-2.0267,-2.0267,-1.9987,-1.9693,-1.9419,-1.9379,-1.9366,-1.9366,-1.9366,-1.9232,-1.8931,-1.8905,-1.8624,-1.8056,-1.8023,-1.7729,-1.7148,-1.6894,-1.6901,-1.7141,-1.6887,-1.6754,-1.0621,0.0,-1.1784,-1.1706,-1.1724,-1.173,0.0,0.0,0.0,-1.0708,0.0,0.0,-0.9699,-0.9599,-0.9611,-0.9293,-0.8666,-0.8392,0.0,0.0,0.0,0.0,0.0,0.0,0.0,0.0,0.0,0.0,0.0,-2.1346,-2.1971,-2.1777,-2.1657,-2.1657,-2.143,-2.1423,-2.1657,-2.1657,-2.1543,-2.1316,-2.1316,-2.159,-2.2078,-2.179,-2.1971,0.0,0.0,0.0,-2.2184,-2.2118,-2.1917,-2.165,-2.1577,-2.141,-2.1203,-2.1136,-2.1156,-2.1203,-2.1136,-2.1109,-2.1109,-2.1109,-2.1109,-2.1122,-2.1189,-2.147,-2.1757,-2.1757,-2.171,-2.1603,-2.1376,-2.1209,-2.1109,-2.1109,-2.1109,-2.1109,-2.1109,-2.1109,-2.1109,-2.1109,-2.1109,-2.1109,-2.1109,-2.1109,-2.1109,-2.1109,-2.1049,-2.1036,-2.1102,-2.0795,-2.0575,-2.0575,-2.0107,-1.9773,-1.97,-1.9492,-1.9366,-1.9366,-1.9366,-1.9232,-1.8931,-1.8711,-1.841,-1.8029,-1.7802,-1.7515,-1.7148,-1.7301,-1.7301,-1.7154,-1.7308,-1.7261,-1.008,-1.0448,-1.0755,-1.0665,-1.0795,-1.0949,0.0,0.0,0.0,0.0,0.0,0.0,0.0,0.0,0.0,0.0,-0.8069,0.0,0.0,0.0,0.0,0.0,0.0,0.0,0.0,0.0,0.0,0.0,0.0,-2.1416,-2.1577,-2.1436,-2.1349,-2.1349,-2.1196,-2.1189,-2.1349,-2.1349,-2.1269,-2.1109,-2.1109,-2.1349,-2.1777,-2.1483,-2.167,0.0,0.0,0.0,-2.1984,-2.1984,-2.1817,-2.155,-2.155,-2.137,-2.1109,-2.1109,-2.1109,-2.1109,-2.1109,-2.1109,-2.1109,-2.1109,-2.1109,-2.1109,-2.1109,-2.1223,-2.1376,-2.1516,-2.155,-2.1516,-2.1356,-2.1216,-2.1109,-2.1109,-2.1109,-2.1109,-2.1109,-2.1109,-2.1109,-2.1109,-2.1109,-2.1109,-2.1109,-2.1109,-2.1109,-2.1109,-2.0995,-2.0955,-2.1089,-2.0855,-2.0675,-2.0675,-2.0394,-2.0094,-1.982,-1.9659,-1.9506,-1.9372,-1.9366,-1.9232,-1.8931,-1.8771,-1.8477,-1.8023,-1.7869,-1.7649,-1.7348,-1.7508,-1.7502,-1.7355,-1.7508,-1.7502,-0.9913,-1.0267,-1.0611,-1.0571,-1.0591,-1.0611,0.0,0.0,0.0,0.0,0.0,0.0,0.0,0.0,0.0,0.0,0.0,0.0,0.0,0.0,0.0,0.0,0.0,0.0,0.0,0.0,0.0,0.0,0.0,-2.1109,-2.1109,-2.1109,-2.1109,-2.1109,-2.1109,-2.1109,-2.1109,-2.1109,-2.1109,-2.1109,-2.1109,-2.1263,-2.1543,-2.1243,-2.1403,-2.1904,0.0,0.0,-2.1857,-2.1951,-2.1784,-2.149,-2.1537,-2.137,-2.1109,-2.1109,-2.1109,-2.1109,-2.1109,-2.1109,-2.1109,-2.1109,-2.1109,-2.1109,-2.1109,-2.1109,-2.1162,-2.141,-2.1483,-2.1483,-2.1483,-2.1296,-2.1109,-2.1109,-2.1109,-2.1109,-2.1109,-2.1109,-2.1109,-2.1109,-2.1109,-2.1109,-2.1109,-2.1109,-2.1109,-2.1109,-2.0902,-2.0828,-2.1076,-2.0895,-2.0742,-2.0742,-2.0702,-2.0454,-1.9913,-1.9826,-1.9679,-1.9386,-1.9366,-1.9232,-1.8931,-1.8878,-1.8591,-1.8029,-1.8036,-1.7896,-1.7582,-1.7582,-1.7582,-1.7582,-1.7582,-1.7582,-0.9303,-0.9953,-1.0501,-1.0247,-1.0374,-1.0557,0.0,0.0,0.0,0.0,0.0,0.0,0.0,0.0,0.0,0.0,0.0,0.0,0.0,0.0,0.0,0.0,0.0,0.0,0.0,0.0,0.0,0.0,0.0,-2.1109,-2.1109,-2.1109,-2.1109,-2.1109,-2.1109,-2.1109,-2.1109,-2.1109,-2.1109,-2.1109,-2.1109,-2.1263,-2.1543,-2.1243,-2.1296,-2.1617,0.0,-2.1436,-2.1283,-2.1784,-2.1663,-2.1203,-2.1456,-2.137,-2.1109,-2.1109,-2.1109,-2.1109,-2.1109,-2.1109,-2.1109,-2.1109,-2.1109,-2.1109,-2.1109,-2.1109,-2.1122,-2.1162,-2.1176,-2.1176,-2.1176,-2.1142,-2.1109,-2.1109,-2.1109,-2.1109,-2.1109,-2.1109,-2.1109,-2.1109,-2.1109,-2.1109,-2.1109,-2.1109,-2.1109,-2.1109,-2.1069,-2.1056,-2.1102,-2.1069,-2.1042,-2.1042,-2.0822,-2.0535,-2.0194,-1.994,-1.9679,-1.9386,-1.9366,-1.9232,-1.8931,-1.8691,-1.839,-1.805,-1.8043,-1.7896,-1.7582,-1.7582,-1.7582,-1.7582,-1.7582,-1.7582,-0.9183,-0.9653,-1.0094,-1.0107,-1.0575,-1.0949,-1.0655,0.0,0.0,0.0,0.0,0.0,0.0,0.0,0.0,0.0,0.0,0.0,0.0,0.0,0.0,0.0,0.0,0.0,0.0,0.0,0.0,0.0,0.0,0.0,-2.1109,-2.1109,-2.1109,-2.1109,-2.1109,-2.1109,-2.1109,-2.1109,-2.1109,-2.1109,-2.1109,-2.1182,-2.1309,-2.1169,-2.1182,-2.1309,0.0,-2.1236,-2.1129,-2.1403,-2.1356,-2.1122,-2.1263,-2.1229,-2.1109,-2.1109,-2.1109,-2.1109,-2.1109,-2.1109,-2.1109,-2.1109,-2.1109,-2.1109,-2.1109,-2.1109,-2.1109,-2.1109,-2.1109,-2.1109,-2.1109,-2.1109,-2.1109,-2.1109,-2.1109,-2.1109,-2.1109,-2.1109,-2.1109,-2.1109,-2.1109,-2.1109,-2.1109,-2.1109,-2.1109,-2.1109,-2.1109,-2.1109,-2.1109,-2.1109,-2.1109,-2.1109,-2.0989,-2.0728,-2.0274,-2.0107,-1.9846,-1.9399,-1.9219,-1.9138,-1.9165,-1.8885,-1.8584,-1.829,-1.829,-1.8136,-1.7836,-1.7836,-1.7836,-1.7836,-1.7836,-1.7742,-0.9084,-0.9406,-0.9719,-0.9873,0.0,-1.1129,-1.1182,0.0,0.0,0.0,0.0,0.0,0.0,0.0,0.0,0.0,0.0,0.0,0.0,0.0,0.0,0.0,0.0,0.0,0.0,0.0,0.0,0.0,0.0,0.0,-2.1109,-2.1109,-2.1109,-2.1109,-2.1109,-2.1109,-2.1109,-2.1109,-2.1109,-2.1109,-2.1109,-2.1109,-2.1109,-2.1109,-2.1109,-2.1109,-2.1109,-2.1109,-2.1109,-2.1109,-2.1109,-2.1109,-2.1109,-2.1109,-2.1109,-2.1109,-2.1109,-2.1109,-2.1109,-2.1109,-2.1109,-2.1109,-2.1109,-2.1109,-2.1109,-2.1109,-2.1109,-2.1109,-2.1109,-2.1109,-2.1109,-2.1109,-2.1109,-2.1109,-2.1109,-2.1109,-2.1109,-2.1109,-2.1109,-2.1109,-2.1109,-2.1109,-2.1109,-2.1109,-2.1109,-2.1109,-2.1109,-2.1109,-2.1109,-2.1109,-2.1109,-2.1109,-2.1109,-2.0875,-2.0281,-2.0107,-1.984,-1.9399,-1.9152,-1.9132,-1.9359,-1.9152,-1.8891,-1.8597,-1.8591,-1.845,-1.815,-1.815,-1.8116,-1.805,-1.805,-1.7883,-0.8838,-0.9252,-0.9619,-0.9365,0.0,0.0,-1.1563,-1.2031,0.0,0.0,0.0,0.0,0.0,0.0,0.0,0.0,0.0,0.0,0.0,0.0,0.0,0.0,0.0,0.0,0.0,0.0,0.0,0.0,0.0,0.0,-2.1109,-2.1109,-2.1109,-2.1109,-2.1109,-2.1109,-2.1109,-2.1109,-2.1109,-2.1109,-2.1109,-2.1109,-2.1109,-2.1109,-2.1109,-2.1109,-2.1109,-2.1109,-2.1109,-2.1109,-2.1109,-2.1109,-2.1109,-2.1109,-2.1109,-2.1109,-2.1109,-2.1109,-2.1109,-2.1109,-2.1109,-2.1109,-2.1109,-2.1109,-2.1109,-2.1109,-2.1109,-2.1109,-2.1109,-2.1109,-2.1109,-2.1109,-2.1109,-2.1109,-2.1109,-2.1109,-2.1109,-2.1109,-2.1109,-2.1109,-2.1109,-2.1109,-2.1109,-2.1109,-2.1109,-2.1109,-2.1109,-2.1109,-2.1109,-2.1109,-2.1109,-2.1109,-2.1109,-2.0875,-2.0281,-1.974,-1.9412,-1.9372,-1.9352,-1.9345,-1.9366,-1.9345,-1.9199,-1.8898,-1.8891,-1.8751,-1.8457,-1.8457,-1.8317,-1.805,-1.805,-1.7883,-0.8804,-0.9232,-0.9659,-0.9546,0.0,0.0,0.0,0.0,0.0,0.0,0.0,0.0,0.0,0.0,0.0,0.0,0.0,0.0,0.0,0.0,0.0,0.0,0.0,0.0,0.0,0.0,0.0,0.0,0.0,0.0,-2.1109,-2.1109,-2.1109,-2.1109,-2.1109,-2.1022,-2.0842,-2.0842,-2.0842,-2.0842,-2.1022,-2.1109,-2.1109,-2.1109,-2.1109,-2.1109,-2.1109,-2.1109,-2.1109,-2.1109,-2.1109,-2.1109,-2.1109,-2.1109,-2.1109,-2.1109,-2.1109,-2.1109,-2.1109,-2.1109,-2.1109,-2.1109,-2.1109,-2.1109,-2.1109,-2.1109,-2.1109,-2.1109,-2.1109,-2.1109,-2.1109,-2.1109,-2.1109,-2.1109,-2.1109,-2.1109,-2.1109,-2.1109,-2.1109,-2.1109,-2.1109,-2.1109,-2.1109,-2.1109,-2.1109,-2.1109,-2.1109,-2.1109,-2.1109,-2.1109,-2.1109,-2.1109,-2.0782,-2.0401,-2.0,-1.9599,-1.9366,-1.9366,-1.9366,-1.9366,-1.9366,-1.9366,-1.9225,-1.8931,-1.8744,-1.8691,-1.8758,-1.839,-1.825,-1.8317,-1.813,-1.7883,-0.8804,-0.9098,-0.9452,0.0,0.0,0.0,0.0,0.0,0.0,0.0,0.0,0.0,0.0,0.0,0.0,0.0,0.0,0.0,0.0,0.0,0.0,0.0,0.0,0.0,0.0,0.0,0.0,0.0,0.0,0.0,0.0,-2.0835,-2.0835,-2.0835,-2.0835,-2.0735,-2.0541,-2.0535,-2.0535,-2.0541,-2.0735,-2.0929,-2.1109,-2.1109,-2.1109,-2.1109,-2.1009,-2.1029,-2.1102,-2.1009,-2.1029,-2.1096,-2.1009,-2.1029,-2.1109,-2.1109,-2.1109,-2.1109,-2.1109,-2.1109,-2.1109,-2.1109,-2.1109,-2.1109,-2.1109,-2.1109,-2.1109,-2.1109,-2.1109,-2.1109,-2.1109,-2.1109,-2.1109,-2.1109,-2.1109,-2.1109,-2.1109,-2.1109,-2.1109,-2.1109,-2.1109,-2.1109,-2.1109,-2.1109,-2.1109,-2.1109,-2.1109,-2.1109,-2.1109,-2.1109,-2.1076,-2.0982,-2.0528,-2.0114,-1.9826,-1.9533,-1.9366,-1.9366,-1.9366,-1.9366,-1.9366,-1.9366,-1.9272,-1.9065,-1.8871,-1.8865,-1.9065,-1.8564,-1.8384,-1.8484,-1.8183,-1.7929,-0.8804,-0.8811,-0.8958,0.0,0.0,0.0,0.0,0.0,0.0,0.0,0.0,0.0,0.0,0.0,0.0,0.0,0.0,0.0,0.0,0.0,0.0,0.0,0.0,0.0,0.0,0.0,0.0,0.0,0.0,0.0,0.0,-2.0234,-2.0234,-2.0234,-2.0234,-2.0234,-2.0227,-2.0227,-2.0227,-2.0227,-2.0227,-2.0535,-2.1102,-2.1102,-2.1102,-2.1082,-2.0795,-2.0835,-2.1082,-2.0788,-2.0842,-2.1076,-2.0788,-2.0855,-2.1109,-2.1109,-2.1109,-2.1109,-2.1109,-2.1102,-2.1102,-2.1109,-2.1109,-2.1109,-2.1109,-2.1109,-2.1109,-2.1109,-2.1109,-2.1109,-2.1109,-2.1109,-2.1109,-2.1109,-2.1109,-2.1109,-2.1109,-2.1109,-2.1109,-2.1109,-2.1109,-2.1109,-2.1109,-2.1109,-2.1109,-2.1109,-2.1109,-2.1109,-2.1109,-2.1109,-2.0995,-2.0708,-2.0414,-2.012,-1.9826,-1.9539,-1.9372,-1.9372,-1.9366,-1.9366,-1.9366,-1.9366,-1.9366,-1.9366,-1.9366,-1.9366,-1.9366,-1.9058,-1.8764,-1.8477,-1.8183,-1.8043,-0.8804,-0.9112,0.0,0.0,0.0,0.0,0.0,0.0,0.0,0.0,0.0,0.0,0.0,0.0,0.0,0.0,0.0,0.0,0.0,0.0,0.0,0.0,0.0,0.0,0.0,0.0,0.0,0.0,0.0,0.0,0.0,-2.0234,-2.0234,-2.0234,-2.0234,-2.0134,-1.9927,-1.9927,-1.9927,-1.9927,-1.9927,-2.0127,-2.0494,-2.0494,-2.0494,-2.0488,-2.0401,-2.0414,-2.0488,-2.0401,-2.0535,-2.0795,-2.0708,-2.0855,-2.1109,-2.1109,-2.0982,-2.0808,-2.0808,-2.0668,-2.0528,-2.0735,-2.0808,-2.0842,-2.1049,-2.1109,-2.1109,-2.1109,-2.1109,-2.1109,-2.1109,-2.1109,-2.1109,-2.1109,-2.1109,-2.1109,-2.1109,-2.1109,-2.1109,-2.1109,-2.1109,-2.1109,-2.1109,-2.1109,-2.1109,-2.1109,-2.1109,-2.1109,-2.1109,-2.1109,-2.0995,-2.0708,-2.0601,-2.0428,-2.0127,-1.984,-1.9673,-1.9673,-1.9479,-1.9366,-1.9366,-1.9366,-1.9366,-1.9366,-1.9158,-1.9058,-1.9052,-1.8551,-1.8263,-1.817,-1.7862,-1.7836,-0.8945,0.0,0.0,0.0,0.0,0.0,0.0,0.0,0.0,0.0,0.0,0.0,0.0,0.0,0.0,0.0,0.0,0.0,0.0,0.0,0.0,0.0,0.0,0.0,0.0,0.0,0.0,0.0,0.0,0.0,0.0,-1.9887,-1.9887,-1.9887,-1.9887,-1.9806,-1.9633,-1.9626,-1.9626,-1.9626,-1.9626,-1.972,-1.99,-2.0127,-2.0234,-2.0234,-2.0234,-2.0167,-2.006,-2.006,-2.0234,-2.0488,-2.0374,-2.0508,-2.0762,-2.0762,-2.0648,-2.0501,-2.0501,-2.0381,-2.0261,-2.0441,-2.0501,-2.0555,-2.0848,-2.0935,-2.0962,-2.1076,-2.1109,-2.1109,-2.1109,-2.1109,-2.1109,-2.1109,-2.1109,-2.1109,-2.1109,-2.1109,-2.1109,-2.1109,-2.1109,-2.1109,-2.1109,-2.1109,-2.1109,-2.1109,-2.1109,-2.1109,-2.1109,-2.1109,-2.0955,-2.0541,-2.0501,-2.0334,-1.992,-1.9726,-1.9626,-1.9626,-1.9466,-1.9366,-1.9366,-1.9366,-1.9366,-1.9366,-1.9192,-1.9098,-1.9098,-1.8624,-1.8337,-1.8217,-1.7909,-1.7869,0.0,0.0,0.0,0.0,0.0,0.0,0.0,0.0,0.0,0.0,0.0,0.0,0.0,0.0,0.0,0.0,0.0,0.0,0.0,0.0,0.0,0.0,0.0,0.0,0.0,0.0,0.0,0.0,0.0,0.0,0.0,-1.9285,-1.9285,-1.9285,-1.9285,-1.9285,-1.9285,-1.9285,-1.9285,-1.9285,-1.9285,-1.9285,-1.9312,-1.9887,-2.0154,-2.0154,-2.0154,-2.0007,-1.976,-1.976,-1.9927,-2.0167,-1.9907,-1.9973,-2.0234,-2.0234,-2.0214,-2.0194,-2.0194,-2.0174,-2.0154,-2.0187,-2.0194,-2.0254,-2.0575,-2.0661,-2.0702,-2.1022,-2.1069,-2.1042,-2.1096,-2.1069,-2.1042,-2.1096,-2.1109,-2.1109,-2.1109,-2.1109,-2.1109,-2.1109,-2.1109,-2.1109,-2.1109,-2.1109,-2.1109,-2.1109,-2.1109,-2.1096,-2.1076,-2.1089,-2.0895,-2.0334,-2.0274,-2.006,-1.9533,-1.9439,-1.9406,-1.9406,-1.9379,-1.9366,-1.9366,-1.9366,-1.9366,-1.9366,-1.9366,-1.9352,-1.9325,-1.9058,-1.8764,-1.8444,-1.817,-1.805,0.0,-0.984,0.0,0.0,0.0,0.0,0.0,0.0,0.0,0.0,0.0,0.0,0.0,0.0,0.0,0.0,0.0,0.0,0.0,0.0,0.0,0.0,0.0,0.0,0.0,0.0,0.0,0.0,0.0,0.0,-1.8677,-1.8677,-1.8677,-1.8677,-1.8677,-1.8677,-1.8677,-1.8677,-1.8677,0.0,-1.8677,-1.8677,-1.8698,-1.9285,-1.9553,-1.9553,-1.9553,-1.9519,-1.9459,-1.9459,-1.9633,-1.9887,-1.9826,-1.9973,-2.0234,-2.0234,-2.0087,-1.9893,-1.9893,-1.974,-1.9593,-1.982,-1.9893,-1.9993,-2.0514,-2.0514,-2.0441,-2.0962,-2.0775,-2.0528,-2.0989,-2.0768,-2.0535,-2.1002,-2.1109,-2.1109,-2.1109,-2.1109,-2.1109,-2.1109,-2.1109,-2.1109,-2.1109,-2.1109,-2.1109,-2.1109,-2.1109,-2.1029,-2.0802,-2.0969,-2.0975,-2.0621,-2.0581,-2.0528,-2.0408,-1.9973,-1.9706,-1.9706,-1.9492,-1.9366,-1.9366,-1.9366,-1.9366,-1.9366,-1.9366,-1.9252,-1.9018,-1.8951,-1.8651,-1.8143,-1.8076,-1.805,0.0,0.0,0.0,0.0,0.0,0.0,0.0,0.0,0.0,0.0,0.0,0.0,0.0,0.0,0.0,0.0,0.0,0.0,0.0,0.0,0.0,0.0,0.0,0.0,0.0,0.0,0.0,0.0,0.0,-1.9442,-1.9442,-1.8809,-1.849,-1.849,-1.849,-1.849,-1.849,-1.849,-1.849,-1.849,-1.849,-1.849,-1.8504,-1.8811,-1.9025,-1.9158,-1.9158,-1.9158,-1.9158,-1.9158,-1.9165,-1.9172,-1.9172,-1.9265,-1.9419,-1.9553,-1.9512,-1.9399,-1.9539,-1.9492,-1.9392,-1.9546,-1.9593,-1.9673,-2.012,-2.0147,-2.012,-2.0568,-2.0468,-2.0301,-2.0608,-2.0461,-2.0307,-2.0615,-2.0688,-2.0768,-2.1049,-2.1002,-2.0942,-2.1082,-2.1109,-2.1069,-2.0922,-2.0788,-2.0688,-2.0688,-2.0808,-2.0848,-2.0695,-2.0929,-2.0942,-2.0508,-2.0468,-2.0347,-2.0074,-1.9773,-1.9593,-1.9593,-1.9452,-1.9366,-1.9366,-1.9366,-1.9366,-1.9366,-1.9366,-1.9292,-1.9132,-1.9132,-1.8905,-1.8464,-1.8464,-1.839,0.0,0.0,0.0,0.0,0.0,0.0,0.0,0.0,0.0,0.0,0.0,0.0,0.0,0.0,0.0,0.0,0.0,0.0,0.0,0.0,0.0,0.0,0.0,0.0,0.0,0.0,0.0,0.0,0.0,-2.043,-2.0171,-1.9125,-1.8394,-1.8183,-1.8183,-1.8183,-1.8183,-1.8183,-1.821,-1.8257,-1.831,-1.8277,-1.8183,-1.8237,-1.8477,-1.8844,-1.8844,-1.8844,-1.8844,-1.8844,-1.8704,-1.849,-1.849,-1.849,-1.8517,-1.8764,-1.8844,-1.8885,-1.9132,-1.9252,-1.9292,-1.9292,-1.9325,-1.9419,-1.9713,-1.9766,-1.98,-2.0134,-2.016,-2.0107,-2.0207,-2.0154,-2.0107,-2.0207,-2.0154,-2.0247,-2.0835,-2.0808,-2.0748,-2.0989,-2.1036,-2.0942,-2.0648,-2.0394,-2.0234,-2.0234,-2.0441,-2.0601,-2.0601,-2.0855,-2.0848,-2.0361,-2.0307,-2.0094,-1.9559,-1.9472,-1.9419,-1.9372,-1.9366,-1.9366,-1.9366,-1.9366,-1.9366,-1.9366,-1.9366,-1.9366,-1.9366,-1.9366,-1.9219,-1.8925,-1.8925,-1.8738,0.0,0.0,0.0,0.0,0.0,0.0,0.0,0.0,0.0,0.0,0.0,0.0,0.0,0.0,0.0,0.0,0.0,0.0,0.0,0.0,0.0,0.0,0.0,0.0,0.0,0.0,0.0,0.0,-2.085,-2.0292,-1.8825,-1.8618,-1.8031,-1.6941,-1.6941,-1.6941,-1.6941,-1.6941,-1.7074,-1.7328,-1.7582,-1.7435,-1.6954,-1.7215,-1.7776,-1.8551,-1.8551,-1.8551,-1.8551,-1.8551,-1.8524,-1.849,-1.849,-1.849,-1.8497,-1.8537,-1.8551,-1.8557,-1.8591,-1.8771,-1.8985,-1.8985,-1.9158,-1.9419,-1.9713,-1.9626,-1.9539,-2.008,-1.9873,-1.9599,-2.01,-1.986,-1.9606,-2.0114,-1.9853,-1.9639,-2.0221,-2.0521,-2.0688,-2.0728,-2.0735,-2.0641,-2.0341,-2.0261,-2.0234,-2.0234,-2.0267,-2.0294,-2.0294,-2.0548,-2.0702,-2.0621,-2.0615,-2.0481,-2.0147,-1.9887,-1.9633,-1.9379,-1.9366,-1.9366,-1.9366,-1.9366,-1.9366,-1.9366,-1.9366,-1.9366,-1.9366,-1.9366,-1.9219,-1.8925,-1.8925,-1.8631,-1.2431,0.0,0.0,0.0,0.0,0.0,0.0,0.0,0.0,0.0,0.0,0.0,0.0,0.0,0.0,0.0,0.0,0.0,0.0,0.0,0.0,0.0,0.0,0.0,0.0,0.0,0.0,0.0,-2.2074,-2.142,-2.0682,-1.9326,-1.8262,-1.7775,-1.7093,-1.6707,-1.6707,-1.6707,-1.6774,-1.6901,-1.7034,-1.6954,-1.6707,-1.684,-1.7208,-1.7749,-1.7909,-1.7983,-1.7996,-1.817,-1.8043,-1.7756,-1.7916,-1.7883,-1.7782,-1.8116,-1.8243,-1.8263,-1.843,-1.8577,-1.8704,-1.8871,-1.9011,-1.9172,-1.9466,-1.9466,-1.9419,-1.9679,-1.9566,-1.9426,-1.9679,-1.9559,-1.9432,-1.9686,-1.9553,-1.9432,-1.9693,-1.998,-2.0234,-2.0394,-2.0294,-2.014,-2.0013,-1.9853,-1.9746,-1.9746,-1.9887,-2.0047,-2.0214,-2.0494,-2.0615,-2.0448,-2.0428,-2.0241,-1.9786,-1.9633,-1.9506,-1.9372,-1.9366,-1.9366,-1.9366,-1.9366,-1.9366,-1.9366,-1.9366,-1.9366,-1.9366,-1.9366,-1.9299,-1.9165,-1.8998,-1.8784,0.0,0.0,0.0,0.0,0.0,0.0,0.0,0.0,0.0,0.0,0.0,0.0,0.0,0.0,0.0,0.0,0.0,0.0,0.0,0.0,0.0,0.0,0.0,0.0,0.0,0.0,0.0,0.0,-2.3251,-2.2601,-2.211,-2.0297,-1.8966,-1.8312,-1.7449,-1.6776,-1.648,-1.656,-1.6751,-1.6973,-1.7124,-1.7117,-1.6973,-1.7048,-1.6966,-1.6834,-1.7201,-1.7361,-1.7375,-1.7609,-1.7442,-1.7054,-1.7275,-1.7275,-1.7201,-1.7655,-1.7862,-1.7963,-1.8183,-1.831,-1.8424,-1.8718,-1.8865,-1.8978,-1.9279,-1.9366,-1.9366,-1.9366,-1.9366,-1.9366,-1.9366,-1.9366,-1.9366,-1.9366,-1.9366,-1.9392,-1.9459,-1.9646,-1.9867,-2.008,-1.9947,-1.978,-1.97,-1.9512,-1.9366,-1.9366,-1.9553,-1.98,-2.0087,-2.0314,-2.0394,-2.0247,-2.0234,-2.0027,-1.9519,-1.9472,-1.9446,-1.9372,-1.9366,-1.9366,-1.9366,-1.9366,-1.9366,-1.9366,-1.9366,-1.9366,-1.9366,-1.9366,-1.9366,-1.9366,-1.9138,-1.8998,0.0,0.0,0.0,0.0,0.0,0.0,0.0,0.0,0.0,0.0,0.0,0.0,0.0,0.0,0.0,0.0,0.0,0.0,0.0,0.0,0.0,0.0,0.0,0.0,0.0,0.0,0.0,0.0,-2.3495,-2.2986,-2.1472,-2.1266,-2.0093,-1.783,-1.7643,-1.7088,-1.5872,-1.6152,-1.6725,-1.765,-1.8171,-1.8141,-1.7658,-1.7867,-1.728,-1.5925,-1.65,-1.6747,-1.6754,-1.6767,-1.6754,-1.6734,-1.6747,-1.6914,-1.7154,-1.7188,-1.7368,-1.7609,-1.7622,-1.7822,-1.8123,-1.8417,-1.8698,-1.8978,-1.9279,-1.9366,-1.9366,-1.9366,-1.9366,-1.9366,-1.9366,-1.9366,-1.9366,-1.9366,-1.9366,-1.9446,-1.972,-1.9786,-1.9806,-1.982,-1.9813,-1.9713,-1.9432,-1.9379,-1.9366,-1.9366,-1.9379,-1.9492,-1.9786,-1.984,-1.9947,-2.0201,-2.0234,-2.0107,-1.9806,-1.978,-1.9659,-1.9386,-1.9366,-1.9366,-1.9366,-1.9366,-1.9366,-1.9366,-1.9366,-1.9366,-1.9366,-1.9366,-1.9366,-1.9366,-1.9352,-1.9192,0.0,0.0,0.0,0.0,0.0,0.0,0.0,0.0,0.0,0.0,0.0,0.0,0.0,0.0,0.0,0.0,0.0,0.0,0.0,0.0,0.0,0.0,0.0,0.0,0.0,0.0,0.0,0.0,0.0,-2.3115,-2.2501,-2.1747,-2.0935,-2.0034,-1.9222,-1.8672,-1.8211,-1.8334,-1.852,-1.8864,-1.9018,-1.8645,-1.7692,-1.7811,-1.7145,-1.5838,-1.6052,-1.6253,-1.644,-1.6627,-1.66,-1.6446,-1.6633,-1.666,-1.6607,-1.6794,-1.7054,-1.7301,-1.7301,-1.7502,-1.7802,-1.8103,-1.8404,-1.8698,-1.8998,-1.9219,-1.9366,-1.9366,-1.9366,-1.9325,-1.9132,-1.9085,-1.9085,-1.9085,-1.9225,-1.9399,-1.9499,-1.9519,-1.9519,-1.9519,-1.9519,-1.9492,-1.9386,-1.9366,-1.9366,-1.9366,-1.9366,-1.9472,-1.9766,-1.98,-1.984,-1.9947,-1.9953,-1.9833,-1.9546,-1.9519,-1.9479,-1.9372,-1.9366,-1.9366,-1.9366,-1.9366,-1.9366,-1.9366,-1.9366,-1.9366,-1.9366,-1.9172,-1.9185,-1.9359,-1.8978,-1.8844,-1.541,0.0,0.0,0.0,0.0,0.0,0.0,0.0,0.0,0.0,0.0,0.0,0.0,0.0,0.0,0.0,0.0,0.0,0.0,0.0,0.0,0.0,0.0,0.0,0.0,0.0,0.0,0.0,0.0,0.0,-2.3135,-2.2174,-2.1313,-2.0377,-1.9241,-1.8616,-1.8505,-1.8978,-1.9487,-1.9937,-1.9612,-1.9039,-1.8319,-1.787,-1.7037,-1.5832,-1.5832,-1.5939,-1.6139,-1.6333,-1.6299,-1.6146,-1.6339,-1.6353,-1.6293,-1.6486,-1.6747,-1.7001,-1.7001,-1.7188,-1.7488,-1.7796,-1.8096,-1.8397,-1.8691,-1.8985,-1.9199,-1.9098,-1.9145,-1.9172,-1.8978,-1.8998,-1.9072,-1.9072,-1.9225,-1.9366,-1.9366,-1.9366,-1.9366,-1.9366,-1.9366,-1.9366,-1.9366,-1.9366,-1.9366,-1.9366,-1.9452,-1.9546,-1.9639,-1.974,-1.9766,-1.9666,-1.9659,-1.9579,-1.9386,-1.9366,-1.9366,-1.9366,-1.9366,-1.9366,-1.9366,-1.9366,-1.9366,-1.9366,-1.9265,-1.9219,-1.9219,-1.9118,-1.9125,-1.9212,-1.8925,-1.8838,0.0,0.0,0.0,0.0,0.0,0.0,0.0,0.0,0.0,0.0,0.0,0.0,0.0,0.0,0.0,0.0,0.0,0.0,0.0,0.0,0.0,0.0,0.0,0.0,0.0,0.0,0.0,0.0,-2.2725,-2.2676,-2.3076,-2.2715,-2.1248,-1.8596,-1.7606,-1.6996,-1.677,-1.8137,-1.9465,-2.0706,-1.992,-1.9464,-1.9389,-1.8211,-1.703,-1.5832,-1.5832,-1.5832,-1.5832,-1.5832,-1.5832,-1.5832,-1.5832,-1.6005,-1.6259,-1.6259,-1.644,-1.6693,-1.6693,-1.6887,-1.7188,-1.7475,-1.7776,-1.809,-1.8384,-1.8684,-1.8851,-1.8571,-1.8691,-1.8911,-1.8905,-1.9112,-1.9325,-1.9325,-1.9339,-1.9352,-1.9352,-1.9359,-1.9366,-1.9366,-1.9366,-1.9366,-1.9366,-1.9366,-1.9366,-1.9366,-1.9606,-1.9686,-1.9406,-1.9613,-1.9679,-1.9399,-1.9366,-1.9366,-1.9366,-1.9366,-1.9366,-1.9366,-1.9366,-1.9366,-1.9366,-1.9366,-1.9366,-1.9366,-1.9085,-1.8925,-1.8911,-1.9199,-1.9199,-1.8931,-1.9219,-1.9192,-1.541,0.0,0.0,0.0,0.0,0.0,0.0,0.0,0.0,0.0,0.0,0.0,0.0,0.0,0.0,0.0,0.0,0.0,0.0,0.0,0.0,0.0,0.0,0.0,0.0,0.0,0.0,0.0,-2.2129,-2.2109,-2.2227,-2.2129,-2.1742,-2.0931,-2.0688,-2.0519,-2.0409,-2.0866,-2.0819,-2.0368,-2.0134,-1.9276,-1.7833,-1.7477,-1.6807,-1.5832,-1.5832,-1.5832,-1.5832,-1.5832,-1.5832,-1.5832,-1.5832,-1.5879,-1.5952,-1.5952,-1.6139,-1.6393,-1.6393,-1.6587,-1.6874,-1.7174,-1.7468,-1.7769,-1.8076,-1.8377,-1.8597,-1.851,-1.8551,-1.8564,-1.8343,-1.835,-1.8417,-1.8417,-1.8738,-1.9045,-1.9045,-1.9219,-1.9366,-1.9366,-1.9366,-1.9366,-1.9366,-1.9366,-1.9366,-1.9366,-1.9432,-1.9459,-1.9379,-1.9432,-1.9459,-1.9372,-1.9366,-1.9366,-1.9366,-1.9366,-1.9366,-1.9366,-1.9366,-1.9366,-1.9366,-1.9366,-1.9366,-1.9366,-1.9285,-1.9038,-1.8611,-1.8698,-1.8798,-1.8925,-1.9011,-1.8891,-1.5459,-1.541,0.0,0.0,0.0,0.0,-1.5049,-1.4853,-1.4805,0.0,0.0,0.0,0.0,0.0,0.0,0.0,0.0,0.0,0.0,0.0,0.0,0.0,0.0,0.0,0.0,-2.1338,-2.1416,-2.1602,-2.1611,-2.1611,-2.1611,-2.1263,-2.1021,-2.068,-2.0832,-2.0832,-2.0671,-2.1269,-2.1265,-2.0651,-1.9787,-1.8849,-1.7874,-1.6897,-1.6181,-1.5832,-1.5832,-1.5832,-1.5832,-1.5832,-1.5832,-1.5832,-1.5832,-1.5832,-1.5832,-1.5832,-1.5939,-1.6086,-1.6086,-1.6279,-1.6573,-1.6867,-1.7081,-1.7295,-1.7722,-1.7976,-1.811,-1.811,-1.8196,-1.8257,-1.809,-1.8136,-1.823,-1.823,-1.8497,-1.8744,-1.8744,-1.8878,-1.9078,-1.9319,-1.9366,-1.9366,-1.9366,-1.9366,-1.9366,-1.9366,-1.9472,-1.9506,-1.9379,-1.9472,-1.9499,-1.9379,-1.9366,-1.9366,-1.9366,-1.9366,-1.9366,-1.9366,-1.9366,-1.9366,-1.9366,-1.9366,-1.9366,-1.9366,-1.9125,-1.8771,-1.8303,-1.8677,-1.8878,-1.8918,-1.8804,-1.8651,-1.5527,-1.541,-1.541,0.0,-1.541,0.0,-1.5352,-1.5342,-1.5342,-1.5342,0.0,0.0,0.0,0.0,0.0,0.0,0.0,0.0,0.0,0.0,0.0,0.0,0.0,0.0,-2.0391,-2.043,-2.0586,-2.0986,-2.1016,-2.1045,-2.1084,-2.0372,-1.9625,-1.9085,-1.9245,-1.9254,-1.9067,-2.0327,-2.0876,-2.0675,-1.901,-1.8267,-1.8209,-1.6182,-1.5458,-1.5732,-1.5732,-1.5732,-1.5732,-1.5732,-1.5772,-1.5832,-1.5832,-1.5832,-1.5832,-1.5832,-1.5832,-1.5832,-1.5832,-1.6005,-1.6273,-1.6567,-1.666,-1.676,-1.7315,-1.7482,-1.7488,-1.7522,-1.7722,-1.7929,-1.7983,-1.819,-1.839,-1.839,-1.8417,-1.8444,-1.8444,-1.847,-1.8644,-1.9172,-1.9299,-1.9332,-1.9359,-1.9366,-1.9366,-1.9366,-1.9586,-1.9659,-1.9399,-1.9593,-1.9653,-1.9399,-1.9366,-1.9366,-1.9366,-1.9366,-1.9366,-1.9366,-1.9366,-1.9366,-1.9366,-1.9366,-1.9366,-1.9366,-1.8791,-1.8377,-1.8143,-1.8905,-1.9118,-1.8824,-1.8597,-1.847,0.0,0.0,0.0,0.0,-1.541,0.0,-1.498,-1.4902,-1.4902,0.0,-1.4971,0.0,0.0,0.0,0.0,0.0,0.0,0.0,0.0,0.0,0.0,0.0,0.0,0.0,-1.9531,-1.9541,-1.957,-1.9658,-1.9668,-1.9814,-2.0156,-1.9686,-1.9399,-1.9235,-1.9312,-1.9312,-1.9235,-1.9545,-1.8976,-1.7542,-1.7221,-1.6464,-1.5283,-1.4859,-1.4856,-1.5137,-1.5137,-1.5137,-1.5137,-1.5137,-1.5404,-1.5832,-1.5832,-1.5832,-1.5832,-1.5832,-1.5832,-1.5832,-1.5832,-1.5865,-1.5965,-1.6259,-1.6359,-1.642,-1.6774,-1.6881,-1.6927,-1.7168,-1.7275,-1.7375,-1.7609,-1.7716,-1.7762,-1.7762,-1.7949,-1.813,-1.813,-1.8323,-1.8524,-1.8637,-1.8851,-1.9085,-1.9325,-1.9366,-1.9366,-1.9366,-1.9412,-1.9432,-1.9372,-1.9419,-1.9432,-1.9372,-1.9366,-1.9366,-1.9366,-1.9366,-1.9366,-1.9366,-1.9366,-1.9366,-1.9366,-1.9366,-1.9366,-1.9366,-1.8791,-1.8577,-1.8751,-1.8691,-1.8504,-1.8223,-1.8404,-1.8364,0.0,0.0,0.0,-1.6016,0.0,0.0,0.0,-1.5254,-1.5156,-1.5381,-1.5244,-1.5166,-1.5381,0.0,0.0,0.0,0.0,0.0,0.0,0.0,0.0,0.0,0.0,0.0,-1.8018,-1.8213,-1.8516,-1.8936,-1.8965,-1.915,-1.958,-1.9404,-1.9287,-1.9287,-1.9287,-1.9287,-1.9287,-1.8839,-1.8174,-1.7286,-1.6385,-1.5708,-1.505,-1.4702,-1.4683,-1.4963,-1.4963,-1.4963,-1.4963,-1.4963,-1.5217,-1.5611,-1.5611,-1.5705,-1.5832,-1.5832,-1.5832,-1.5832,-1.5832,-1.5832,-1.5879,-1.6179,-1.6172,-1.6132,-1.6573,-1.6807,-1.6954,-1.7108,-1.7255,-1.7402,-1.7549,-1.7582,-1.7582,-1.7582,-1.7702,-1.7816,-1.7816,-1.7929,-1.8083,-1.8237,-1.839,-1.8631,-1.9072,-1.9025,-1.8978,-1.9125,-1.9025,-1.8985,-1.9125,-1.9145,-1.9205,-1.9352,-1.9366,-1.9366,-1.9366,-1.9366,-1.9366,-1.9366,-1.9366,-1.9366,-1.9366,-1.9366,-1.9232,-1.8938,-1.8637,-1.8417,-1.825,-1.8263,-1.819,-1.805,-1.8043,-1.7956,0.0,0.0,0.0,0.0,0.0,-1.587,0.0,0.0,0.0,0.0,0.0,0.0,0.0,0.0,0.0,0.0,0.0,0.0,0.0,0.0,0.0,0.0,0.0,0.0,-1.6611,-1.6924,-1.748,-1.833,-1.8232,-1.8369,-1.8896,-1.8916,-1.8887,-1.8799,-1.8955,-1.9004,-1.8926,-1.8108,-1.7622,-1.7543,-1.5928,-1.5249,-1.5387,-1.4744,-1.4569,-1.4796,-1.4796,-1.4796,-1.4796,-1.4796,-1.4963,-1.5237,-1.5351,-1.5571,-1.5832,-1.5832,-1.5832,-1.5832,-1.5832,-1.5832,-1.5872,-1.6112,-1.6025,-1.5919,-1.6393,-1.6707,-1.6907,-1.6961,-1.7188,-1.7428,-1.7482,-1.7542,-1.7582,-1.7582,-1.7582,-1.7582,-1.7582,-1.7582,-1.7655,-1.7909,-1.7956,-1.8143,-1.8738,-1.8644,-1.8571,-1.8804,-1.8644,-1.8577,-1.8811,-1.8838,-1.8931,-1.9172,-1.9199,-1.9199,-1.9199,-1.9252,-1.9279,-1.9279,-1.9332,-1.9366,-1.9366,-1.9366,-1.9118,-1.8584,-1.8517,-1.8223,-1.7669,-1.7862,-1.7956,-1.7956,-1.7762,-1.7642,0.0,0.0,0.0,0.0,-1.7141,0.0,0.0,0.0,-1.6888,-1.6524,0.0,0.0,0.0,0.0,0.0,0.0,0.0,0.0,0.0,0.0,0.0,0.0,0.0,0.0,0.0,-1.6243,-1.6582,-1.7461,-1.6797,-1.6719,-1.7559,-1.7598,-1.7422,-1.7031,-1.7764,-1.7978,-1.7607,-1.7033,-1.6543,-1.6228,-1.5134,-1.4561,-1.425,-1.4206,-1.4155,-1.4188,-1.4188,-1.4188,-1.4188,-1.4188,-1.4355,-1.4669,-1.519,-1.5571,-1.5832,-1.5832,-1.5832,-1.5832,-1.5832,-1.5832,-1.5838,-1.5872,-1.5852,-1.5838,-1.5912,-1.5952,-1.6032,-1.6299,-1.658,-1.6867,-1.7128,-1.7388,-1.7582,-1.7582,-1.7582,-1.7582,-1.7582,-1.7582,-1.7595,-1.7629,-1.7635,-1.7829,-1.8437,-1.851,-1.8504,-1.8537,-1.851,-1.8504,-1.8537,-1.8544,-1.8551,-1.8584,-1.8591,-1.8591,-1.8591,-1.8824,-1.8978,-1.8978,-1.9225,-1.9366,-1.9366,-1.9366,-1.9212,-1.8878,-1.8617,-1.833,-1.7989,-1.7756,-1.7635,-1.7642,-1.7883,-1.7849,0.0,0.0,0.0,0.0,0.0,0.0,-1.7473,0.0,-1.8265,0.0,0.0,0.0,0.0,0.0,0.0,0.0,-1.6198,0.0,0.0,0.0,0.0,0.0,0.0,0.0,0.0,0.0,0.0,0.0,-1.6035,-1.6064,-1.6963,-1.7002,-1.6924,-1.6738,-1.7324,-1.7559,-1.7383,-1.6318,-1.5732,-1.5544,-1.4322,-1.3718,-1.3587,-1.3928,-1.4088,-1.4088,-1.4088,-1.4088,-1.4088,-1.4088,-1.4255,-1.4543,-1.479,-1.517,-1.5598,-1.5765,-1.5832,-1.5832,-1.5832,-1.5832,-1.5832,-1.5832,-1.5832,-1.5832,-1.5832,-1.5952,-1.6112,-1.6239,-1.6607,-1.6987,-1.7114,-1.7368,-1.7582,-1.7582,-1.7582,-1.7582,-1.7582,-1.7582,-1.7582,-1.7582,-1.7582,-1.7662,-1.7923,-1.7963,-1.8023,-1.821,-1.8076,-1.8029,-1.821,-1.823,-1.8297,-1.847,-1.849,-1.849,-1.849,-1.8604,-1.8744,-1.8911,-1.9205,-1.9292,-1.9118,-1.9279,-1.9145,-1.8684,-1.8551,-1.8257,-1.7776,-1.7649,-1.7582,-1.7589,-1.7716,-1.7709,-2.0655,0.0,0.0,0.0,0.0,0.0,0.0,0.0,0.0,0.0,0.0,0.0,0.0,0.0,0.0,0.0,0.0,-1.6255,0.0,-1.5312,0.0,0.0,0.0,0.0,0.0,0.0,0.0,-1.5713,-1.5303,-1.5439,-1.6328,-1.6484,-1.6494,-1.6377,-1.6914,-1.7067,-1.6852,-1.5601,-1.4972,-1.4889,-1.3696,-1.3126,-1.3227,-1.3734,-1.3968,-1.3968,-1.4048,-1.4088,-1.4088,-1.4088,-1.4208,-1.4409,-1.4489,-1.483,-1.5311,-1.5605,-1.5758,-1.5832,-1.5832,-1.5832,-1.5832,-1.5832,-1.5832,-1.5832,-1.5832,-1.5979,-1.6152,-1.6152,-1.6513,-1.6927,-1.7007,-1.7248,-1.7482,-1.7562,-1.7522,-1.7462,-1.7462,-1.7402,-1.7368,-1.7448,-1.7462,-1.7488,-1.7569,-1.7582,-1.7655,-1.7883,-1.7729,-1.7662,-1.7889,-1.7916,-1.8003,-1.8217,-1.8237,-1.8237,-1.8237,-1.8317,-1.849,-1.8784,-1.9085,-1.9152,-1.8931,-1.9205,-1.9092,-1.8504,-1.849,-1.819,-1.7582,-1.7582,-1.7582,-1.7582,-1.7582,-1.7582,0.0,0.0,0.0,-2.0149,0.0,0.0,0.0,0.0,-2.0974,0.0,0.0,0.0,0.0,0.0,0.0,0.0,0.0,0.0,0.0,0.0,0.0,0.0,0.0,0.0,0.0,0.0,-1.3906,-1.4766,-1.4424,-1.4496,-1.541,-1.585,-1.5889,-1.5469,-1.6299,-1.6284,-1.5404,-1.479,-1.4426,-1.4224,-1.3279,-1.2919,-1.322,-1.352,-1.3661,-1.3592,-1.3961,-1.4088,-1.4088,-1.4088,-1.4095,-1.4128,-1.4409,-1.471,-1.5017,-1.5304,-1.5585,-1.5832,-1.5832,-1.5832,-1.5832,-1.5832,-1.5832,-1.5832,-1.5832,-1.5838,-1.5845,-1.5845,-1.6066,-1.6366,-1.6647,-1.6941,-1.7235,-1.7515,-1.7368,-1.7161,-1.7161,-1.6941,-1.682,-1.7108,-1.7161,-1.7255,-1.7535,-1.7582,-1.7589,-1.7595,-1.7589,-1.7589,-1.7595,-1.7595,-1.7602,-1.7609,-1.7609,-1.7609,-1.7609,-1.7889,-1.819,-1.8484,-1.8778,-1.8931,-1.8925,-1.9205,-1.9092,-1.8504,-1.849,-1.819,-1.7582,-1.7582,-1.7582,-1.7582,-1.7582,-1.7582,0.0,0.0,-2.3142,-2.1522,0.0,0.0,0.0,0.0,0.0,0.0,0.0,0.0,0.0,0.0,0.0,0.0,0.0,0.0,0.0,0.0,0.0,0.0,0.0,0.0,0.0,0.0,0.0,-1.4717,-1.4385,-1.4502,-1.5361,-1.5557,-1.5566,-1.542,-1.5986,-1.6301,-1.6256,-1.5109,-1.4587,-1.4848,-1.3461,-1.2913,-1.322,-1.3507,-1.3559,-1.3654,-1.3748,-1.3794,-1.3794,-1.3794,-1.3908,-1.4095,-1.4195,-1.4416,-1.473,-1.5217,-1.5578,-1.5832,-1.5832,-1.5832,-1.5832,-1.5832,-1.5832,-1.5832,-1.5832,-1.5832,-1.5832,-1.5832,-1.6046,-1.6293,-1.6393,-1.6633,-1.6881,-1.6981,-1.6927,-1.6854,-1.6854,-1.6774,-1.6734,-1.6834,-1.7014,-1.7121,-1.7021,-1.7321,-1.7582,-1.7582,-1.7582,-1.7582,-1.7582,-1.7582,-1.7582,-1.7582,-1.7582,-1.7582,-1.7582,-1.7869,-1.8003,-1.7896,-1.8537,-1.8838,-1.8644,-1.9105,-1.9178,-1.8784,-1.8591,-1.829,-1.7889,-1.7682,-1.7582,-1.7582,-1.7582,-1.7582,-2.3078,-2.3414,0.0,-2.245,-2.3069,0.0,-2.198,0.0,-2.3929,0.0,0.0,0.0,0.0,0.0,0.0,0.0,0.0,0.0,0.0,-1.541,0.0,0.0,0.0,0.0,0.0,-1.3623,-1.3701,-1.4707,-1.4385,-1.4502,0.0,0.0,-1.5488,-1.5635,-1.5607,-1.5707,-1.5946,-1.4647,-1.4042,-1.4171,-1.3156,-1.2692,-1.2899,-1.3186,-1.3387,-1.3494,-1.3601,-1.3701,-1.3801,-1.3801,-1.3915,-1.4088,-1.4088,-1.4329,-1.4723,-1.5104,-1.5491,-1.5832,-1.5832,-1.5832,-1.5832,-1.5832,-1.5832,-1.5832,-1.5832,-1.5832,-1.5852,-1.5959,-1.6046,-1.6166,-1.6373,-1.6486,-1.658,-1.668,-1.6627,-1.6553,-1.6553,-1.6466,-1.6426,-1.6533,-1.6707,-1.6807,-1.672,-1.7108,-1.7428,-1.7428,-1.7515,-1.7582,-1.7582,-1.7582,-1.7582,-1.7582,-1.7582,-1.7582,-1.7582,-1.7762,-1.7842,-1.7756,-1.839,-1.8731,-1.8651,-1.9112,-1.9279,-1.9085,-1.8798,-1.8551,-1.8357,-1.7949,-1.7749,-1.7742,-1.7629,-1.7582]},{"header":{"parameterUnit":"m.s-1","parameterCategory":1,"la1":30.6,"la2":29.2853,"lo1":-89.7004,"lo2":-87.6739,"dy":0.0162,"dx":0.0183,"nx":112,"ny":82,"refTime":"2023-08-07T06:00:00:Z","depth":0,"parameterNumber":3,"parameterNumberName":"V-component_of_WINDS"},"data":[0.0,0.0,0.0,0.0,0.0,0.0,0.0,0.0,0.0,0.0,0.0,0.0,0.0,0.0,0.0,0.0,0.0,0.0,0.0,0.0,0.0,0.0,0.0,0.0,0.0,0.0,0.0,0.0,0.0,0.0,0.0,0.0,0.0,0.0,0.0,0.0,0.0,0.0,0.0,0.0,0.0,0.0,0.0,0.0,0.0,0.0,0.0,0.0,0.0,0.0,0.0,0.0,0.0,0.0,0.0,0.0,0.0,0.0,0.0,0.0,0.0,0.0,0.0,0.0,0.0,0.0,0.0,0.0,0.0,0.0,0.0,0.0,0.0,0.0,0.0,0.0,0.0,0.0,0.0,0.0,0.0,0.0,0.0,0.0,0.0,0.0,0.0,0.0,0.0,0.0,-3.1908,-3.5888,-3.9543,-4.2025,-4.2894,-4.2421,-4.0977,-3.8402,0.0,0.0,0.0,0.0,0.0,0.0,0.0,0.0,0.0,0.0,0.0,0.0,0.0,0.0,0.0,0.0,0.0,0.0,0.0,0.0,0.0,0.0,0.0,0.0,0.0,0.0,0.0,0.0,0.0,0.0,0.0,0.0,0.0,0.0,0.0,0.0,0.0,0.0,0.0,0.0,0.0,0.0,0.0,0.0,0.0,0.0,0.0,0.0,0.0,0.0,0.0,0.0,0.0,0.0,0.0,0.0,0.0,0.0,0.0,0.0,0.0,0.0,0.0,0.0,0.0,0.0,0.0,0.0,0.0,0.0,0.0,0.0,0.0,0.0,0.0,0.0,0.0,0.0,0.0,0.0,0.0,0.0,0.0,0.0,0.0,0.0,0.0,0.0,0.0,0.0,0.0,0.0,0.0,0.0,0.0,0.0,0.0,0.0,0.0,0.0,0.0,0.0,0.0,0.0,-3.328,-3.6088,-3.9775,-4.2454,-4.3548,-4.2082,-4.0712,-3.9747,0.0,0.0,0.0,0.0,0.0,0.0,0.0,0.0,0.0,0.0,0.0,0.0,0.0,0.0,0.0,0.0,0.0,0.0,0.0,0.0,0.0,0.0,0.0,0.0,0.0,0.0,0.0,0.0,0.0,0.0,0.0,0.0,0.0,0.0,0.0,0.0,0.0,0.0,0.0,0.0,0.0,0.0,0.0,0.0,0.0,0.0,0.0,0.0,0.0,0.0,0.0,0.0,0.0,0.0,0.0,0.0,0.0,0.0,0.0,0.0,0.0,0.0,0.0,0.0,0.0,0.0,0.0,0.0,0.0,0.0,0.0,0.0,0.0,0.0,0.0,0.0,0.0,0.0,0.0,0.0,0.0,0.0,0.0,0.0,0.0,0.0,0.0,0.0,0.0,0.0,0.0,0.0,0.0,0.0,0.0,0.0,0.0,0.0,0.0,0.0,0.0,0.0,0.0,-3.3646,-3.4966,-3.7053,-3.9909,-4.2047,-4.3016,-4.1707,-4.0344,-3.915,-3.8319,0.0,0.0,0.0,0.0,0.0,0.0,0.0,0.0,0.0,0.0,0.0,0.0,0.0,0.0,0.0,0.0,0.0,0.0,0.0,0.0,0.0,0.0,0.0,0.0,0.0,0.0,0.0,0.0,0.0,0.0,0.0,0.0,0.0,0.0,0.0,0.0,0.0,0.0,0.0,0.0,0.0,0.0,0.0,0.0,0.0,0.0,0.0,0.0,0.0,0.0,0.0,0.0,0.0,0.0,0.0,0.0,0.0,0.0,0.0,0.0,0.0,0.0,0.0,0.0,0.0,0.0,0.0,0.0,0.0,0.0,0.0,0.0,0.0,0.0,0.0,0.0,0.0,0.0,0.0,0.0,0.0,0.0,0.0,0.0,0.0,0.0,0.0,0.0,0.0,0.0,0.0,0.0,0.0,0.0,0.0,0.0,0.0,0.0,0.0,0.0,0.0,0.0,-3.4314,-3.5699,-3.7777,-4.0055,-4.1686,-4.2278,-4.0988,-3.9683,-3.8584,-3.7394,0.0,0.0,0.0,0.0,0.0,0.0,0.0,0.0,0.0,0.0,0.0,0.0,0.0,0.0,0.0,0.0,0.0,0.0,0.0,0.0,0.0,0.0,0.0,0.0,0.0,0.0,0.0,0.0,0.0,0.0,0.0,0.0,0.0,0.0,0.0,0.0,0.0,0.0,0.0,0.0,0.0,0.0,0.0,0.0,0.0,0.0,0.0,0.0,0.0,0.0,0.0,0.0,0.0,0.0,0.0,0.0,0.0,0.0,0.0,0.0,0.0,0.0,0.0,0.0,0.0,0.0,0.0,0.0,0.0,0.0,0.0,0.0,0.0,0.0,0.0,0.0,0.0,0.0,0.0,0.0,0.0,0.0,0.0,0.0,0.0,0.0,0.0,0.0,0.0,0.0,0.0,0.0,0.0,0.0,0.0,0.0,0.0,0.0,0.0,0.0,0.0,0.0,-3.4007,-3.4353,-3.7642,-4.0261,-4.1783,-4.1841,-3.9596,-3.8481,-3.9192,-3.621,0.0,0.0,0.0,0.0,0.0,0.0,0.0,0.0,0.0,0.0,0.0,0.0,0.0,0.0,0.0,0.0,0.0,0.0,0.0,0.0,0.0,0.0,0.0,0.0,0.0,0.0,0.0,0.0,0.0,0.0,0.0,0.0,0.0,0.0,0.0,0.0,0.0,0.0,0.0,0.0,0.0,0.0,0.0,0.0,0.0,0.0,0.0,0.0,0.0,0.0,0.0,0.0,0.0,0.0,0.0,0.0,0.0,0.0,0.0,0.0,0.0,0.0,0.0,0.0,0.0,0.0,0.0,0.0,0.0,0.0,0.0,0.0,0.0,0.0,0.0,0.0,0.0,0.0,0.0,0.0,0.0,0.0,0.0,0.0,0.0,0.0,0.0,0.0,0.0,0.0,0.0,0.0,0.0,0.0,0.0,0.0,0.0,0.0,0.0,0.0,0.0,0.0,-3.4449,-3.4814,-3.768,-3.9335,-4.0431,-4.095,-3.9642,-3.8719,-3.8507,0.0,0.0,0.0,0.0,0.0,0.0,0.0,0.0,0.0,0.0,0.0,0.0,0.0,0.0,0.0,0.0,0.0,0.0,0.0,0.0,0.0,0.0,0.0,0.0,0.0,0.0,0.0,0.0,0.0,0.0,0.0,0.0,0.0,0.0,0.0,0.0,0.0,0.0,0.0,0.0,0.0,0.0,0.0,0.0,0.0,0.0,0.0,0.0,0.0,0.0,0.0,0.0,0.0,0.0,0.0,0.0,0.0,0.0,0.0,0.0,0.0,0.0,0.0,0.0,0.0,0.0,0.0,0.0,0.0,0.0,0.0,0.0,0.0,0.0,0.0,0.0,0.0,0.0,0.0,0.0,0.0,0.0,0.0,0.0,0.0,0.0,0.0,0.0,0.0,0.0,0.0,0.0,0.0,0.0,0.0,0.0,0.0,0.0,0.0,0.0,0.0,0.0,-3.5699,-3.4661,-3.4757,-3.7315,-3.8373,-3.9104,-3.9662,-3.82,-3.7353,-3.7565,0.0,0.0,0.0,0.0,0.0,0.0,0.0,0.0,0.0,0.0,0.0,0.0,0.0,0.0,0.0,0.0,0.0,0.0,0.0,0.0,0.0,0.0,0.0,0.0,0.0,0.0,0.0,0.0,0.0,0.0,0.0,0.0,0.0,0.0,0.0,0.0,0.0,0.0,0.0,0.0,0.0,0.0,0.0,0.0,0.0,0.0,0.0,0.0,0.0,0.0,0.0,0.0,0.0,0.0,0.0,0.0,0.0,0.0,0.0,0.0,0.0,0.0,0.0,0.0,0.0,0.0,0.0,0.0,0.0,0.0,0.0,0.0,0.0,0.0,0.0,0.0,0.0,0.0,0.0,0.0,0.0,0.0,0.0,0.0,0.0,0.0,0.0,0.0,0.0,0.0,0.0,0.0,0.0,0.0,0.0,0.0,0.0,0.0,0.0,0.0,0.0,0.0,-3.6372,-3.4468,-3.3853,-3.6411,-3.7469,-3.7988,-3.8007,-3.4872,-3.4007,0.0,0.0,0.0,0.0,0.0,0.0,0.0,0.0,0.0,0.0,0.0,0.0,0.0,0.0,0.0,0.0,0.0,0.0,0.0,0.0,0.0,0.0,0.0,0.0,0.0,0.0,0.0,0.0,0.0,0.0,0.0,0.0,0.0,0.0,0.0,0.0,0.0,0.0,0.0,0.0,0.0,0.0,0.0,0.0,0.0,0.0,0.0,0.0,0.0,0.0,0.0,0.0,0.0,0.0,0.0,0.0,0.0,0.0,0.0,0.0,0.0,0.0,0.0,0.0,0.0,0.0,0.0,0.0,0.0,0.0,0.0,0.0,0.0,0.0,0.0,0.0,0.0,0.0,0.0,0.0,0.0,0.0,0.0,0.0,0.0,0.0,0.0,0.0,0.0,0.0,0.0,0.0,0.0,0.0,0.0,0.0,0.0,0.0,0.0,0.0,0.0,0.0,0.0,-3.568,-3.3641,-3.3026,-3.5584,-3.6603,-3.7334,-3.795,-3.5988,-3.5565,-3.7488,0.0,0.0,0.0,0.0,0.0,0.0,0.0,0.0,0.0,0.0,0.0,0.0,0.0,0.0,0.0,0.0,0.0,0.0,0.0,0.0,0.0,0.0,0.0,0.0,0.0,0.0,0.0,0.0,0.0,0.0,0.0,0.0,0.0,0.0,0.0,0.0,0.0,0.0,0.0,0.0,0.0,0.0,0.0,0.0,0.0,0.0,0.0,0.0,0.0,0.0,0.0,0.0,0.0,0.0,0.0,0.0,0.0,0.0,0.0,0.0,0.0,0.0,0.0,0.0,0.0,0.0,0.0,0.0,0.0,0.0,0.0,0.0,0.0,0.0,0.0,0.0,0.0,0.0,0.0,0.0,0.0,0.0,0.0,0.0,0.0,0.0,0.0,0.0,0.0,0.0,0.0,0.0,0.0,0.0,0.0,0.0,0.0,0.0,0.0,0.0,0.0,0.0,-3.6353,-3.3968,-3.3026,-3.5276,-3.593,-3.6565,-3.7411,-3.5949,-3.5518,-3.675,0.0,0.0,0.0,0.0,0.0,0.0,0.0,0.0,0.0,0.0,0.0,0.0,0.0,0.0,0.0,0.0,0.0,0.0,0.0,0.0,0.0,0.0,0.0,0.0,0.0,0.0,0.0,0.0,0.0,0.0,0.0,0.0,0.0,0.0,0.0,0.0,0.0,0.0,0.0,0.0,0.0,0.0,0.0,0.0,0.0,0.0,0.0,0.0,0.0,0.0,0.0,0.0,0.0,0.0,0.0,0.0,0.0,0.0,0.0,0.0,0.0,0.0,0.0,0.0,0.0,0.0,0.0,0.0,0.0,0.0,0.0,0.0,0.0,0.0,0.0,0.0,0.0,0.0,0.0,0.0,0.0,0.0,0.0,0.0,0.0,0.0,0.0,0.0,0.0,0.0,0.0,0.0,0.0,0.0,0.0,0.0,0.0,0.0,0.0,0.0,0.0,0.0,-3.768,-3.4968,-3.3545,-3.5199,-3.5526,-3.5897,-3.6594,-3.5268,-3.4621,-3.5141,0.0,0.0,0.0,0.0,0.0,0.0,0.0,0.0,0.0,0.0,0.0,0.0,0.0,0.0,0.0,0.0,0.0,0.0,0.0,0.0,0.0,0.0,0.0,0.0,0.0,0.0,0.0,0.0,0.0,0.0,0.0,0.0,0.0,0.0,0.0,0.0,0.0,0.0,0.0,0.0,0.0,0.0,0.0,0.0,0.0,0.0,0.0,0.0,0.0,0.0,0.0,0.0,0.0,0.0,0.0,0.0,0.0,0.0,0.0,0.0,-4.045,0.0,0.0,0.0,0.0,0.0,0.0,0.0,0.0,0.0,0.0,0.0,0.0,0.0,0.0,0.0,0.0,0.0,0.0,0.0,0.0,0.0,0.0,0.0,0.0,0.0,0.0,0.0,0.0,0.0,0.0,0.0,0.0,0.0,0.0,0.0,0.0,0.0,0.0,0.0,0.0,0.0,-3.6853,-3.4584,-3.3314,-3.4353,-3.5661,-3.6435,-3.6394,-3.6071,-3.5832,-3.5721,-3.4548,0.0,0.0,0.0,0.0,0.0,0.0,0.0,0.0,0.0,0.0,0.0,0.0,0.0,0.0,0.0,0.0,0.0,0.0,0.0,0.0,0.0,0.0,0.0,0.0,0.0,0.0,0.0,0.0,0.0,0.0,0.0,0.0,0.0,0.0,0.0,0.0,0.0,0.0,0.0,0.0,0.0,0.0,0.0,0.0,0.0,0.0,0.0,0.0,0.0,0.0,0.0,0.0,0.0,0.0,0.0,0.0,0.0,0.0,0.0,0.0,-4.2701,0.0,0.0,0.0,0.0,0.0,0.0,0.0,0.0,0.0,0.0,0.0,0.0,0.0,0.0,0.0,0.0,0.0,0.0,0.0,0.0,0.0,0.0,0.0,0.0,0.0,0.0,0.0,0.0,0.0,0.0,0.0,0.0,0.0,0.0,0.0,0.0,0.0,0.0,0.0,0.0,-3.718,-3.5103,-3.4007,-3.5276,-3.642,-3.7209,-3.747,-3.6996,-3.6568,-3.6291,-3.559,0.0,0.0,0.0,0.0,0.0,0.0,0.0,0.0,0.0,0.0,0.0,0.0,0.0,0.0,0.0,0.0,0.0,0.0,0.0,0.0,0.0,0.0,0.0,0.0,0.0,0.0,0.0,0.0,0.0,0.0,0.0,0.0,0.0,0.0,0.0,0.0,0.0,0.0,0.0,0.0,0.0,0.0,0.0,0.0,0.0,0.0,0.0,0.0,0.0,0.0,0.0,0.0,0.0,-4.649,-4.7721,-4.9663,-5.0664,-5.0894,-5.0394,-4.8432,-4.6663,-4.5259,-4.6259,0.0,0.0,0.0,0.0,0.0,0.0,0.0,0.0,0.0,0.0,0.0,0.0,0.0,0.0,0.0,0.0,0.0,0.0,0.0,0.0,0.0,0.0,0.0,0.0,-4.3431,-4.2951,0.0,0.0,0.0,0.0,0.0,0.0,0.0,0.0,0.0,0.0,0.0,0.0,-3.7815,-3.5864,-3.4971,-3.6661,-3.7313,-3.7966,-3.8781,-3.7999,-3.7272,-3.6868,-3.6906,-3.6351,0.0,0.0,0.0,0.0,0.0,0.0,0.0,0.0,0.0,0.0,0.0,0.0,0.0,0.0,0.0,0.0,0.0,0.0,0.0,0.0,0.0,0.0,0.0,0.0,0.0,0.0,0.0,0.0,0.0,0.0,0.0,0.0,-3.199,-3.3605,0.0,0.0,0.0,0.0,0.0,0.0,0.0,0.0,0.0,0.0,0.0,0.0,0.0,-4.5278,-4.6047,-4.8471,-4.9048,-4.7798,-5.001,-5.0875,-5.0567,-5.2145,-5.3606,-5.4895,-5.5299,0.0,-4.8567,-4.6586,0.0,0.0,0.0,0.0,0.0,0.0,0.0,0.0,0.0,0.0,0.0,0.0,0.0,0.0,0.0,0.0,0.0,0.0,0.0,0.0,0.0,0.0,-4.2989,-4.3912,-4.472,-4.5182,0.0,-4.3797,-4.245,-4.0816,-4.0027,0.0,0.0,0.0,0.0,0.0,0.0,0.0,-3.7969,-3.6189,-3.5524,-3.7219,-3.7866,-3.8432,-3.9018,-3.891,-3.8422,-3.7466,-3.6777,-3.6297,-3.6095,-3.5414,0.0,0.0,0.0,0.0,0.0,0.0,0.0,0.0,0.0,0.0,0.0,0.0,0.0,0.0,0.0,0.0,0.0,0.0,0.0,0.0,0.0,0.0,0.0,0.0,0.0,0.0,0.0,0.0,0.0,-3.4119,-3.5605,-3.5844,-3.7562,-3.8875,0.0,0.0,0.0,0.0,0.0,0.0,0.0,0.0,0.0,-4.5874,-4.7567,-4.8644,-4.9029,-5.1548,-5.2933,-5.3126,-5.4222,-5.5318,-5.6395,-5.6822,-5.7679,-5.8884,-5.9445,-5.79,-5.4704,-5.1525,-4.9896,-4.9124,0.0,0.0,0.0,0.0,-4.581,-4.6149,-4.6574,-4.7334,0.0,-4.7517,0.0,0.0,0.0,0.0,0.0,0.0,0.0,0.0,0.0,0.0,-4.6259,-4.7567,-4.8529,-4.9144,-4.9144,-4.7817,-4.5855,0.0,-4.2354,-4.197,-4.1508,0.0,0.0,0.0,0.0,-3.798,-3.8766,-3.8074,-3.801,-3.9202,-3.9814,-4.0259,-4.0486,-3.9915,-3.9331,-3.8885,-3.7661,-3.7032,-3.7193,-3.6693,-3.6878,0.0,0.0,0.0,0.0,0.0,0.0,0.0,0.0,0.0,0.0,0.0,0.0,0.0,0.0,0.0,0.0,0.0,0.0,0.0,0.0,0.0,0.0,0.0,0.0,0.0,0.0,0.0,0.0,-3.6211,-3.7533,-3.6927,-3.898,-4.0371,0.0,0.0,0.0,0.0,0.0,0.0,-4.6628,-4.726,-4.8221,-4.9683,-5.1625,-5.2741,-5.2953,-5.5261,-5.7005,-5.8103,-5.8314,-5.9363,-6.1062,-6.0864,-6.1128,-6.1793,-6.2251,-6.1523,-5.9691,-5.5822,-5.3508,-5.2142,-4.9819,-4.9021,-4.9283,-4.9805,-5.0076,-5.0309,-5.1314,-5.2335,-5.2913,-5.1187,-5.1395,-5.1587,-4.774,0.0,0.0,0.0,0.0,-4.6374,-4.8279,-4.8913,-4.949,-5.1101,-5.1943,-5.2363,-5.2257,-5.1086,-4.9001,0.0,-4.444,-4.3884,-4.3097,0.0,0.0,0.0,0.0,-3.9028,-3.9746,-3.9752,-4.004,-4.0929,-4.1288,-4.1549,-4.1753,-4.0824,-4.0212,-4.0212,-3.8891,-3.8092,-3.809,-3.7716,-3.7698,-3.809,0.0,0.0,0.0,0.0,0.0,0.0,0.0,0.0,0.0,0.0,0.0,0.0,0.0,0.0,0.0,0.0,0.0,0.0,0.0,0.0,0.0,0.0,0.0,0.0,0.0,0.0,0.0,0.0,0.0,-3.5119,-3.8539,0.0,0.0,0.0,0.0,-4.6039,-4.7107,-4.8375,-4.9885,-5.177,-5.3241,-5.4145,-5.6607,-5.828,-5.905,-6.0819,-6.1493,-6.1084,-6.1915,-6.2116,-6.1766,-6.2559,-6.2955,-6.3049,-6.3898,-6.3313,-6.1446,-5.7156,-5.5352,-5.5018,-5.2172,-5.1564,-5.2252,-5.198,-5.2138,-5.2557,-5.2615,-5.3685,-5.5301,-5.6752,-5.6975,-5.6184,-5.3549,-5.2164,0.0,0.0,-4.976,-5.0394,-5.0529,-5.1144,-5.2043,-5.3334,-5.3658,-5.3598,-5.3229,-5.2439,-5.0676,0.0,-4.4865,-4.3471,-4.2669,0.0,-4.3033,-4.1549,-4.1834,-4.1882,-4.0871,-4.0446,-4.057,-4.1483,-4.1292,-4.1438,-4.2209,-4.1515,-4.1056,-4.1056,-4.0249,-3.9423,-3.8701,-3.793,-3.7875,-3.8646,-3.7911,0.0,0.0,0.0,0.0,0.0,0.0,0.0,0.0,0.0,0.0,0.0,0.0,0.0,0.0,0.0,0.0,0.0,0.0,0.0,0.0,0.0,0.0,0.0,0.0,0.0,0.0,0.0,0.0,-4.2225,-4.504,0.0,-4.689,-4.7329,-4.8375,-5.0306,-5.0523,-5.197,-5.5247,-5.6082,-5.7455,-5.9576,-6.0532,-6.1506,-6.2506,-6.3698,-6.3934,-6.323,-6.3019,-6.2816,-6.2634,-6.2086,-6.2133,-6.2694,-6.317,-6.2732,-6.1582,-6.0048,-5.8386,-5.6594,-5.4766,-5.4248,-5.4635,-5.5899,-5.6474,-5.6743,-5.758,-5.8432,-5.9062,-5.8341,-5.6867,-5.5222,-5.4318,-5.3433,-5.2741,-5.2683,-5.2914,-5.326,-5.378,-5.4319,-5.4855,-5.5298,-5.5218,-5.4981,-5.4824,-5.3717,-5.2272,-5.066,-4.8729,-4.7114,-4.632,-4.5488,-4.4674,-4.3904,-4.3144,-4.2604,-4.2551,-4.2451,-4.2484,-4.2793,-4.2735,-4.2763,-4.3039,-4.1864,-4.1111,-4.1111,-3.9368,-3.8212,-3.7936,-3.7147,-3.711,-3.79,-3.7643,-3.7734,0.0,0.0,0.0,0.0,0.0,0.0,0.0,0.0,0.0,0.0,0.0,0.0,0.0,0.0,0.0,0.0,0.0,0.0,0.0,0.0,0.0,0.0,0.0,0.0,0.0,0.0,-4.4317,-4.6918,-4.9466,-5.1008,-5.1076,-5.1354,-5.2487,-5.4829,-5.5212,-5.6867,-6.0355,-6.0834,-6.1755,-6.3455,-6.3797,-6.419,-6.469,-6.5255,-6.5026,-6.4059,-6.3496,-6.3193,-6.2953,-6.2085,-6.2001,-6.2557,-6.2744,-6.2346,-6.1594,-6.1594,-6.048,-5.8713,-5.8116,-5.7913,-5.8104,-5.999,-6.0604,-6.064,-6.1657,-6.1838,-6.1425,-6.0018,-5.8242,-5.6569,-5.628,-5.578,-5.5395,-5.5703,-5.5654,-5.5681,-5.6199,-5.642,-5.647,-5.6299,-5.5866,-5.5407,-5.5283,-5.4181,-5.3121,-5.2846,-5.1295,-4.969,-4.8602,-4.7496,-4.6562,-4.6102,-4.4848,-4.404,-4.4301,-4.4066,-4.3791,-4.3516,-4.3497,-4.3497,-4.3497,-4.2525,-4.168,-4.1148,-3.9331,-3.8175,-3.7918,-3.7129,-3.7074,-3.7881,-3.79,-3.8175,-3.8707,0.0,0.0,0.0,0.0,0.0,0.0,0.0,0.0,0.0,0.0,0.0,0.0,0.0,0.0,0.0,0.0,0.0,0.0,0.0,0.0,0.0,0.0,0.0,-4.1705,-4.4691,-4.7218,-4.8594,-5.1243,-5.2652,-5.1892,-5.4342,-5.6992,-5.945,-6.1238,-6.3046,-6.4934,-6.5835,-6.6091,-6.5594,-6.6367,-6.6404,-6.5632,-6.5594,-6.4941,-6.3624,-6.3587,-6.3271,-6.2768,-6.2768,-6.2768,-6.2768,-6.2805,-6.2365,-6.1679,-6.1679,-6.1523,-6.1363,-6.209,-6.2388,-6.2566,-6.3878,-6.4181,-6.3932,-6.4372,-6.3435,-6.205,-6.205,-6.1493,-6.0646,-5.98,-5.955,-5.9377,-5.8607,-5.8042,-5.77,-5.7653,-5.732,-5.6861,-5.6368,-5.562,-5.4888,-5.4528,-5.3794,-5.3206,-5.3206,-5.2211,-5.0856,-4.9275,-4.8996,-4.8717,-4.788,-4.7024,0.0,-4.5993,-4.5241,-4.4452,-4.3644,-4.3552,-4.3552,-4.3534,-4.3479,-4.2782,-4.1203,-4.0304,-3.9478,-3.8689,-3.7881,-3.7826,-3.8652,-3.8689,-3.8707,-3.8719,0.0,0.0,0.0,0.0,0.0,0.0,0.0,0.0,0.0,0.0,0.0,0.0,0.0,0.0,0.0,0.0,0.0,0.0,0.0,0.0,0.0,0.0,-4.5186,-4.558,-4.7732,-5.0539,-5.3906,-5.6836,-5.8726,-5.913,-6.1007,-6.2279,-6.2605,-6.4201,-6.5207,-6.5405,-6.6201,-6.6687,-6.6717,-6.6381,-6.622,-6.6278,-6.5656,-6.4905,-6.3935,-6.3309,-6.2622,-6.1924,-6.1924,-6.1924,-6.1961,-6.2567,-6.2885,-6.3029,-6.3029,-6.3257,-6.3387,-6.2029,-6.1759,-6.2203,-6.355,-6.3779,-6.3406,-6.2949,-6.207,-6.1146,-6.1146,-6.0993,-6.0762,-6.0512,-6.0435,-6.0396,-6.0165,-6.0018,-5.9703,-5.871,-5.8571,-5.8439,-5.7338,-5.6232,-5.5423,-5.5287,-5.4179,-5.3206,-5.3206,-5.2904,-5.2364,-5.1332,-5.1148,-5.0687,-4.9287,-4.8347,0.0,-4.6856,-4.6085,-4.548,-4.5259,-4.5241,-4.5002,-4.4415,-4.3296,-4.2194,-4.1167,-3.9239,-3.8046,-3.7826,-3.7055,-3.7,-3.7808,-3.8395,-3.8803,0.0,0.0,0.0,0.0,0.0,0.0,0.0,0.0,0.0,0.0,0.0,0.0,0.0,0.0,0.0,0.0,0.0,0.0,0.0,0.0,0.0,0.0,-4.7291,-4.9749,-5.1547,-5.2709,-5.4623,-5.7914,-6.052,-6.2264,-6.2763,-6.3829,-6.4648,-6.5031,-6.5961,-6.6597,-6.6819,-6.7265,-6.749,-6.7389,-6.663,-6.6168,-6.5999,-6.5209,-6.4383,-6.3558,-6.3044,-6.2567,-6.2108,-6.2108,-6.2236,-6.2437,-6.2917,-6.3453,-6.3934,-6.3934,-6.4217,0.0,0.0,0.0,0.0,0.0,-6.3821,-6.3185,-6.2377,-6.1531,-6.08,-6.08,-6.08,-6.08,-6.08,-6.0647,-6.0508,-6.0508,-6.0236,-5.9741,-5.8954,-5.8782,-5.8604,-5.7849,-5.6583,-5.5684,-5.6033,-5.4583,-5.3316,-5.3647,-5.3445,0.0,-5.2582,-5.2215,-5.1665,-5.0729,-4.9591,-4.8673,-4.8214,-4.7131,-4.6269,-4.5938,-4.5902,-4.5571,-4.4782,-4.3846,0.0,0.0,0.0,-3.8854,-3.8505,-3.8046,0.0,0.0,0.0,-3.9786,-3.9922,0.0,0.0,0.0,-4.0836,-4.0359,0.0,0.0,0.0,0.0,0.0,0.0,0.0,0.0,0.0,0.0,0.0,0.0,0.0,0.0,0.0,0.0,-5.1354,-5.4194,-5.8146,-5.8635,-5.9213,-6.0916,-6.2739,-6.3886,-6.3981,-6.4422,-6.5274,-6.6628,-6.6873,-6.7382,-6.8211,0.0,0.0,0.0,0.0,-6.6072,-6.5448,-6.4439,-6.3668,-6.3099,-6.3007,-6.297,-6.2952,-6.2983,-6.3213,-6.3612,-6.3637,-6.3997,-6.45,-6.45,-6.475,-6.518,-6.518,-6.5123,-6.5012,-6.4603,-6.3955,-6.3166,-6.2262,0.0,0.0,-6.08,-6.08,-6.08,-6.0734,-6.0437,-6.0103,-6.0025,-5.9424,-5.8775,-5.8694,-5.8375,-5.807,-5.7997,-5.684,-5.5923,-5.6657,-5.506,-5.3665,-5.4289,-5.383,-5.3316,-5.3225,-5.2619,-5.2087,-5.1995,-5.0765,-4.9793,-4.9609,-4.8306,-4.7076,-4.6269,0.0,0.0,-4.4911,-4.4764,-4.3718,-4.1387,-4.1167,-4.0781,-4.0065,-4.0029,-4.0377,-4.1093,-4.1111,-4.1111,-4.1111,-4.1203,-4.1607,-4.2286,-4.1589,-4.1258,0.0,0.0,0.0,0.0,0.0,0.0,0.0,0.0,0.0,0.0,0.0,0.0,0.0,0.0,0.0,-5.3358,-5.6415,-5.9082,-6.0861,-6.2762,-6.3792,-6.3299,-6.3801,-6.4463,-6.5124,-6.6445,-6.698,-6.6213,-6.7382,-6.7802,-6.6957,-6.7494,-6.781,-6.7687,-6.6292,-6.5778,-6.6256,-6.4145,-6.3668,-6.4824,0.0,0.0,-6.3833,-6.4242,-6.4111,-6.3612,-6.4078,-6.4518,-6.4952,-6.4952,-6.5261,-6.5736,-6.5736,-6.5313,-6.4584,-6.3834,-6.3455,-6.3089,-6.157,-6.0935,-6.08,-6.08,-6.08,-6.0734,-6.0338,-6.0161,0.0,-5.9644,-5.9389,-5.9195,-5.8796,-5.8632,-5.8461,-5.8115,-5.7281,-5.662,-5.6785,-5.5923,-5.4987,-5.4491,-5.4271,-5.3959,-5.3316,-5.3078,-5.2747,-5.2087,-5.1738,-5.1059,-4.9756,-4.9315,-4.8783,-4.7939,-4.7847,-4.726,-4.5792,-4.5076,-4.3956,-4.2176,-4.1479,-4.1038,-4.0873,-4.0873,-4.0946,-4.1111,-4.1111,-4.1111,-4.1111,-4.1754,-4.2158,-4.2304,-4.2139,-4.2066,0.0,0.0,0.0,0.0,0.0,0.0,0.0,0.0,0.0,0.0,0.0,-4.6977,0.0,0.0,-5.4754,-5.7589,-5.9987,-6.2003,-6.3446,-6.4491,-6.5001,-6.4685,-6.529,-6.59,-6.6312,-6.6896,-6.7141,-6.6858,-6.7247,-6.7373,-6.7081,-6.7467,-6.7687,-6.7687,-6.6531,-6.609,-6.6494,-6.4879,-6.4475,-6.5301,-6.5158,-6.4842,-6.4454,-6.498,-6.4909,-6.4351,-6.4626,-6.5035,-6.5494,-6.5494,-6.5394,-6.5218,-6.4983,-6.4761,-6.4455,-6.3166,-6.2704,-6.2469,-6.0975,-6.0437,-6.0411,-6.018,-6.0103,-6.0055,-5.9823,-5.9578,-5.9354,-5.9121,-5.8874,-5.8673,-5.8418,-5.8351,-5.8282,-5.807,-5.7391,-5.6914,-5.7317,-5.6436,-5.5592,-5.5592,-5.495,-5.4271,-5.3867,-5.3482,-5.3078,-5.2656,-5.2252,-5.1701,-5.0894,-5.0086,-4.9426,-4.8985,-4.8563,-4.781,-4.6617,-4.5021,-4.3754,-4.2947,-4.1772,-4.1479,-4.2268,-4.1919,-4.1901,-4.2286,-4.2304,-4.2304,-4.2304,-4.269,-4.2892,-4.2892,-4.2892,-4.2892,0.0,0.0,0.0,0.0,0.0,0.0,0.0,0.0,-4.5954,-4.7939,-4.9528,-5.1486,-5.4503,-5.6686,-5.8905,-6.1595,-6.3158,-6.451,-6.5741,-6.5557,-6.5384,-6.5661,-6.6489,-6.712,-6.7287,-6.6953,-6.699,-6.7632,-6.71,-6.7008,-6.765,-6.7687,-6.7687,-6.7687,-6.6916,-6.6586,-6.6733,-6.5897,-6.5617,-6.593,-6.6314,-6.6101,-6.5447,-6.582,-6.5755,-6.5347,-6.5288,-6.5494,-6.5897,-6.5897,-6.5333,-6.4404,-6.3857,-6.3733,-6.3679,-6.2336,-6.1838,-6.1651,-6.0389,-5.9946,-5.9885,-5.9526,-5.9389,-5.9389,-5.9284,-5.9009,-5.8694,-5.8591,-5.8282,-5.7997,-5.7997,-5.7997,-5.7997,-5.7997,-5.7501,-5.7207,-5.785,-5.6969,-5.6198,-5.6712,-5.5757,-5.4821,-5.4656,-5.4106,-5.3573,-5.3261,-5.2656,-5.2179,-5.2013,-5.0857,-4.9939,-4.9609,-4.8967,-4.8159,-4.7205,-4.5039,-4.3718,-4.3718,-4.2378,-4.2158,-4.3442,-4.2873,-4.2837,-4.3479,-4.3497,-4.3497,-4.3497,-4.3497,-4.3497,-4.3497,-4.3497,-4.3497,-4.0088,-3.9423,-3.9841,-4.0944,-4.2886,-4.5626,0.0,0.0,-5.2582,-5.4246,-5.6723,-5.8739,-5.9157,-6.2042,-6.4619,-6.5299,-6.6751,-6.7736,-6.7506,-6.7405,-6.7148,-6.6482,-6.6504,-6.6856,-6.7555,-6.7594,-6.7595,-6.7687,-6.7614,-6.7595,-6.7687,-6.7687,-6.7687,-6.7687,-6.6916,-6.6843,-6.754,-6.6512,-6.6723,-6.8137,-6.7964,-6.7839,-6.7726,-6.746,-6.6959,-6.6237,-6.5942,-6.5853,-6.5897,-6.5897,-6.5145,-6.3894,-6.3051,-6.2104,-6.1126,-6.0936,-6.088,-6.0713,-5.9794,-5.9477,-5.9458,-5.9443,-5.9389,-5.9319,-5.8894,-5.8735,-5.8632,-5.8213,-5.8024,-5.7997,-5.7997,-5.7997,-5.7997,-5.7997,-5.7923,-5.7886,-5.7978,-5.785,-5.7556,-5.6932,-5.6657,-5.6308,-5.5574,-5.5372,-5.484,-5.3427,-5.3133,-5.2821,-5.2087,-5.183,-5.1169,-4.9738,-4.9499,-4.882,-4.7241,-4.5553,-4.458,-4.458,-4.3736,-4.3296,-4.3479,-4.3406,-4.3406,-4.3497,-4.3497,-4.3497,-4.3497,-4.3497,-4.3497,-4.3497,-4.3497,-4.3497,-4.3432,-4.3451,-4.3835,0.0,-4.6908,-5.0196,-5.2234,-5.4051,-5.6084,-5.8924,-6.1006,-6.2882,-6.4558,-6.6277,-6.7654,0.0,-6.8535,-6.8631,-6.8439,-6.7595,-6.6531,-6.5246,-6.5099,-6.5595,-6.688,-6.699,-6.7192,-6.765,-6.7265,-6.721,-6.765,-6.7247,-6.721,-6.7687,-6.7357,-6.7513,-6.8179,-6.7699,-6.7987,-6.8978,-6.919,-6.8996,-6.8503,-6.8712,-6.81,-6.6758,-6.6173,-6.5736,-6.5446,-6.5446,-6.4634,-6.3296,-6.22,-6.1168,-6.0266,-6.0035,-5.9952,-5.9845,-5.9197,-5.8971,-5.8951,-5.8654,-5.8591,-5.8568,-5.8351,-5.8264,-5.8238,-5.807,-5.7997,-5.7997,-5.7997,-5.7997,-5.7997,-5.7997,-5.7997,-5.7997,-5.7997,-5.7997,-5.7905,-5.7556,-5.7134,-5.6693,-5.6363,-5.5519,-5.4675,-5.4014,-5.3904,-5.361,-5.2803,-5.2289,-5.1371,-4.9756,-4.9132,-4.8379,-4.7223,-4.6489,-4.5718,-4.4764,-4.4378,-4.3993,-4.3516,-4.3497,-4.3497,-4.3497,-4.3497,-4.3497,-4.3497,-4.3497,-4.3497,-4.3497,-4.3497,-4.3497,-4.4635,0.0,0.0,-4.7241,-5.093,-5.4656,-5.5097,-5.7244,-6.0047,-6.316,-6.4463,-6.5731,-6.7815,-6.8428,-6.877,-6.9339,-6.8953,-6.8568,-6.8568,-6.7192,-6.5485,-6.3613,-6.3209,-6.3539,-6.4695,-6.543,-6.6072,-6.6641,-6.6366,-6.6512,-6.732,-6.6604,-6.6728,-6.7912,-6.7727,-6.7957,-6.8686,-6.8866,-6.9035,-6.9152,-6.9946,-6.9891,-6.9068,-6.9241,-6.8398,-6.6724,-6.5985,-6.5446,-6.5099,-6.4952,-6.4114,-6.2785,-6.1678,-6.0646,-5.9725,-5.9365,-5.9231,-5.9158,-5.8796,-5.8694,-5.8613,-5.8307,-5.8115,-5.7997,-5.7997,-5.7997,-5.7997,-5.7997,-5.7997,-5.7997,-5.7997,-5.7997,-5.7997,-5.7997,-5.7997,-5.7997,-5.7997,-5.7997,-5.7997,-5.7997,-5.7538,-5.7134,-5.7134,-5.6161,-5.5244,-5.4803,-5.473,-5.4363,-5.3335,-5.2509,-5.1463,-5.0068,-4.9169,-4.8324,-4.7517,-4.7241,-4.6617,-4.5461,-4.4966,-4.4452,-4.3864,-4.3608,-4.3497,-4.3497,-4.3497,-4.3497,-4.3497,-4.3497,-4.3497,-4.3497,-4.3497,-4.3497,0.0,0.0,-4.7682,-5.0068,-5.4289,-5.8253,-5.9832,-6.2713,-6.5521,-6.7208,-6.7594,-6.7595,-6.7722,-6.7705,-6.7724,-6.776,-6.7742,-6.7724,-6.7724,-6.6347,-6.4439,-6.1961,-6.0988,-6.0529,0.0,-6.275,-6.4163,-6.42,-6.4916,-6.5705,-6.6494,-6.5778,-6.6307,-6.8408,-6.7701,-6.7946,-6.9253,-6.9775,-6.9641,-6.8822,-7.022,-7.0448,-6.9621,-6.8821,-6.7513,-6.5891,-6.534,-6.513,-6.5048,-6.459,-6.3629,-6.2332,-6.1531,-6.0381,-5.9191,-5.8865,-5.8735,-5.8735,-5.8694,-5.8694,-5.8694,-5.8694,-5.8375,-5.7997,-5.7997,-5.7997,-5.7997,-5.7997,-5.7997,-5.7997,-5.7997,-5.7997,-5.7997,-5.7997,-5.7997,-5.7997,-5.7997,-5.7997,-5.7997,-5.7997,-5.7978,-5.796,-5.796,-5.7923,-5.7354,-5.5794,-5.5556,-5.4987,-5.3408,-5.2509,-5.1665,-5.0857,-5.0031,-4.9205,-4.8343,-4.7572,-4.7095,-4.704,-4.5571,-4.4709,-4.4672,-4.3901,-4.3497,-4.3497,-4.3497,-4.3497,-4.3497,-4.3497,-4.3497,-4.3497,-4.3497,-4.3497,-4.4452,0.0,-5.1059,-5.4051,-5.7611,-6.0951,-6.3154,-6.5338,-6.7045,-6.7577,-6.6843,-6.5944,-6.5393,-6.4842,-6.4457,-6.4457,-6.5393,-6.5925,-6.5375,-6.4842,-6.3191,-5.963,-5.9905,0.0,0.0,0.0,0.0,-6.3172,-6.3503,-6.4162,-6.529,-6.5133,-6.5709,-6.7326,-6.7649,-6.7895,-6.8161,-6.9455,-6.9559,-6.8532,-6.9017,-6.9398,-6.9648,-6.8205,-6.7225,-6.6622,-6.555,-6.4919,-6.4609,-6.4059,-6.3084,-6.18,-6.0988,-6.0075,-5.9116,-5.8481,-5.8418,-5.8694,-5.8694,-5.8484,-5.8257,-5.8257,-5.8142,-5.7997,-5.7997,-5.7997,-5.7997,-5.7997,-5.7997,-5.7997,-5.7997,-5.7997,-5.7997,-5.7997,-5.7997,-5.7997,-5.7997,-5.7997,-5.7997,-5.7997,-5.7997,-5.7997,-5.7997,-5.7556,-5.6657,-5.5042,-5.4344,-5.3812,-5.328,-5.2509,-5.1885,-5.1628,-5.038,-4.9462,-4.9187,-4.8379,-4.7682,-4.715,-4.6599,-4.5828,-4.4745,-4.4452,-4.4048,-4.3497,-4.3497,-4.3497,-4.3497,-4.3497,-4.3497,-4.3497,-4.3497,-4.3497,-4.7847,-5.1444,-5.4913,-5.8143,-6.1172,-6.3759,-6.5375,-6.6531,-6.71,-6.6512,-6.4879,-6.3135,-6.1741,-6.0566,-5.9905,-6.0181,-6.1374,-6.2383,-6.2732,-6.253,-6.1374,-5.8749,-5.9098,-5.8621,0.0,0.0,0.0,-6.1429,-6.2053,-6.297,-6.4294,-6.4394,-6.5338,-6.7467,-6.7751,-6.8139,-6.8774,-6.9846,-6.9853,-6.8859,-6.8225,-6.8225,-6.8725,-6.7437,-6.6671,-6.6317,-6.5095,-6.4388,-6.4078,-6.3524,-6.2659,-6.152,-6.0713,-5.9924,-5.9116,-5.8463,-5.8351,-5.8484,-5.8632,-5.8484,-5.8238,-5.8238,-5.8142,-5.7997,-5.7997,-5.7997,-5.7997,-5.7997,-5.7997,-5.7997,-5.7997,-5.7997,-5.7997,-5.7997,-5.7997,-5.7997,-5.7997,-5.7997,-5.7997,-5.7997,-5.7997,-5.7997,-5.7997,-5.7336,-5.6363,-5.5023,-5.4142,-5.3537,-5.3243,-5.2747,-5.2307,-5.2013,-5.1059,-5.0196,-4.9627,-4.9077,-4.8474,-4.7794,-4.748,-4.6775,-4.5574,-4.5127,-4.4509,-4.3679,-4.3563,-4.3497,-4.3497,-4.3497,-4.3497,-4.3497,-4.3497,-4.3497,-5.1279,-5.5115,-5.8933,-6.2089,-6.4677,-6.6439,-6.6439,-6.6366,-6.5815,-6.4071,-6.1722,-5.9208,0.0,0.0,-5.4399,-5.5152,-5.6216,-5.7721,-5.996,-5.9777,-5.9336,0.0,0.0,0.0,0.0,0.0,0.0,-5.9255,0.0,-6.2187,-6.36,-6.3656,-6.5248,-6.8665,-6.803,-6.8633,-7.0687,-7.0667,-7.0302,-6.961,-6.7859,-6.7051,-6.7064,-6.6563,-6.5881,-6.5016,-6.4019,-6.3612,-6.3568,-6.3014,-6.2328,-6.152,-6.0713,-5.9924,-5.9145,-5.88,-5.8375,-5.807,-5.8526,-5.8654,-5.8654,-5.8654,-5.8332,-5.7997,-5.7997,-5.7997,-5.7997,-5.7997,-5.7997,-5.7997,-5.7997,-5.7997,-5.7997,-5.7997,-5.7997,-5.7997,-5.7997,-5.7997,-5.7997,-5.7997,-5.7997,-5.7997,-5.7997,-5.7373,-5.6602,-5.5776,-5.5005,-5.4197,-5.3316,-5.3206,-5.2913,-5.2142,-5.2013,-5.1353,-4.9774,-4.9609,-4.9399,-4.8919,-4.817,-4.7523,-4.6996,-4.5937,-4.4922,-4.4004,-4.3679,-4.3497,-4.3497,-4.3497,-4.3497,-4.3497,-4.3497,-4.3497,-5.3794,-5.7611,-6.1172,-6.3246,-6.4695,-6.5613,-6.5613,-6.464,-6.2787,-5.9373,-5.6253,-5.3023,0.0,0.0,0.0,-5.1077,-5.5335,0.0,-5.8602,-6.0511,0.0,-5.8584,0.0,-6.0126,-5.8731,-5.9656,0.0,0.0,-6.0702,-6.1886,-6.4639,-6.4407,-6.5533,-6.8407,-6.8301,-6.8164,-6.8071,-6.7475,-6.7705,-6.8725,-6.7013,-6.6343,-6.6552,-6.5791,-6.5128,-6.4518,-6.3873,-6.3612,-6.3568,-6.3014,-6.2328,-6.152,-6.0713,-5.9924,-5.9116,-5.8436,-5.8097,-5.8042,-5.8142,-5.8168,-5.8168,-5.8168,-5.8115,-5.7997,-5.7997,-5.7997,-5.7997,-5.7997,-5.7997,-5.7997,-5.7997,-5.7997,-5.7997,-5.7997,-5.7997,-5.7997,-5.7997,-5.7997,-5.7997,-5.7997,-5.7997,-5.7997,-5.7997,-5.7831,-5.7428,-5.662,-5.6326,-5.5464,-5.3463,-5.3206,-5.3133,-5.2931,-5.2362,-5.1591,-5.0582,-4.9921,-4.9399,-4.8919,-4.871,-4.7993,-4.6681,-4.6346,-4.5393,-4.3682,-4.3548,-4.3497,-4.3497,-4.3497,-4.3497,-4.3497,-4.3497,-4.3497,-5.7978,-6.119,-6.398,-6.4916,-6.5228,-6.4842,-6.3044,-6.1355,-5.8731,-5.361,-5.0545,0.0,-4.3938,0.0,0.0,0.0,0.0,0.0,-5.7299,-5.9336,-6.0291,0.0,-6.0748,0.0,-6.0211,-6.1274,-6.2125,0.0,-6.1905,-6.248,-6.4527,-6.5057,-6.6058,-6.7775,-6.8571,-6.8744,-6.8244,-6.7032,-6.68,-6.7496,-6.6174,-6.5528,-6.5486,-6.4762,-6.4294,-6.4037,0.0,-6.3262,-6.3178,-6.2549,-6.1796,-6.0988,-6.0199,-5.9391,-5.8621,-5.8162,-5.7997,-5.7997,-5.7997,-5.7997,-5.7997,-5.7997,-5.7997,-5.7997,-5.7997,-5.7997,-5.7997,-5.7997,-5.7997,-5.7997,-5.7997,-5.7997,-5.7997,-5.7997,-5.7997,-5.7997,-5.7997,-5.7997,-5.7997,-5.7997,-5.7997,-5.7997,-5.7997,-5.7997,-5.7721,-5.6932,-5.6804,-5.6069,-5.3995,-5.3739,-5.3592,-5.3243,-5.2803,-5.2068,-5.0912,-5.0503,-4.9935,-4.8971,-4.9075,-4.8421,-4.6802,-4.6582,-4.5616,-4.3763,-4.3563,-4.3497,-4.3497,-4.3497,-4.3497,-4.3497,-4.3497,-4.3497,-6.2218,-6.453,-6.6347,-6.6347,-6.5576,-6.3778,-5.9813,-5.7317,-5.4069,-4.7774,0.0,-4.2947,-3.9827,-4.0744,-4.2818,-4.5333,0.0,-5.2215,-5.6235,-5.7593,-5.8676,-6.007,-6.1511,-6.2146,-6.1437,-6.2598,-6.3543,-6.4012,-6.3698,-6.3759,-6.4447,-6.5703,-6.6659,-6.7263,-6.8556,-6.9286,-6.936,-6.7626,-6.6567,-6.6224,-6.5378,-6.4765,-6.4274,-6.3808,-6.3568,-6.3453,-6.3014,0.0,-6.2768,-6.2053,-6.1227,-6.0346,-5.9648,-5.8804,-5.7997,-5.7997,-5.807,-5.8143,-5.8033,-5.807,-5.8143,-5.8033,-5.7997,-5.7997,-5.7997,-5.807,-5.8143,-5.8033,-5.807,-5.8125,-5.8033,-5.7997,-5.7997,-5.7997,-5.7997,-5.7997,-5.7997,-5.7997,-5.7997,-5.7997,-5.7997,-5.7997,-5.7997,-5.7997,-5.7758,-5.706,-5.6877,-5.6271,-5.4748,-5.4473,-5.4087,-5.3298,-5.3206,-5.2601,-5.1096,-5.1119,-5.0598,-4.9157,-4.929,-4.8719,-4.7156,-4.6731,-4.5749,-4.411,-4.3701,-4.3497,-4.3497,-4.3497,-4.3497,-4.3497,-4.3497,-4.3497,-6.2511,-6.4145,-6.5521,-6.5521,-6.387,-6.1355,-5.7997,-5.3904,0.0,0.0,-4.1332,-3.8946,-3.6311,-3.8303,-4.1313,-4.4415,0.0,0.0,0.0,0.0,-5.9116,0.0,0.0,0.0,0.0,0.0,0.0,0.0,0.0,-6.6047,-6.7549,-6.6831,-6.6946,-6.8121,-6.738,-6.715,-6.7552,-6.5792,-6.5027,-6.5309,-6.4772,-6.4274,-6.3723,-6.3656,-6.3381,-6.2935,-6.2855,0.0,-6.2805,-6.2658,-6.1741,-6.0401,-6.0254,-5.93,-5.7997,-5.7997,-5.8419,-5.8914,-5.8235,-5.8437,-5.8896,-5.8217,-5.7997,-5.7997,-5.7997,-5.8455,-5.8859,-5.8198,-5.8492,-5.8859,-5.8162,-5.7997,-5.7997,-5.7997,-5.7997,-5.7997,-5.7997,-5.7997,-5.7997,-5.7997,-5.7997,-5.7997,-5.7997,-5.7997,-5.7941,-5.7813,-5.7226,-5.6455,-5.55,-5.4803,-5.4087,-5.3298,-5.3206,-5.2821,-5.1867,-5.1231,-5.0618,-4.9942,-4.9336,-4.86,-4.7628,-4.6874,-4.59,-4.4593,-4.3862,-4.3497,-4.3497,-4.3497,-4.3497,-4.3497,-4.3497,-4.3497,-6.2713,-6.4035,-6.5099,-6.4237,-6.2163,-5.9079,-5.4161,0.0,0.0,0.0,-3.79,-3.6285,-3.4688,0.0,0.0,0.0,0.0,0.0,0.0,0.0,0.0,0.0,0.0,0.0,0.0,0.0,0.0,0.0,0.0,-6.6244,-6.7051,-6.6488,-6.6892,-6.8616,-6.677,-6.5919,-6.6338,-6.5042,-6.437,-6.4313,-6.4099,-6.368,-6.3168,-6.3168,-6.3044,-6.2805,-6.2805,0.0,-6.2787,-6.2346,-6.1484,-6.0364,-5.9942,-5.9061,-5.8052,-5.8474,-5.8877,-5.9208,-5.9245,-5.9245,-5.9153,-5.8767,-5.8345,-5.807,-5.851,-5.8896,-5.9134,-5.8749,-5.8914,-5.9024,-5.8217,-5.7997,-5.7997,-5.7997,-5.7997,-5.7997,-5.7997,-5.7997,-5.7997,-5.7997,-5.7997,-5.7997,-5.7997,-5.7997,-5.7997,-5.7997,-5.7666,-5.6987,-5.5757,-5.5244,-5.4564,-5.3335,-5.3206,-5.2876,-5.2068,-5.1427,-5.0712,-4.988,-4.9243,-4.8441,-4.7439,-4.7032,-4.6354,-4.5333,-4.4525,-4.4121,-4.4121,-4.3699,-4.3497,-4.3497,-4.3497,-4.3497,-6.2456,-6.3631,-6.4457,-6.3135,-6.0603,-5.684,-5.071,-4.6526,0.0,0.0,-3.5349,-3.4559,-3.3917,0.0,-3.7331,0.0,0.0,0.0,0.0,0.0,0.0,0.0,0.0,0.0,0.0,0.0,0.0,0.0,0.0,0.0,-6.6147,-6.605,-6.673,-6.8297,-6.6041,-6.4964,-6.5351,-6.4498,-6.3915,-6.3612,-6.3498,-6.3215,-6.2805,-6.2805,-6.2805,-6.2805,-6.2622,0.0,0.0,-6.1667,-6.0878,-6.0089,-5.9465,-5.8822,-5.8327,-5.8988,-5.9428,-5.9795,-6.0254,-6.0107,-5.9703,-5.952,-5.8804,-5.8143,-5.8969,-5.9336,-5.9483,-5.9483,-5.9593,-5.9501,-5.851,-5.8253,-5.8217,-5.8033,-5.7997,-5.7997,-5.7997,-5.7997,-5.7997,-5.7997,-5.7997,-5.7997,-5.7997,-5.7997,-5.7997,-5.7997,-5.785,-5.7226,-5.5776,-5.5445,-5.4785,-5.3353,-5.3206,-5.2949,-5.2307,-5.1765,-5.099,-4.9924,-4.9344,-4.8547,-4.7407,-4.7205,-4.6819,-4.6177,-4.5204,-4.4709,-4.4709,-4.3883,-4.3497,-4.3497,-4.3497,-4.3497,-6.13,-6.2365,-6.3007,-6.286,-5.9336,-5.4601,-4.9572,0.0,0.0,-3.5981,-3.4486,-3.3899,-3.3807,-3.399,0.0,0.0,0.0,0.0,0.0,0.0,0.0,0.0,0.0,0.0,0.0,0.0,0.0,0.0,0.0,0.0,-6.6936,-6.6595,-6.6428,-6.6605,-6.4764,-6.3994,-6.4502,-6.3472,-6.3168,-6.3612,-6.3091,-6.2855,-6.2805,-6.2805,-6.2805,-6.2768,-6.2034,0.0,0.0,-6.0841,-6.0052,-5.9318,-5.9245,-5.9171,-5.9116,-5.9189,-6.0126,-6.1282,-6.0639,-6.0823,-6.1263,-6.0529,-5.9245,-5.8143,-5.8969,-5.9722,-6.0291,-6.0291,-6.0823,-6.1025,-5.9501,-5.9098,-5.8914,-5.8162,-5.7997,-5.7997,-5.7997,-5.7997,-5.7997,-5.7997,-5.7997,-5.7997,-5.7997,-5.7997,-5.7997,-5.7997,-5.7373,-5.6602,-5.5702,-5.495,-5.4179,-5.3298,-5.3206,-5.3188,-5.3115,-5.2385,-5.1559,-5.0729,-4.9942,-4.9154,-4.8233,-4.7498,-4.7095,-4.7003,-4.5498,-4.4709,-4.4709,-4.3883,-4.3497,-4.3497,-4.3497,-4.3497,-5.8015,-6.0364,-6.1851,-6.0896,-5.774,-5.3592,-4.871,0.0,-3.935,-3.5724,-3.4376,-3.3807,-3.3807,-3.3807,-3.4291,0.0,0.0,0.0,0.0,0.0,0.0,0.0,0.0,0.0,0.0,0.0,0.0,0.0,0.0,0.0,-6.5877,-6.5708,-6.5593,-6.5498,-6.4281,-6.3524,-6.3453,-6.2995,-6.2886,-6.3139,-6.2886,-6.2805,-6.2805,-6.2805,-6.2805,-6.2768,-6.1942,0.0,0.0,-6.1447,-6.0933,-6.0639,-6.0639,-6.0346,-5.9924,-5.9924,-6.0346,-6.0823,-6.0511,-6.0291,-6.0181,-6.0346,-5.9648,-5.8969,-6.0254,-6.0529,-6.0511,-6.0988,-6.1355,-6.1337,-6.0217,-5.9575,-5.9006,-5.8198,-5.7997,-5.7997,-5.7997,-5.7997,-5.7997,-5.7997,-5.7997,-5.7997,-5.7997,-5.7997,-5.7997,-5.7997,-5.7721,-5.7226,-5.6436,-5.5611,-5.4803,-5.4014,-5.35,-5.3206,-5.3206,-5.2454,-5.1848,-5.1536,-5.0288,-4.9646,-4.9811,-4.8545,-4.8086,-4.8581,-4.6985,-4.592,-4.5424,-4.4617,-4.3975,-4.3497,-4.3497,-4.3497,-5.3867,-5.7189,-5.9612,-5.8712,-5.5519,-5.1518,0.0,0.0,-3.7661,-3.4862,-3.366,-3.3164,-3.3403,-3.3458,-3.36,0.0,0.0,0.0,0.0,0.0,0.0,0.0,0.0,0.0,0.0,0.0,0.0,0.0,0.0,0.0,-6.4677,-6.4661,-6.4615,-6.4513,-6.3769,-6.3168,-6.2805,-6.2805,-6.2805,-6.2805,-6.2805,-6.2805,-6.2805,-6.2805,-6.2805,-6.2768,-6.1942,0.0,0.0,-6.1318,-6.0896,-6.086,-6.0621,-6.0474,-6.0382,-6.0144,-6.0346,-6.0731,-6.0493,-6.0034,-5.9667,-6.0236,-5.9869,-5.9483,-6.0823,-6.1025,-6.0915,-6.1722,-6.1612,-6.1117,-6.0548,-5.963,-5.8712,-5.8125,-5.7997,-5.7997,-5.7997,-5.7997,-5.7997,-5.7997,-5.7997,-5.7997,-5.7997,-5.7997,-5.7997,-5.7997,-5.7997,-5.7703,-5.6914,-5.6106,-5.528,-5.4491,-5.3683,-5.3206,-5.3206,-5.2674,-5.2252,-5.2013,-5.093,-5.0343,-5.0435,-4.9536,-4.9095,-4.9205,-4.8067,-4.6948,-4.5902,-4.5333,-4.4525,-4.3497,-4.3736,-4.3718,-4.8985,-5.2601,-5.5849,-5.6638,-5.2564,-4.7719,0.0,0.0,-3.4587,-3.2963,-3.1971,-3.1659,-3.2485,-3.2614,-3.2956,-3.4041,0.0,0.0,0.0,0.0,0.0,0.0,0.0,0.0,0.0,0.0,0.0,0.0,0.0,0.0,-6.3699,-6.3612,-6.3612,-6.3631,-6.3091,-6.2823,-6.2805,-6.2805,-6.2805,-6.2805,-6.2805,-6.2805,-6.2805,-6.2805,-6.2805,-6.2768,0.0,0.0,0.0,-5.9905,-5.9245,-5.9171,-5.8345,-5.9006,-6.0309,-5.952,-6.0236,-6.1465,-6.0676,-6.0401,-6.0401,-6.0401,-5.9869,-5.9373,-6.0181,-6.097,-6.1759,-6.2567,-6.1649,-6.0419,-6.0401,-5.9208,-5.7997,-5.7997,-5.7997,-5.7997,-5.7997,-5.7997,-5.7997,-5.7997,-5.7997,-5.7997,-5.7997,-5.7997,-5.7997,-5.7997,-5.7997,-5.7703,-5.6914,-5.6106,-5.528,-5.4491,-5.3683,-5.3206,-5.3206,-5.3206,-5.2858,-5.205,-5.1977,-5.1242,-4.9664,-5.0362,-4.9994,-4.8361,-4.8306,-4.7498,-4.5902,-4.5883,-4.5057,-4.3516,-4.4323,-4.4268,-4.2983,-4.6324,-4.8765,-4.7921,-4.6342,-4.4085,-4.0579,0.0,-3.4385,-3.2228,-3.2008,-3.2137,-3.1825,-3.2687,-3.3582,-3.4134,-3.6297,0.0,0.0,0.0,0.0,0.0,0.0,0.0,0.0,0.0,0.0,0.0,0.0,0.0,-6.3575,-6.2725,-6.2472,-6.3044,-6.2886,-6.2548,-6.1998,-6.1979,-6.1704,-6.1172,-6.1172,-6.1447,-6.1979,-6.1979,-6.2291,0.0,0.0,0.0,0.0,-6.0107,-5.9869,-6.0768,-5.996,-5.996,-6.0309,-5.952,-5.9538,-5.985,-5.9043,-5.8749,-5.8859,-5.941,-5.9428,-5.9373,-6.0162,-6.0584,-6.0951,-6.1759,-6.1612,-6.097,-5.9887,-5.9208,-5.8694,-5.8125,-5.7997,-5.7997,-5.7997,-5.7997,-5.7997,-5.7997,-5.7997,-5.7997,-5.7997,-5.7997,-5.7997,-5.7997,-5.7997,-5.7905,-5.7648,-5.6436,-5.5482,-5.5244,-5.4014,-5.3206,-5.3206,-5.3206,-5.3096,-5.2839,-5.2307,-5.2013,-5.2068,-5.071,-4.9976,-5.0013,-4.8893,-4.7792,-4.6728,-4.6177,-4.5351,-4.4342,-4.5149,-4.5094,0.0,-4.1167,-4.3461,-4.2763,-4.168,0.0,0.0,0.0,-3.2779,-3.1256,-3.1188,-3.1334,-3.1131,-3.1982,-3.2953,-3.3773,-3.5769,0.0,0.0,0.0,0.0,0.0,0.0,0.0,0.0,0.0,0.0,0.0,0.0,0.0,-6.239,-6.1614,-6.1374,-6.1887,-6.1906,-6.1649,-6.1153,-6.1153,-6.0896,-6.0401,-6.0401,-6.0823,-6.1575,-6.1282,-6.1759,0.0,0.0,0.0,0.0,-6.086,-6.0529,-6.1062,-6.0272,-5.996,-5.985,-5.9043,-5.8951,-5.9098,-5.829,-5.7997,-5.807,-5.8584,-5.8767,-5.8914,-5.9703,-6.0382,-6.097,-6.1447,-6.1374,-6.0915,-5.9924,-5.9208,-5.8621,-5.8125,-5.7997,-5.7997,-5.7997,-5.7997,-5.7997,-5.7997,-5.7997,-5.7997,-5.7997,-5.7997,-5.7997,-5.7997,-5.774,-5.7666,-5.796,-5.6583,-5.5592,-5.5592,-5.4436,-5.3537,-5.3243,-5.3206,-5.3206,-5.3206,-5.2729,-5.2546,-5.2747,-5.1298,-5.0453,-5.0343,-4.9315,-4.8233,-4.7113,-4.6287,-4.581,-4.5626,-4.581,-4.5626,0.0,0.0,0.0,0.0,0.0,0.0,0.0,0.0,0.0,-3.0136,-2.9754,-2.9688,-3.0453,-3.0807,-3.1525,-3.3221,-3.4546,0.0,0.0,0.0,0.0,0.0,0.0,0.0,0.0,0.0,0.0,0.0,0.0,0.0,-6.0449,-6.0346,-6.0309,-6.0309,-6.0272,-6.0272,-6.0309,-6.0309,-6.0291,-6.0236,-6.0236,-6.0676,-6.1484,-6.0676,-6.119,0.0,0.0,0.0,0.0,-6.1814,-6.1043,-6.0254,-5.9501,-5.9189,-5.9043,-5.8272,-5.8474,-5.9024,-5.8253,-5.7997,-5.7997,-5.7997,-5.7997,-5.8143,-5.8896,-6.0199,-6.1429,-6.1429,-6.0896,-6.0309,-6.0236,-5.9116,-5.7997,-5.7997,-5.7997,-5.7997,-5.7997,-5.7997,-5.7997,-5.7997,-5.7997,-5.7997,-5.7997,-5.7997,-5.7997,-5.7997,-5.7373,-5.7171,-5.7905,-5.6638,-5.5684,-5.5684,-5.4913,-5.4106,-5.3353,-5.3243,-5.3206,-5.3206,-5.3206,-5.2839,-5.2013,-5.194,-5.1169,-4.9609,-4.9517,-4.871,-4.7113,-4.6416,-4.6434,-4.7095,-4.6397,-4.603,-2.9182,0.0,-3.2375,-3.1946,-3.221,-3.2228,0.0,0.0,0.0,-2.942,0.0,0.0,-3.0528,-3.1152,-3.2189,-3.4088,-3.6445,-3.865,0.0,0.0,0.0,0.0,0.0,0.0,0.0,0.0,0.0,0.0,0.0,-5.9863,-6.0364,-5.9832,-5.9501,-5.9501,-5.8877,-5.8859,-5.9501,-5.9501,-5.9189,-5.8565,-5.8565,-5.9318,-6.0658,-5.9869,-6.0364,0.0,0.0,0.0,-6.0951,-6.0768,-6.0217,-5.9483,-5.9281,-5.8822,-5.8253,-5.807,-5.8125,-5.8253,-5.807,-5.7997,-5.7997,-5.7997,-5.7997,-5.8033,-5.8217,-5.8988,-5.9777,-5.9777,-5.9648,-5.9355,-5.8731,-5.8272,-5.7997,-5.7997,-5.7997,-5.7997,-5.7997,-5.7997,-5.7997,-5.7997,-5.7997,-5.7997,-5.7997,-5.7997,-5.7997,-5.7997,-5.7831,-5.7795,-5.7978,-5.7134,-5.6528,-5.6528,-5.5244,-5.4326,-5.4124,-5.3555,-5.3206,-5.3206,-5.3206,-5.2839,-5.2013,-5.1408,-5.0582,-4.9536,-4.8912,-4.8122,-4.7113,-4.7535,-4.7535,-4.7131,-4.7553,-4.7425,-2.7695,-2.8705,-2.9549,-2.9104,-2.9659,-3.0081,0.0,0.0,0.0,0.0,0.0,0.0,0.0,0.0,0.0,0.0,-3.7161,0.0,0.0,0.0,0.0,0.0,0.0,0.0,0.0,0.0,0.0,0.0,0.0,-5.8841,-5.9281,-5.8896,-5.8657,-5.8657,-5.8235,-5.8217,-5.8657,-5.8657,-5.8437,-5.7997,-5.7997,-5.8657,-5.9832,-5.9024,-5.9538,0.0,0.0,0.0,-6.0401,-6.0401,-5.9942,-5.9208,-5.9208,-5.8712,-5.7997,-5.7997,-5.7997,-5.7997,-5.7997,-5.7997,-5.7997,-5.7997,-5.7997,-5.7997,-5.7997,-5.8309,-5.8731,-5.9116,-5.9208,-5.9116,-5.8676,-5.829,-5.7997,-5.7997,-5.7997,-5.7997,-5.7997,-5.7997,-5.7997,-5.7997,-5.7997,-5.7997,-5.7997,-5.7997,-5.7997,-5.7997,-5.7685,-5.7574,-5.7941,-5.7299,-5.6804,-5.6804,-5.6033,-5.5207,-5.4454,-5.4014,-5.3592,-5.3225,-5.3206,-5.2839,-5.2013,-5.1573,-5.0765,-4.9517,-4.9095,-4.8489,-4.7664,-4.8104,-4.8086,-4.7682,-4.8104,-4.8086,-2.7236,-2.8209,-2.8957,-2.8847,-2.8902,-2.8957,0.0,0.0,0.0,0.0,0.0,0.0,0.0,0.0,0.0,0.0,0.0,0.0,0.0,0.0,0.0,0.0,0.0,0.0,0.0,0.0,0.0,0.0,0.0,-5.7997,-5.7997,-5.7997,-5.7997,-5.7997,-5.7997,-5.7997,-5.7997,-5.7997,-5.7997,-5.7997,-5.7997,-5.8419,-5.9189,-5.8364,-5.8804,-6.0181,0.0,0.0,-6.0052,-6.0309,-5.985,-5.9043,-5.9171,-5.8712,-5.7997,-5.7997,-5.7997,-5.7997,-5.7997,-5.7997,-5.7997,-5.7997,-5.7997,-5.7997,-5.7997,-5.7997,-5.8143,-5.8822,-5.9024,-5.9024,-5.9024,-5.851,-5.7997,-5.7997,-5.7997,-5.7997,-5.7997,-5.7997,-5.7997,-5.7997,-5.7997,-5.7997,-5.7997,-5.7997,-5.7997,-5.7997,-5.7428,-5.7226,-5.7905,-5.7409,-5.6987,-5.6987,-5.6877,-5.6198,-5.4711,-5.4473,-5.4069,-5.3261,-5.3206,-5.2839,-5.2013,-5.1867,-5.1077,-4.9536,-4.9554,-4.9169,-4.8306,-4.8306,-4.8306,-4.8306,-4.8306,-4.8306,-2.5733,-2.7346,-2.8851,-2.8154,-2.8503,-2.881,0.0,0.0,0.0,0.0,0.0,0.0,0.0,0.0,0.0,0.0,0.0,0.0,0.0,0.0,0.0,0.0,0.0,0.0,0.0,0.0,0.0,0.0,0.0,-5.7997,-5.7997,-5.7997,-5.7997,-5.7997,-5.7997,-5.7997,-5.7997,-5.7997,-5.7997,-5.7997,-5.7997,-5.8419,-5.9189,-5.8364,-5.851,-5.9391,0.0,-5.8896,-5.8474,-5.985,-5.952,-5.8253,-5.8951,-5.8712,-5.7997,-5.7997,-5.7997,-5.7997,-5.7997,-5.7997,-5.7997,-5.7997,-5.7997,-5.7997,-5.7997,-5.7997,-5.8033,-5.8143,-5.818,-5.818,-5.818,-5.8088,-5.7997,-5.7997,-5.7997,-5.7997,-5.7997,-5.7997,-5.7997,-5.7997,-5.7997,-5.7997,-5.7997,-5.7997,-5.7997,-5.7997,-5.7886,-5.785,-5.7978,-5.7886,-5.7813,-5.7813,-5.7207,-5.6418,-5.5482,-5.4785,-5.4069,-5.3261,-5.3206,-5.2839,-5.2013,-5.1353,-5.0527,-4.9591,-4.9572,-4.9169,-4.8306,-4.8306,-4.8306,-4.8306,-4.8306,-4.8306,-2.5403,-2.6521,-2.7732,-2.7769,-2.9053,-3.0081,-2.9274,0.0,0.0,0.0,0.0,0.0,0.0,0.0,0.0,0.0,0.0,0.0,0.0,0.0,0.0,0.0,0.0,0.0,0.0,0.0,0.0,0.0,0.0,0.0,-5.7997,-5.7997,-5.7997,-5.7997,-5.7997,-5.7997,-5.7997,-5.7997,-5.7997,-5.7997,-5.7997,-5.8198,-5.8547,-5.8162,-5.8198,-5.8547,0.0,-5.8345,-5.8052,-5.8804,-5.8676,-5.8033,-5.8419,-5.8327,-5.7997,-5.7997,-5.7997,-5.7997,-5.7997,-5.7997,-5.7997,-5.7997,-5.7997,-5.7997,-5.7997,-5.7997,-5.7997,-5.7997,-5.7997,-5.7997,-5.7997,-5.7997,-5.7997,-5.7997,-5.7997,-5.7997,-5.7997,-5.7997,-5.7997,-5.7997,-5.7997,-5.7997,-5.7997,-5.7997,-5.7997,-5.7997,-5.7997,-5.7997,-5.7997,-5.7997,-5.7997,-5.7997,-5.7666,-5.695,-5.5702,-5.5244,-5.4528,-5.3298,-5.2803,-5.2582,-5.2656,-5.1885,-5.1059,-5.0251,-5.0251,-4.9829,-4.9003,-4.9003,-4.9003,-4.9003,-4.9003,-4.8746,-2.5127,-2.5841,-2.6704,-2.7126,0.0,-3.0577,-3.0723,0.0,0.0,0.0,0.0,0.0,0.0,0.0,0.0,0.0,0.0,0.0,0.0,0.0,0.0,0.0,0.0,0.0,0.0,0.0,0.0,0.0,0.0,0.0,-5.7997,-5.7997,-5.7997,-5.7997,-5.7997,-5.7997,-5.7997,-5.7997,-5.7997,-5.7997,-5.7997,-5.7997,-5.7997,-5.7997,-5.7997,-5.7997,-5.7997,-5.7997,-5.7997,-5.7997,-5.7997,-5.7997,-5.7997,-5.7997,-5.7997,-5.7997,-5.7997,-5.7997,-5.7997,-5.7997,-5.7997,-5.7997,-5.7997,-5.7997,-5.7997,-5.7997,-5.7997,-5.7997,-5.7997,-5.7997,-5.7997,-5.7997,-5.7997,-5.7997,-5.7997,-5.7997,-5.7997,-5.7997,-5.7997,-5.7997,-5.7997,-5.7997,-5.7997,-5.7997,-5.7997,-5.7997,-5.7997,-5.7997,-5.7997,-5.7997,-5.7997,-5.7997,-5.7997,-5.7354,-5.5721,-5.5244,-5.4509,-5.3298,-5.2619,-5.2564,-5.3188,-5.2619,-5.1903,-5.1096,-5.1077,-5.0692,-4.9866,-4.9866,-4.9774,-4.9591,-4.9591,-4.9132,-2.4281,-2.5419,-2.6429,-2.5731,0.0,0.0,-3.177,-3.3054,0.0,0.0,0.0,0.0,0.0,0.0,0.0,0.0,0.0,0.0,0.0,0.0,0.0,0.0,0.0,0.0,0.0,0.0,0.0,0.0,0.0,0.0,-5.7997,-5.7997,-5.7997,-5.7997,-5.7997,-5.7997,-5.7997,-5.7997,-5.7997,-5.7997,-5.7997,-5.7997,-5.7997,-5.7997,-5.7997,-5.7997,-5.7997,-5.7997,-5.7997,-5.7997,-5.7997,-5.7997,-5.7997,-5.7997,-5.7997,-5.7997,-5.7997,-5.7997,-5.7997,-5.7997,-5.7997,-5.7997,-5.7997,-5.7997,-5.7997,-5.7997,-5.7997,-5.7997,-5.7997,-5.7997,-5.7997,-5.7997,-5.7997,-5.7997,-5.7997,-5.7997,-5.7997,-5.7997,-5.7997,-5.7997,-5.7997,-5.7997,-5.7997,-5.7997,-5.7997,-5.7997,-5.7997,-5.7997,-5.7997,-5.7997,-5.7997,-5.7997,-5.7997,-5.7354,-5.5721,-5.4234,-5.3335,-5.3225,-5.317,-5.3151,-5.3206,-5.3151,-5.2747,-5.1922,-5.1903,-5.1518,-5.071,-5.071,-5.0325,-4.9591,-4.9591,-4.9132,-2.419,-2.5364,-2.6539,-2.6227,0.0,0.0,0.0,0.0,0.0,0.0,0.0,0.0,0.0,0.0,0.0,0.0,0.0,0.0,0.0,0.0,0.0,0.0,0.0,0.0,0.0,0.0,0.0,0.0,0.0,0.0,-5.7997,-5.7997,-5.7997,-5.7997,-5.7997,-5.7758,-5.7262,-5.7262,-5.7262,-5.7262,-5.7758,-5.7997,-5.7997,-5.7997,-5.7997,-5.7997,-5.7997,-5.7997,-5.7997,-5.7997,-5.7997,-5.7997,-5.7997,-5.7997,-5.7997,-5.7997,-5.7997,-5.7997,-5.7997,-5.7997,-5.7997,-5.7997,-5.7997,-5.7997,-5.7997,-5.7997,-5.7997,-5.7997,-5.7997,-5.7997,-5.7997,-5.7997,-5.7997,-5.7997,-5.7997,-5.7997,-5.7997,-5.7997,-5.7997,-5.7997,-5.7997,-5.7997,-5.7997,-5.7997,-5.7997,-5.7997,-5.7997,-5.7997,-5.7997,-5.7997,-5.7997,-5.7997,-5.7097,-5.6051,-5.495,-5.3849,-5.3206,-5.3206,-5.3206,-5.3206,-5.3206,-5.3206,-5.2821,-5.2013,-5.1499,-5.1353,-5.1536,-5.0527,-5.0141,-5.0325,-4.9811,-4.9132,-2.419,-2.4997,-2.597,0.0,0.0,0.0,0.0,0.0,0.0,0.0,0.0,0.0,0.0,0.0,0.0,0.0,0.0,0.0,0.0,0.0,0.0,0.0,0.0,0.0,0.0,0.0,0.0,0.0,0.0,0.0,0.0,-5.7244,-5.7244,-5.7244,-5.7244,-5.6969,-5.6436,-5.6418,-5.6418,-5.6436,-5.6969,-5.7501,-5.7997,-5.7997,-5.7997,-5.7997,-5.7721,-5.7776,-5.7978,-5.7721,-5.7776,-5.796,-5.7721,-5.7776,-5.7997,-5.7997,-5.7997,-5.7997,-5.7997,-5.7997,-5.7997,-5.7997,-5.7997,-5.7997,-5.7997,-5.7997,-5.7997,-5.7997,-5.7997,-5.7997,-5.7997,-5.7997,-5.7997,-5.7997,-5.7997,-5.7997,-5.7997,-5.7997,-5.7997,-5.7997,-5.7997,-5.7997,-5.7997,-5.7997,-5.7997,-5.7997,-5.7997,-5.7997,-5.7997,-5.7997,-5.7905,-5.7648,-5.64,-5.5262,-5.4473,-5.3665,-5.3206,-5.3206,-5.3206,-5.3206,-5.3206,-5.3206,-5.2949,-5.238,-5.1848,-5.183,-5.238,-5.1004,-5.0508,-5.0784,-4.9958,-4.926,-2.419,-2.4208,-2.4612,0.0,0.0,0.0,0.0,0.0,0.0,0.0,0.0,0.0,0.0,0.0,0.0,0.0,0.0,0.0,0.0,0.0,0.0,0.0,0.0,0.0,0.0,0.0,0.0,0.0,0.0,0.0,0.0,-5.5592,-5.5592,-5.5592,-5.5592,-5.5592,-5.5574,-5.5574,-5.5574,-5.5574,-5.5574,-5.6418,-5.7978,-5.7978,-5.7978,-5.7923,-5.7134,-5.7244,-5.7923,-5.7116,-5.7262,-5.7905,-5.7116,-5.7299,-5.7997,-5.7997,-5.7997,-5.7997,-5.7997,-5.7978,-5.7978,-5.7997,-5.7997,-5.7997,-5.7997,-5.7997,-5.7997,-5.7997,-5.7997,-5.7997,-5.7997,-5.7997,-5.7997,-5.7997,-5.7997,-5.7997,-5.7997,-5.7997,-5.7997,-5.7997,-5.7997,-5.7997,-5.7997,-5.7997,-5.7997,-5.7997,-5.7997,-5.7997,-5.7997,-5.7997,-5.7685,-5.6895,-5.6088,-5.528,-5.4473,-5.3683,-5.3225,-5.3225,-5.3206,-5.3206,-5.3206,-5.3206,-5.3206,-5.3206,-5.3206,-5.3206,-5.3206,-5.2362,-5.1555,-5.0765,-4.9958,-4.9572,-2.419,-2.5034,0.0,0.0,0.0,0.0,0.0,0.0,0.0,0.0,0.0,0.0,0.0,0.0,0.0,0.0,0.0,0.0,0.0,0.0,0.0,0.0,0.0,0.0,0.0,0.0,0.0,0.0,0.0,0.0,0.0,-5.5592,-5.5592,-5.5592,-5.5592,-5.5317,-5.4748,-5.4748,-5.4748,-5.4748,-5.4748,-5.5299,-5.6308,-5.6308,-5.6308,-5.629,-5.6051,-5.6088,-5.629,-5.6051,-5.6418,-5.7134,-5.6895,-5.7299,-5.7997,-5.7997,-5.7648,-5.7171,-5.7171,-5.6785,-5.64,-5.6969,-5.7171,-5.7262,-5.7831,-5.7997,-5.7997,-5.7997,-5.7997,-5.7997,-5.7997,-5.7997,-5.7997,-5.7997,-5.7997,-5.7997,-5.7997,-5.7997,-5.7997,-5.7997,-5.7997,-5.7997,-5.7997,-5.7997,-5.7997,-5.7997,-5.7997,-5.7997,-5.7997,-5.7997,-5.7685,-5.6895,-5.6602,-5.6124,-5.5299,-5.4509,-5.4051,-5.4051,-5.3518,-5.3206,-5.3206,-5.3206,-5.3206,-5.3206,-5.2637,-5.2362,-5.2344,-5.0967,-5.0178,-4.9921,-4.9077,-4.9003,-2.4575,0.0,0.0,0.0,0.0,0.0,0.0,0.0,0.0,0.0,0.0,0.0,0.0,0.0,0.0,0.0,0.0,0.0,0.0,0.0,0.0,0.0,0.0,0.0,0.0,0.0,0.0,0.0,0.0,0.0,0.0,-5.4638,-5.4638,-5.4638,-5.4638,-5.4418,-5.394,-5.3922,-5.3922,-5.3922,-5.3922,-5.4179,-5.4675,-5.5299,-5.5592,-5.5592,-5.5592,-5.5409,-5.5115,-5.5115,-5.5592,-5.629,-5.5978,-5.6345,-5.7042,-5.7042,-5.673,-5.6326,-5.6326,-5.5996,-5.5666,-5.6161,-5.6326,-5.6473,-5.7281,-5.7519,-5.7593,-5.7905,-5.7997,-5.7997,-5.7997,-5.7997,-5.7997,-5.7997,-5.7997,-5.7997,-5.7997,-5.7997,-5.7997,-5.7997,-5.7997,-5.7997,-5.7997,-5.7997,-5.7997,-5.7997,-5.7997,-5.7997,-5.7997,-5.7997,-5.7574,-5.6436,-5.6326,-5.5868,-5.473,-5.4197,-5.3922,-5.3922,-5.3482,-5.3206,-5.3206,-5.3206,-5.3206,-5.3206,-5.2729,-5.2472,-5.2472,-5.1169,-5.038,-5.005,-4.9205,-4.9095,0.0,0.0,0.0,0.0,0.0,0.0,0.0,0.0,0.0,0.0,0.0,0.0,0.0,0.0,0.0,0.0,0.0,0.0,0.0,0.0,0.0,0.0,0.0,0.0,0.0,0.0,0.0,0.0,0.0,0.0,0.0,-5.2986,-5.2986,-5.2986,-5.2986,-5.2986,-5.2986,-5.2986,-5.2986,-5.2986,-5.2986,-5.2986,-5.3059,-5.4638,-5.5372,-5.5372,-5.5372,-5.4968,-5.4289,-5.4289,-5.4748,-5.5409,-5.4693,-5.4876,-5.5592,-5.5592,-5.5537,-5.5482,-5.5482,-5.5427,-5.5372,-5.5464,-5.5482,-5.5647,-5.6528,-5.6767,-5.6877,-5.7758,-5.7886,-5.7813,-5.796,-5.7886,-5.7813,-5.796,-5.7997,-5.7997,-5.7997,-5.7997,-5.7997,-5.7997,-5.7997,-5.7997,-5.7997,-5.7997,-5.7997,-5.7997,-5.7997,-5.796,-5.7905,-5.7941,-5.7409,-5.5868,-5.5702,-5.5115,-5.3665,-5.3408,-5.3316,-5.3316,-5.3243,-5.3206,-5.3206,-5.3206,-5.3206,-5.3206,-5.3206,-5.317,-5.3096,-5.2362,-5.1555,-5.0674,-4.9921,-4.9591,0.0,-2.7034,0.0,0.0,0.0,0.0,0.0,0.0,0.0,0.0,0.0,0.0,0.0,0.0,0.0,0.0,0.0,0.0,0.0,0.0,0.0,0.0,0.0,0.0,0.0,0.0,0.0,0.0,0.0,0.0,-5.1316,-5.1316,-5.1316,-5.1316,-5.1316,-5.1316,-5.1316,-5.1316,-5.1316,0.0,-5.1316,-5.1316,-5.1371,-5.2986,-5.372,-5.372,-5.372,-5.3628,-5.3463,-5.3463,-5.394,-5.4638,-5.4473,-5.4876,-5.5592,-5.5592,-5.5188,-5.4656,-5.4656,-5.4234,-5.383,-5.4454,-5.4656,-5.4932,-5.6363,-5.6363,-5.6161,-5.7593,-5.7079,-5.64,-5.7666,-5.706,-5.6418,-5.7703,-5.7997,-5.7997,-5.7997,-5.7997,-5.7997,-5.7997,-5.7997,-5.7997,-5.7997,-5.7997,-5.7997,-5.7997,-5.7997,-5.7776,-5.7152,-5.7611,-5.7629,-5.6657,-5.6547,-5.64,-5.6069,-5.4876,-5.4142,-5.4142,-5.3555,-5.3206,-5.3206,-5.3206,-5.3206,-5.3206,-5.3206,-5.2894,-5.2252,-5.2068,-5.1242,-4.9848,-4.9664,-4.9591,0.0,0.0,0.0,0.0,0.0,0.0,0.0,0.0,0.0,0.0,0.0,0.0,0.0,0.0,0.0,0.0,0.0,0.0,0.0,0.0,0.0,0.0,0.0,0.0,0.0,0.0,0.0,0.0,0.0,-5.032,-5.032,-5.0643,-5.0802,-5.0802,-5.0802,-5.0802,-5.0802,-5.0802,-5.0802,-5.0802,-5.0802,-5.0802,-5.0839,-5.1683,-5.227,-5.2637,-5.2637,-5.2637,-5.2637,-5.2637,-5.2656,-5.2674,-5.2674,-5.2931,-5.3353,-5.372,-5.361,-5.3298,-5.3683,-5.3555,-5.328,-5.3702,-5.383,-5.4051,-5.528,-5.5354,-5.528,-5.651,-5.6235,-5.5776,-5.662,-5.6216,-5.5794,-5.6638,-5.684,-5.706,-5.7831,-5.7703,-5.7538,-5.7923,-5.7997,-5.7886,-5.7483,-5.7116,-5.684,-5.684,-5.7171,-5.7281,-5.6859,-5.7501,-5.7538,-5.6345,-5.6235,-5.5904,-5.5152,-5.4326,-5.383,-5.383,-5.3445,-5.3206,-5.3206,-5.3206,-5.3206,-5.3206,-5.3206,-5.3004,-5.2564,-5.2564,-5.194,-5.0729,-5.0729,-5.0527,0.0,0.0,0.0,0.0,0.0,0.0,0.0,0.0,0.0,0.0,0.0,0.0,0.0,0.0,0.0,0.0,0.0,0.0,0.0,0.0,0.0,0.0,0.0,0.0,0.0,0.0,0.0,0.0,0.0,-4.9018,-4.8999,-4.95,-4.986,-4.9958,-4.9958,-4.9958,-4.9958,-4.9958,-5.0031,-5.016,-5.0306,-5.0215,-4.9958,-5.0105,-5.0765,-5.1775,-5.1775,-5.1775,-5.1775,-5.1775,-5.1389,-5.0802,-5.0802,-5.0802,-5.0875,-5.1555,-5.1775,-5.1885,-5.2564,-5.2894,-5.3004,-5.3004,-5.3096,-5.3353,-5.4161,-5.4308,-5.4399,-5.5317,-5.539,-5.5244,-5.5519,-5.5372,-5.5244,-5.5519,-5.5372,-5.5629,-5.7244,-5.7171,-5.7005,-5.7666,-5.7795,-5.7538,-5.673,-5.6033,-5.5592,-5.5592,-5.6161,-5.6602,-5.6602,-5.7299,-5.7281,-5.5941,-5.5794,-5.5207,-5.3739,-5.35,-5.3353,-5.3225,-5.3206,-5.3206,-5.3206,-5.3206,-5.3206,-5.3206,-5.3206,-5.3206,-5.3206,-5.3206,-5.2803,-5.1995,-5.1995,-5.1481,0.0,0.0,0.0,0.0,0.0,0.0,0.0,0.0,0.0,0.0,0.0,0.0,0.0,0.0,0.0,0.0,0.0,0.0,0.0,0.0,0.0,0.0,0.0,0.0,0.0,0.0,0.0,0.0,-4.5488,-4.5846,-4.573,-4.5793,-4.607,-4.6544,-4.6544,-4.6544,-4.6544,-4.6544,-4.6911,-4.7609,-4.8306,-4.7902,-4.6581,-4.7297,-4.8838,-5.0967,-5.0967,-5.0967,-5.0967,-5.0967,-5.0894,-5.0802,-5.0802,-5.0802,-5.082,-5.093,-5.0967,-5.0986,-5.1077,-5.1573,-5.216,-5.216,-5.2637,-5.3353,-5.4161,-5.3922,-5.3683,-5.517,-5.4601,-5.3849,-5.5225,-5.4564,-5.3867,-5.5262,-5.4546,-5.3959,-5.5556,-5.6381,-5.684,-5.695,-5.6969,-5.6712,-5.5886,-5.5666,-5.5592,-5.5592,-5.5684,-5.5757,-5.5757,-5.6455,-5.6877,-5.6657,-5.6638,-5.6271,-5.5354,-5.4638,-5.394,-5.3243,-5.3206,-5.3206,-5.3206,-5.3206,-5.3206,-5.3206,-5.3206,-5.3206,-5.3206,-5.3206,-5.2803,-5.1995,-5.1995,-5.1187,-2.6507,0.0,0.0,0.0,0.0,0.0,0.0,0.0,0.0,0.0,0.0,0.0,0.0,0.0,0.0,0.0,0.0,0.0,0.0,0.0,0.0,0.0,0.0,0.0,0.0,0.0,0.0,0.0,-4.3794,-4.4161,-4.4102,-4.4713,-4.52,-4.5415,-4.5718,-4.5902,-4.5902,-4.5902,-4.6085,-4.6434,-4.6801,-4.6581,-4.5902,-4.6269,-4.7278,-4.8765,-4.9205,-4.9407,-4.9444,-4.9921,-4.9572,-4.8783,-4.9224,-4.9132,-4.8857,-4.9774,-5.0123,-5.0178,-5.0637,-5.1041,-5.1389,-5.1848,-5.2234,-5.2674,-5.3482,-5.3482,-5.3353,-5.4069,-5.3757,-5.3371,-5.4069,-5.3739,-5.339,-5.4087,-5.372,-5.339,-5.4106,-5.4895,-5.5592,-5.6033,-5.5757,-5.5335,-5.4987,-5.4546,-5.4252,-5.4252,-5.4638,-5.5078,-5.5537,-5.6308,-5.6638,-5.618,-5.6124,-5.5611,-5.4363,-5.394,-5.3592,-5.3225,-5.3206,-5.3206,-5.3206,-5.3206,-5.3206,-5.3206,-5.3206,-5.3206,-5.3206,-5.3206,-5.3023,-5.2656,-5.2197,-5.161,0.0,0.0,0.0,0.0,0.0,0.0,0.0,0.0,0.0,0.0,0.0,0.0,0.0,0.0,0.0,0.0,0.0,0.0,0.0,0.0,0.0,0.0,0.0,0.0,0.0,0.0,0.0,0.0,-4.2381,-4.2731,-4.2701,-4.3527,-4.4145,-4.4484,-4.4871,-4.5169,-4.5278,-4.5498,-4.5407,-4.5095,-4.5497,-4.5479,-4.5095,-4.5296,-4.5681,-4.625,-4.726,-4.77,-4.7737,-4.8379,-4.7921,-4.6856,-4.7462,-4.7462,-4.726,-4.8508,-4.9077,-4.9352,-4.9958,-5.0306,-5.0618,-5.1426,-5.183,-5.2142,-5.2968,-5.3206,-5.3206,-5.3206,-5.3206,-5.3206,-5.3206,-5.3206,-5.3206,-5.3206,-5.3206,-5.328,-5.3463,-5.3977,-5.4583,-5.517,-5.4803,-5.4344,-5.4124,-5.361,-5.3206,-5.3206,-5.372,-5.4399,-5.5188,-5.5812,-5.6033,-5.5629,-5.5592,-5.5023,-5.3628,-5.35,-5.3427,-5.3225,-5.3206,-5.3206,-5.3206,-5.3206,-5.3206,-5.3206,-5.3206,-5.3206,-5.3206,-5.3206,-5.3206,-5.3206,-5.2582,-5.2197,0.0,0.0,0.0,0.0,0.0,0.0,0.0,0.0,0.0,0.0,0.0,0.0,0.0,0.0,0.0,0.0,0.0,0.0,0.0,0.0,0.0,0.0,0.0,0.0,0.0,0.0,0.0,0.0,-4.09,-4.1255,-4.1029,-4.1071,-4.1657,-4.2781,-4.2858,-4.3104,-4.3608,-4.4378,-4.4145,-4.2876,-4.4415,-4.4343,-4.2894,-4.3674,-4.3868,-4.3754,-4.5333,-4.6012,-4.603,-4.6067,-4.603,-4.5975,-4.6012,-4.6471,-4.7131,-4.7223,-4.7719,-4.8379,-4.8416,-4.8967,-4.9793,-5.06,-5.1371,-5.2142,-5.2968,-5.3206,-5.3206,-5.3206,-5.3206,-5.3206,-5.3206,-5.3206,-5.3206,-5.3206,-5.3206,-5.3427,-5.4179,-5.4363,-5.4418,-5.4454,-5.4436,-5.4161,-5.339,-5.3243,-5.3206,-5.3206,-5.3243,-5.3555,-5.4363,-5.4509,-5.4803,-5.55,-5.5592,-5.5244,-5.4418,-5.4344,-5.4014,-5.3261,-5.3206,-5.3206,-5.3206,-5.3206,-5.3206,-5.3206,-5.3206,-5.3206,-5.3206,-5.3206,-5.3206,-5.3206,-5.317,-5.2729,0.0,0.0,0.0,0.0,0.0,0.0,0.0,0.0,0.0,0.0,0.0,0.0,0.0,0.0,0.0,0.0,0.0,0.0,0.0,0.0,0.0,0.0,0.0,0.0,0.0,0.0,0.0,0.0,0.0,-4.0442,-4.0385,-4.0685,-4.1087,-4.1534,-4.1937,-4.2185,-4.2386,-4.2673,-4.2593,-4.2121,-4.2715,-4.288,-4.2711,-4.3,-4.3249,-4.3516,-4.4103,-4.4654,-4.5168,-4.5681,-4.5608,-4.5186,-4.57,-4.5773,-4.5626,-4.614,-4.6856,-4.7535,-4.7535,-4.8086,-4.8912,-4.9738,-5.0563,-5.1371,-5.2197,-5.2803,-5.3206,-5.3206,-5.3206,-5.3096,-5.2564,-5.2435,-5.2435,-5.2435,-5.2821,-5.3298,-5.3573,-5.3628,-5.3628,-5.3628,-5.3628,-5.3555,-5.3261,-5.3206,-5.3206,-5.3206,-5.3206,-5.35,-5.4308,-5.4399,-5.4509,-5.4803,-5.4821,-5.4491,-5.3702,-5.3628,-5.3518,-5.3225,-5.3206,-5.3206,-5.3206,-5.3206,-5.3206,-5.3206,-5.3206,-5.3206,-5.3206,-5.2674,-5.2711,-5.3188,-5.2142,-5.1775,-2.6691,0.0,0.0,0.0,0.0,0.0,0.0,0.0,0.0,0.0,0.0,0.0,0.0,0.0,0.0,0.0,0.0,0.0,0.0,0.0,0.0,0.0,0.0,0.0,0.0,0.0,0.0,0.0,0.0,0.0,-4.007,-4.0209,-4.0296,-4.0428,-4.1262,-4.1569,-4.1319,-4.1404,-4.1319,-4.1104,-4.1584,-4.2021,-4.2382,-4.2616,-4.2976,-4.3497,-4.3497,-4.3791,-4.4342,-4.4874,-4.4782,-4.436,-4.4892,-4.4929,-4.4764,-4.5296,-4.6012,-4.6709,-4.6709,-4.7223,-4.8049,-4.8893,-4.9719,-5.0545,-5.1353,-5.216,-5.2747,-5.2472,-5.2601,-5.2674,-5.2142,-5.2197,-5.2399,-5.2399,-5.2821,-5.3206,-5.3206,-5.3206,-5.3206,-5.3206,-5.3206,-5.3206,-5.3206,-5.3206,-5.3206,-5.3206,-5.3445,-5.3702,-5.3959,-5.4234,-5.4308,-5.4032,-5.4014,-5.3794,-5.3261,-5.3206,-5.3206,-5.3206,-5.3206,-5.3206,-5.3206,-5.3206,-5.3206,-5.3206,-5.2931,-5.2803,-5.2803,-5.2527,-5.2546,-5.2784,-5.1995,-5.1756,0.0,0.0,0.0,0.0,0.0,0.0,0.0,0.0,0.0,0.0,0.0,0.0,0.0,0.0,0.0,0.0,0.0,0.0,0.0,0.0,0.0,0.0,0.0,0.0,0.0,0.0,0.0,0.0,-3.936,-3.9276,-3.9969,-3.9343,-3.9135,-3.9428,-4.0733,-4.1033,-4.0239,-4.0499,-4.0355,-3.9777,-4.1068,-4.174,-4.1817,-4.2386,-4.2958,-4.3497,-4.3497,-4.3497,-4.3497,-4.3497,-4.3497,-4.3497,-4.3497,-4.3975,-4.4672,-4.4672,-4.5168,-4.5865,-4.5865,-4.6397,-4.7223,-4.8012,-4.8838,-4.9701,-5.0508,-5.1334,-5.1793,-5.1022,-5.1353,-5.1958,-5.194,-5.2509,-5.3096,-5.3096,-5.3133,-5.317,-5.317,-5.3188,-5.3206,-5.3206,-5.3206,-5.3206,-5.3206,-5.3206,-5.3206,-5.3206,-5.3867,-5.4087,-5.3316,-5.3885,-5.4069,-5.3298,-5.3206,-5.3206,-5.3206,-5.3206,-5.3206,-5.3206,-5.3206,-5.3206,-5.3206,-5.3206,-5.3206,-5.3206,-5.2435,-5.1995,-5.1958,-5.2747,-5.2747,-5.2013,-5.2803,-5.2729,-2.6691,0.0,0.0,0.0,0.0,0.0,0.0,0.0,0.0,0.0,0.0,0.0,0.0,0.0,0.0,0.0,0.0,0.0,0.0,0.0,0.0,0.0,0.0,0.0,0.0,0.0,0.0,0.0,-3.8328,-3.8294,-3.8497,-3.8328,-3.8235,-3.8351,-3.8705,-3.8794,-3.8587,-3.8631,-3.8745,-3.8918,-3.9303,-4.0186,-4.1507,-4.1679,-4.2395,-4.3497,-4.3497,-4.3497,-4.3497,-4.3497,-4.3497,-4.3497,-4.3497,-4.3626,-4.3828,-4.3828,-4.4342,-4.5039,-4.5039,-4.5571,-4.6361,-4.7186,-4.7994,-4.882,-4.9664,-5.049,-5.1096,-5.0857,-5.0967,-5.1004,-5.0398,-5.0417,-5.06,-5.06,-5.1481,-5.2325,-5.2325,-5.2803,-5.3206,-5.3206,-5.3206,-5.3206,-5.3206,-5.3206,-5.3206,-5.3206,-5.339,-5.3463,-5.3243,-5.339,-5.3463,-5.3225,-5.3206,-5.3206,-5.3206,-5.3206,-5.3206,-5.3206,-5.3206,-5.3206,-5.3206,-5.3206,-5.3206,-5.3206,-5.2986,-5.2307,-5.1132,-5.1371,-5.1646,-5.1995,-5.2234,-5.1903,-2.6776,-2.6691,0.0,0.0,0.0,0.0,-2.6065,-2.5727,-2.5642,0.0,0.0,0.0,0.0,0.0,0.0,0.0,0.0,0.0,0.0,0.0,0.0,0.0,0.0,0.0,0.0,-3.6958,-3.7094,-3.7415,-3.7432,-3.7432,-3.7432,-3.7967,-3.7923,-3.7308,-3.7581,-3.7581,-3.7291,-3.7403,-3.7585,-3.7837,-3.8625,-3.9741,-4.1106,-4.156,-4.2429,-4.3497,-4.3497,-4.3497,-4.3497,-4.3497,-4.3497,-4.3497,-4.3497,-4.3497,-4.3497,-4.3497,-4.3791,-4.4195,-4.4195,-4.4727,-4.5535,-4.6342,-4.6929,-4.7517,-4.8691,-4.9389,-4.9756,-4.9756,-4.9994,-5.016,-4.9701,-4.9829,-5.0086,-5.0086,-5.082,-5.1499,-5.1499,-5.1867,-5.2417,-5.3078,-5.3206,-5.3206,-5.3206,-5.3206,-5.3206,-5.3206,-5.35,-5.3592,-5.3243,-5.35,-5.3573,-5.3243,-5.3206,-5.3206,-5.3206,-5.3206,-5.3206,-5.3206,-5.3206,-5.3206,-5.3206,-5.3206,-5.3206,-5.3206,-5.2546,-5.1573,-5.0288,-5.1316,-5.1867,-5.1977,-5.1665,-5.1242,-2.6894,-2.6691,-2.6691,0.0,-2.6691,0.0,-2.659,-2.6573,-2.6573,-2.6573,0.0,0.0,0.0,0.0,0.0,0.0,0.0,0.0,0.0,0.0,0.0,0.0,0.0,0.0,-3.5318,-3.5385,-3.5656,-3.6349,-3.64,-3.6451,-3.6518,-3.7521,-3.7499,-3.6084,-3.6772,-3.679,-3.6049,-3.6297,-3.6525,-3.6729,-3.8338,-3.9625,-4.0659,-4.1613,-4.247,-4.3222,-4.3222,-4.3222,-4.3222,-4.3222,-4.3332,-4.3497,-4.3497,-4.3497,-4.3497,-4.3497,-4.3497,-4.3497,-4.3497,-4.3975,-4.4709,-4.5516,-4.5773,-4.6049,-4.7572,-4.8031,-4.8049,-4.8141,-4.8691,-4.926,-4.9407,-4.9976,-5.0527,-5.0527,-5.06,-5.0674,-5.0674,-5.0747,-5.1224,-5.2674,-5.3023,-5.3115,-5.3188,-5.3206,-5.3206,-5.3206,-5.3812,-5.4014,-5.3298,-5.383,-5.3995,-5.3298,-5.3206,-5.3206,-5.3206,-5.3206,-5.3206,-5.3206,-5.3206,-5.3206,-5.3206,-5.3206,-5.3206,-5.3206,-5.1628,-5.049,-4.9848,-5.194,-5.2527,-5.172,-5.1096,-5.0747,0.0,0.0,0.0,0.0,-2.6691,0.0,-2.5947,-2.5812,-2.5812,0.0,-2.593,0.0,0.0,0.0,0.0,0.0,0.0,0.0,0.0,0.0,0.0,0.0,0.0,0.0,-3.3829,-3.3846,-3.3897,-3.4049,-3.4066,-3.432,-3.4912,-3.4618,-3.4287,-3.3998,-3.4134,-3.4134,-3.3998,-3.4024,-3.4768,-3.6166,-3.6514,-3.7864,-4.0075,-4.0276,-4.0818,-4.1589,-4.1589,-4.1589,-4.1589,-4.1589,-4.2323,-4.3497,-4.3497,-4.3497,-4.3497,-4.3497,-4.3497,-4.3497,-4.3497,-4.3589,-4.3864,-4.4672,-4.4947,-4.5112,-4.6085,-4.6379,-4.6507,-4.7168,-4.7462,-4.7737,-4.8379,-4.8673,-4.8802,-4.8802,-4.9315,-4.9811,-4.9811,-5.0343,-5.0894,-5.1206,-5.1793,-5.2435,-5.3096,-5.3206,-5.3206,-5.3206,-5.3335,-5.339,-5.3225,-5.3353,-5.339,-5.3225,-5.3206,-5.3206,-5.3206,-5.3206,-5.3206,-5.3206,-5.3206,-5.3206,-5.3206,-5.3206,-5.3206,-5.3206,-5.1628,-5.1041,-5.1518,-5.1353,-5.0839,-5.0068,-5.0563,-5.0453,0.0,0.0,0.0,-2.774,0.0,0.0,0.0,-2.642,-2.6251,-2.664,-2.6404,-2.6268,-2.664,0.0,0.0,0.0,0.0,0.0,0.0,0.0,0.0,0.0,0.0,0.0,-3.1207,-3.1546,-3.207,-3.2797,-3.2848,-3.3169,-3.3914,-3.3609,-3.3406,-3.3406,-3.3406,-3.3406,-3.3406,-3.3639,-3.418,-3.5052,-3.5954,-3.7232,-3.8951,-3.9585,-4.0341,-4.1111,-4.1111,-4.1111,-4.1111,-4.1111,-4.1809,-4.2892,-4.2892,-4.3149,-4.3497,-4.3497,-4.3497,-4.3497,-4.3497,-4.3497,-4.3626,-4.4452,-4.4433,-4.4323,-4.5535,-4.6177,-4.6581,-4.7003,-4.7407,-4.781,-4.8214,-4.8306,-4.8306,-4.8306,-4.8636,-4.8948,-4.8948,-4.926,-4.9682,-5.0105,-5.0527,-5.1187,-5.2399,-5.227,-5.2142,-5.2546,-5.227,-5.216,-5.2546,-5.2601,-5.2766,-5.317,-5.3206,-5.3206,-5.3206,-5.3206,-5.3206,-5.3206,-5.3206,-5.3206,-5.3206,-5.3206,-5.2839,-5.2032,-5.1206,-5.06,-5.0141,-5.0178,-4.9976,-4.9591,-4.9572,-4.9334,0.0,0.0,0.0,0.0,0.0,-2.735,0.0,0.0,0.0,0.0,0.0,0.0,0.0,0.0,0.0,0.0,0.0,0.0,0.0,0.0,0.0,0.0,0.0,0.0,-2.8772,-2.9313,-3.0277,-3.1749,-3.1579,-3.1816,-3.273,-3.2763,-3.2713,-3.256,-3.2831,-3.2916,-3.278,-3.335,-3.3852,-3.4245,-3.5774,-3.7043,-3.8083,-3.9173,-4.0029,-4.0653,-4.0653,-4.0653,-4.0653,-4.0653,-4.1111,-4.1864,-4.2176,-4.2782,-4.3497,-4.3497,-4.3497,-4.3497,-4.3497,-4.3497,-4.3608,-4.4268,-4.403,-4.3736,-4.5039,-4.5902,-4.6452,-4.6599,-4.7223,-4.7884,-4.8031,-4.8196,-4.8306,-4.8306,-4.8306,-4.8306,-4.8306,-4.8306,-4.8508,-4.9205,-4.9334,-4.9848,-5.1481,-5.1224,-5.1022,-5.1665,-5.1224,-5.1041,-5.1683,-5.1756,-5.2013,-5.2674,-5.2747,-5.2747,-5.2747,-5.2894,-5.2968,-5.2968,-5.3115,-5.3206,-5.3206,-5.3206,-5.2527,-5.1059,-5.0875,-5.0068,-4.8545,-4.9077,-4.9334,-4.9334,-4.8802,-4.8471,0.0,0.0,0.0,0.0,-2.8528,0.0,0.0,0.0,-2.6895,-2.6316,0.0,0.0,0.0,0.0,0.0,0.0,0.0,0.0,0.0,0.0,0.0,0.0,0.0,0.0,0.0,-2.7992,-2.8721,-3.0243,-2.9093,-2.8958,-3.0412,-3.048,-3.0176,-2.9499,-3.0768,-3.114,-3.0497,-3.1534,-3.3,-3.4801,-3.5439,-3.6731,-3.8627,-3.8768,-3.8891,-3.8982,-3.8982,-3.8982,-3.8982,-3.8982,-3.9441,-4.0304,-4.1735,-4.2782,-4.3497,-4.3497,-4.3497,-4.3497,-4.3497,-4.3497,-4.3516,-4.3608,-4.3552,-4.3516,-4.3718,-4.3828,-4.4048,-4.4782,-4.5553,-4.6342,-4.7058,-4.7774,-4.8306,-4.8306,-4.8306,-4.8306,-4.8306,-4.8306,-4.8343,-4.8434,-4.8453,-4.8985,-5.0655,-5.0857,-5.0839,-5.093,-5.0857,-5.0839,-5.093,-5.0949,-5.0967,-5.1059,-5.1077,-5.1077,-5.1077,-5.172,-5.2142,-5.2142,-5.2821,-5.3206,-5.3206,-5.3206,-5.2784,-5.1867,-5.1151,-5.0362,-4.9426,-4.8783,-4.8453,-4.8471,-4.9132,-4.904,0.0,0.0,0.0,0.0,0.0,0.0,-2.7427,0.0,-2.6952,0.0,0.0,0.0,0.0,0.0,0.0,0.0,-2.5922,0.0,0.0,0.0,0.0,0.0,0.0,0.0,0.0,0.0,0.0,0.0,-2.7774,-2.7824,-2.9381,-2.9448,-2.9313,-2.8991,-3.0006,-3.0412,-3.0108,-3.1514,-3.2615,-3.3525,-3.5227,-3.6449,-3.7331,-3.8267,-3.8707,-3.8707,-3.8707,-3.8707,-3.8707,-3.8707,-3.9166,-3.9955,-4.0634,-4.168,-4.2855,-4.3314,-4.3497,-4.3497,-4.3497,-4.3497,-4.3497,-4.3497,-4.3497,-4.3497,-4.3497,-4.3828,-4.4268,-4.4617,-4.5626,-4.6673,-4.7021,-4.7719,-4.8306,-4.8306,-4.8306,-4.8306,-4.8306,-4.8306,-4.8306,-4.8306,-4.8306,-4.8526,-4.9242,-4.9352,-4.9517,-5.0031,-4.9664,-4.9536,-5.0031,-5.0086,-5.027,-5.0747,-5.0802,-5.0802,-5.0802,-5.1114,-5.1499,-5.1958,-5.2766,-5.3004,-5.2527,-5.2968,-5.2601,-5.1334,-5.0967,-5.016,-4.8838,-4.8489,-4.8306,-4.8324,-4.8673,-4.8655,-2.9361,0.0,0.0,0.0,0.0,0.0,0.0,0.0,0.0,0.0,0.0,0.0,0.0,0.0,0.0,0.0,0.0,-2.6139,0.0,-2.6522,0.0,0.0,0.0,0.0,0.0,0.0,0.0,-2.708,-2.6505,-2.6742,-2.8281,-2.8552,-2.8569,-2.8366,-2.9296,-2.9861,-2.9938,-3.1462,-3.2477,-3.3051,-3.4993,-3.6064,-3.634,-3.7734,-3.8377,-3.8377,-3.8597,-3.8707,-3.8707,-3.8707,-3.9038,-3.9588,-3.9808,-4.0744,-4.2066,-4.2873,-4.3296,-4.3497,-4.3497,-4.3497,-4.3497,-4.3497,-4.3497,-4.3497,-4.3497,-4.3901,-4.4378,-4.4378,-4.5369,-4.6507,-4.6728,-4.7388,-4.8031,-4.8251,-4.8141,-4.7976,-4.7976,-4.781,-4.7719,-4.7939,-4.7976,-4.8049,-4.8269,-4.8306,-4.8508,-4.9132,-4.871,-4.8526,-4.915,-4.9224,-4.9462,-5.005,-5.0105,-5.0105,-5.0105,-5.0325,-5.0802,-5.161,-5.2435,-5.2619,-5.2013,-5.2766,-5.2454,-5.0839,-5.0802,-4.9976,-4.8306,-4.8306,-4.8306,-4.8306,-4.8306,-4.8306,0.0,0.0,0.0,-2.8642,0.0,0.0,0.0,0.0,-2.721,0.0,0.0,0.0,0.0,0.0,0.0,0.0,0.0,0.0,0.0,0.0,0.0,0.0,0.0,0.0,0.0,0.0,-2.4086,-2.5575,-2.4983,-2.5234,-2.6691,-2.7452,-2.752,-2.6793,-2.823,-2.9227,-2.959,-3.0835,-3.2402,-3.4339,-3.4819,-3.5495,-3.6321,-3.7147,-3.7533,-3.7599,-3.8358,-3.8707,-3.8707,-3.8707,-3.8726,-3.8817,-3.9588,-4.0414,-4.1258,-4.2047,-4.2818,-4.3497,-4.3497,-4.3497,-4.3497,-4.3497,-4.3497,-4.3497,-4.3497,-4.3516,-4.3534,-4.3534,-4.414,-4.4966,-4.5736,-4.6544,-4.7352,-4.8122,-4.7719,-4.715,-4.715,-4.6544,-4.6214,-4.7003,-4.715,-4.7407,-4.8177,-4.8306,-4.8324,-4.8343,-4.8324,-4.8324,-4.8343,-4.8343,-4.8361,-4.8379,-4.8379,-4.8379,-4.8379,-4.915,-4.9976,-5.0784,-5.1591,-5.2013,-5.1995,-5.2766,-5.2454,-5.0839,-5.0802,-4.9976,-4.8306,-4.8306,-4.8306,-4.8306,-4.8306,-4.8306,0.0,0.0,-2.8834,-2.8561,0.0,0.0,0.0,0.0,0.0,0.0,0.0,0.0,0.0,0.0,0.0,0.0,0.0,0.0,0.0,0.0,0.0,0.0,0.0,0.0,0.0,0.0,0.0,-2.549,-2.4915,-2.5118,-2.6607,-2.6945,-2.6962,-2.6708,-2.7689,-2.8522,-2.9175,-3.0637,-3.2009,-3.3155,-3.4393,-3.5477,-3.6321,-3.711,-3.7507,-3.7514,-3.7771,-3.79,-3.79,-3.79,-3.8212,-3.8726,-3.9001,-3.9606,-4.0469,-4.1809,-4.28,-4.3497,-4.3497,-4.3497,-4.3497,-4.3497,-4.3497,-4.3497,-4.3497,-4.3497,-4.3497,-4.3497,-4.4085,-4.4764,-4.5039,-4.57,-4.6379,-4.6654,-4.6507,-4.6305,-4.6305,-4.6085,-4.5975,-4.625,-4.6746,-4.704,-4.6764,-4.759,-4.8306,-4.8306,-4.8306,-4.8306,-4.8306,-4.8306,-4.8306,-4.8306,-4.8306,-4.8306,-4.8306,-4.9095,-4.9462,-4.9169,-5.093,-5.1756,-5.1224,-5.2491,-5.2692,-5.161,-5.1077,-5.0251,-4.915,-4.8581,-4.8306,-4.8306,-4.8306,-4.8306,-2.7625,-2.7904,0.0,-2.8735,-2.8743,0.0,-2.8259,0.0,-2.8517,0.0,0.0,0.0,0.0,0.0,0.0,0.0,0.0,0.0,0.0,-2.6691,0.0,0.0,0.0,0.0,0.0,-2.3596,-2.3731,-2.5473,-2.4915,-2.5118,0.0,0.0,-2.6826,-2.708,-2.7726,-2.8631,-2.9834,-3.1055,-3.2102,-3.2983,-3.4051,-3.4871,-3.544,-3.6229,-3.678,-3.7074,-3.7367,-3.7643,-3.7918,-3.7918,-3.823,-3.8707,-3.8707,-3.9368,-4.0451,-4.1497,-4.2561,-4.3497,-4.3497,-4.3497,-4.3497,-4.3497,-4.3497,-4.3497,-4.3497,-4.3497,-4.3552,-4.3846,-4.4085,-4.4415,-4.4984,-4.5296,-4.5553,-4.5828,-4.5681,-4.548,-4.548,-4.5241,-4.5131,-4.5424,-4.5902,-4.6177,-4.5938,-4.7003,-4.7884,-4.7884,-4.8122,-4.8306,-4.8306,-4.8306,-4.8306,-4.8306,-4.8306,-4.8306,-4.8306,-4.8802,-4.9022,-4.8783,-5.0527,-5.1463,-5.1242,-5.2509,-5.2968,-5.2435,-5.1646,-5.0967,-5.0435,-4.9315,-4.8765,-4.8746,-4.8434,-4.8306]}]]